     2              OBSERVATION DATA    GPS                 RINEX VERSION / TYPE
teqc 2000Feb29 Matthijs van Domsela20000701 00:36:28UTC     PGM / RUN BY / DATE
                                                            COMMENT
L2: 1 -> 1; 5 -> 5; 60 -> 9                                 COMMENT
L2: 1 -> 1; 5 -> 5; 60 -> 9                                 COMMENT
L2: 1 -> 1; 5 -> 5; 60 -> 9                                 COMMENT
L2: 1 -> 1; 5 -> 5; 60 -> 9                                 COMMENT
L2: 1 -> 1; 5 -> 5; 60 -> 9                                 COMMENT
L2: 1 -> 1; 5 -> 5; 60 -> 9                                 COMMENT
L2: 1 -> 1; 5 -> 5; 60 -> 9                                 COMMENT
L2: 1 -> 1; 5 -> 5; 60 -> 9                                 COMMENT
L2: 1 -> 1; 5 -> 5; 60 -> 9                                 COMMENT
Original Marker Name: S364                                  COMMENT
Campaign Name: Hector Mine Earthquake Survey                COMMENT
4-Character Station Name: S364                              COMMENT
6-Character Antenna Code: TRMCMP                            COMMENT
Vertical Measurement Point: TGP                             COMMENT
Vertical Offset to Rinex Ref. Point: 0.0591                 COMMENT
Radial Measurement Point: NGP                               COMMENT
Radial Offset to Rinex Ref. Point: 0.2334                   COMMENT
Antenna Height from Field Measurement: 1.7288 m             COMMENT
Additional Antenna Identification Info.:                    COMMENT
Model 22020.00+GP                                           COMMENT
Original XYZ: -2181073.3775 -4692634.7994 3716970.5503      COMMENT
New XYZ position is based on association with SCEC monument COMMENT
E1F5N2A4+0011. Position of that monument is believed to be  COMMENT
valid to within 1 m horizontally; vertical accuracy         COMMENT
should be no worse than 3-times this value.                 COMMENT
                                                            COMMENT
Revised Rinex header created by UCSD GPS archive for        COMMENT
GSAC on 12-Sep-2000 (2000:256) 23:07:33 GMT                 COMMENT
For assistance contact dagnew@ucsd.edu                      COMMENT
or anderson@python.ucsd.edu                                 COMMENT
                                                            COMMENT
S364 1963                                                   MARKER NAME
5283                                                        MARKER NUMBER
-Unknown- THE KEITH COMPANY                                 OBSERVER / AGENCY
20155283 TRIMBLE 4700 NP 1.20; SP 1.43                      REC # / TYPE / VERS
S/N UNKNOWN TR GEOD L1/L2 GP                                ANT # / TYPE
 -2181074.3913 -4692637.3421  3716971.7330                  APPROX POSITION XYZ
        1.6539        0.0000        0.0000                  ANTENNA: DELTA H/E/N
     1     1     0                                          WAVELENGTH FACT L1/2
     7    L1    L2    C1    P2    P1    D1    D2            # / TYPES OF OBSERV
     0                                                      INTERVAL
  2000     5     2    14    51   30.000000                  TIME OF FIRST OBS
  2000     5     2    20    34   30.000000                  TIME OF LAST OBS
                                                            END OF HEADER
 00  5  2 14 51 30.0000000  0  8G 2G 7G 8G 9G26G27G 4G11
    741945.26659    572833.22758  21089177.1304   21089174.9734
      -958.3794       -746.7894
    382699.05159    295968.06258  20395613.6454   20395610.8314
      -608.0274       -473.7884
   2991673.99659   2309148.09557  22297813.4964   22297812.3184
     -3834.9224      -2988.2514
   -983795.08259   -762030.31157  23723692.0664   23723690.5804
      2629.5754       2049.0204
   1405811.47359   1085894.12857  22849098.7224   22849097.2534
     -1914.5514      -1491.8584
   3272284.90659   2527528.30157  23338657.6004   23338659.2604
     -4165.4884      -3245.8354
  -2128857.48059  -1651715.26357  23231571.0584   23231571.6034
      2944.3124       2294.2694
   1021602.06359    791458.71257  24301864.1624   24301862.3134
     -2815.1864      -2193.6514
 00  5  2 14 51 45.0000000  0  8G 2G 7G 8G 9G26G27G 4G11
    756335.60949    584046.46648  21091915.6414   21091913.1874
      -960.4934       -748.4364
    391860.54749    303106.88248  20397357.1204   20397354.1044
      -613.7214       -478.2244
   3049225.08249   2353993.04947  22308765.2014   22308764.2994
     -3838.6524      -2991.1584
  -1023224.24649   -792754.32747  23716188.1674   23716187.4934
      2627.5684       2047.4564
   1434576.40649   1108308.34247  22854572.3894   22854571.0664
     -1920.9284      -1496.8274
   3334786.80549   2576230.96847  23350551.3714   23350552.8444
     -4168.3254      -3248.0464
  -2173019.92249  -1686127.47647  23223167.0224   23223168.0364
      2943.8134       2293.8814
   1063870.69949    824395.26947  24309907.9914   24309906.1744
     -2821.0014      -2198.1834
 00  5  2 14 52  0.0000000  0  8G 2G 7G 8G 9G26G27G 4G11
    770757.93849    595284.63948  21094660.3404   21094657.5954
      -962.5784       -750.0614
    401106.91849    310311.85248  20399116.6414   20399113.2994
      -619.2384       -482.5234
   3106831.89849   2398881.43147  22319727.5764   22319726.9834
     -3842.3004      -2994.0004
  -1062626.02049   -823456.99147  23708690.5364   23708689.2544
      2625.8254       2046.0984
   1463436.05149   1130796.34447  22860064.0544   22860062.8744
     -1927.1444      -1501.6704
   3397329.15249   2624965.15747  23362453.3694   23362454.1824
     -4170.8744      -3250.0324
  -2217174.52349  -1720533.52347  23214764.7354   23214765.5064
      2943.3594       2293.5274
   1106225.18449    857398.73547  24317967.1344   24317965.6894
     -2826.5194      -2202.4824
 00  5  2 14 52 15.0000000  0  8G 2G 7G 8G 9G26G27G 4G11
    785212.91049    606548.25148  21097410.9894   21097408.4274
      -964.8004       -751.7924
    410438.58649    317583.27648  20400892.3534   20400889.5524
      -624.9954       -487.0094
   3164494.98449   2443813.64947  22330700.0514   22330699.6174
     -3846.0694      -2996.9374
  -1101999.33249   -854137.48047  23701197.8914   23701196.3904
      2623.8134       2044.5304
   1492390.78949   1153358.44047  22865574.4904   22865573.1334
     -1933.4424      -1506.5784
   3459912.43449   2673731.26547  23374362.2284   23374363.5484
     -4173.6774      -3252.2164
  -2261320.39549  -1754932.81247  23206363.3644   23206364.9724
      2942.6714       2292.9914
   1148666.00049    890469.45947  24326043.7504   24326041.8674
     -2832.4224      -2207.0824
 00  5  2 14 52 30.0000000  0  8G 2G 7G 8G 9G26G27G 4G11
    799700.96149    617837.62948  21100167.8844   21100165.1444
      -966.9244       -753.4474
    419855.88349    324921.43348  20402684.4884   20402681.5994
      -630.5714       -491.3544
   3222214.39549   2488789.76847  22341684.2554   22341683.1644
     -3849.8004      -2999.8444
  -1141343.54349   -884795.28247  23693710.9114   23693709.8454
      2622.0854       2043.1834
   1521440.74249   1175994.73447  22871102.3374   22871100.8884
     -1939.8194      -1511.5484
   3522536.58649   2722529.22647  23386278.8594   23386280.6164
     -4176.2114      -3254.1904
  -2305456.80549  -1789324.72447  23197964.9134   23197965.6164
      2942.1734       2292.6024
   1191193.12149    923607.49346  24334136.5984   24334135.2374
     -2838.0084      -2211.4354
 00  5  2 14 52 45.0000000  0  8G 2G 7G 8G 9G26G27G 4G11
    814222.59449    629153.17148  21102931.1134   21102928.4494
      -969.1944       -755.2164
    429359.09449    332326.53748  20404492.6234   20404489.7264
      -636.3134       -495.8294
   3279990.38349   2533809.98447  22352678.5314   22352677.5474
     -3853.4814      -3002.7134
  -1180657.92249   -915429.86847  23686230.3884   23686228.3714
      2619.9854       2041.5474
   1550586.04749   1198705.32647  22876648.6964   22876647.3734
     -1946.1724      -1516.4984
   3585201.84849   2771359.17747  23398204.1404   23398205.6744
     -4179.0434      -3256.3974
  -2349582.82449  -1823708.52447  23189567.5244   23189568.8694
      2941.4014       2292.0014
   1233806.80149    956812.89646  24342245.4984   24342244.2294
     -2843.8084      -2215.9554
 00  5  2 14 53  0.0000000  0  8G 2G 7G 8G 9G26G27G 4G11
    828778.30549    640495.27848  21105701.1794   21105698.4484
      -971.6164       -757.1034
    438948.43849    339798.75148  20406317.4154   20406314.4764
      -642.1734       -500.3944
   3337823.05949   2578874.35547  22363684.0994   22363683.1424
     -3857.3684      -3005.7414
  -1219941.77749   -946040.64147  23678754.9284   23678752.8794
      2617.7984       2039.8424
   1579826.91049   1221490.38347  22882212.9374   22882211.6464
     -1952.6274      -1521.5274
   3647908.33249   2820221.26847  23410136.7064   23410138.2374
     -4181.9534      -3258.6654
  -2393697.89549  -1858083.81147  23181172.7814   23181173.7894
      2940.5574       2291.3434
   1276507.30549    990085.99546  24350371.0904   24350369.7894
     -2849.6684      -2220.5204
 00  5  2 14 53 15.0000000  0  8G 2G 7G 8G 9G26G27G 4G11
    843368.67249    651864.38548  21108477.6594   21108475.0264
      -973.9704       -758.9374
    448624.37949    347338.44648  20408158.8614   20408156.1174
      -648.0664       -504.9874
   3395712.97749   2623983.33147  22374700.1754   22374699.2644
     -3861.3434      -3008.8394
  -1259194.31649   -976627.00847  23671284.7884   23671283.5464
      2615.7084       2038.2144
   1609163.55149   1244350.07647  22887795.0794   22887793.9884
     -1959.0384      -1526.5234
   3710656.30949   2869115.69247  23422077.6904   23422079.0714
     -4184.6784      -3260.7884
  -2437800.85549  -1892449.64047  23172780.5744   23172781.1854
      2939.6734       2290.6544
   1319294.88349   1023426.92346  24358513.4674   24358511.9174
     -2855.5524      -2225.1054
 00  5  2 14 53 30.0000000  0  8G 2G 7G 8G 9G26G27G 4G11
    857995.35949    663261.79448  21111260.9334   21111257.8024
      -976.4014       -760.8324
    458388.26249    354946.66348  20410016.6484   20410013.7114
      -653.8874       -509.5224
   3453661.06649   2669137.64847  22385726.9394   22385726.0614
     -3865.2004      -3011.8444
  -1298413.77349  -1007187.57747  23663821.5104   23663819.7224
      2613.4424       2036.4494
   1638597.20349   1267285.35147  22893396.4564   22893395.0824
     -1965.4594      -1531.5264
   3773447.03549   2918043.42447  23434026.2834   23434027.6364
     -4187.4714      -3262.9644
  -2481889.90249  -1926804.64547  23164390.1354   23164391.5744
      2938.8184       2289.9884
   1362170.71549   1056836.60346  24366672.0544   24366670.6154
     -2861.3674      -2229.6374
 00  5  2 14 53 45.0000000  0  8G 2G 7G 8G 9G26G27G 4G11
    872655.82049    674685.52748  21114050.3804   21114048.1444
      -978.4134       -762.4004
    468237.38749    362621.30748  20411891.1124   20411888.5044
      -659.4294       -513.8414
   3511664.63349   2714335.18547  22396764.9154   22396764.4364
     -3868.7264      -3014.5924
  -1337602.42649  -1037724.20247  23656364.2894   23656363.1984
      2611.7684       2035.1444
   1668125.12149   1290294.09447  22899015.7224   22899014.5014
     -1971.6014      -1536.3134
   3836277.65249   2967002.24647  23445982.4364   23445984.3994
     -4189.9764      -3264.9164
  -2525967.35549  -1961150.61247  23156002.5644   23156003.6094
      2938.1404       2289.4594
   1405132.12949   1090313.05146  24374847.4124   24374845.7674
     -2866.9584      -2233.9934
 00  5  2 14 54  0.0000000  0  8G 2G 7G 8G 9G26G27G 4G11
    887351.43049    686136.63748  21116847.1104   21116844.5744
      -980.9724       -764.3944
    478172.88749    370363.25448  20413781.6654   20413779.0204
      -665.2934       -518.4104
   3569724.69149   2759576.73647  22407813.4524   22407813.2004
     -3872.6664      -3017.6624
  -1376758.68049  -1068235.53447  23648912.9174   23648911.7004
      2609.2094       2033.1504
   1697748.14849   1313376.93647  22904652.7494   22904651.3744
     -1978.1254      -1541.3964
   3899149.14849   3015992.92847  23457946.7774   23457948.3494
     -4192.9204      -3267.2104
  -2570031.42249  -1995486.12847  23147617.0654   23147618.4324
      2937.0954       2288.6454
   1448180.07049   1123856.81146  24383038.6504   24383038.3194
     -2872.7784      -2238.5284
 00  5  2 14 54 15.0000000  0  8G 2G 7G 8G 9G26G27G 4G11
    902084.44549    697616.89748  21119650.9374   21119647.8434
      -983.5744       -766.4214
    488196.71949    378174.03348  20415689.4504   20415686.7014
      -671.3434       -523.1244
   3627843.25049   2804863.87247  22418872.5864   22418871.8924
     -3876.5874      -3020.7174
  -1415880.11749  -1098719.76847  23641468.1304   23641467.2544
      2606.8654       2031.3244
   1727468.23449   1336535.41147  22910308.2704   22910307.0304
     -1984.6734      -1546.4984
   3962063.42249   3065016.93947  23469918.7994   23469920.4504
     -4195.7964      -3269.4514
  -2614079.53949  -2029809.22847  23139235.3254   23139236.1614
      2935.9674       2287.7664
   1491316.38749   1157469.54546  24391247.5114   24391246.4004
     -2878.9164      -2243.3114
 00  5  2 14 54 30.0000000  0  8G 2G 7G 8G 9G26G27G 4G11
    916853.80549    709125.47248  21122461.4104   21122458.7824
      -985.8694       -768.2104
    498307.66449    386052.69048  20417613.2384   20417610.2364
      -677.0024       -527.5344
   3686018.89849   2850195.48547  22429943.3374   22429942.2994
     -3880.2344      -3023.5594
  -1454967.49249  -1129177.44047  23634030.2934   23634029.1024
      2604.7174       2029.6494
   1757283.98049   1359768.42547  22915981.8584   22915980.6994
     -1990.8844      -1551.3384
   4025019.10549   3114073.23647  23481899.1724   23481900.3944
     -4198.4424      -3271.5144
  -2658112.53549  -2064120.56847  23130856.2504   23130857.1154
      2935.0594       2287.0594
   1534539.63349   1191149.92346  24399472.1884   24399471.5984
     -2884.5024      -2247.6644
 00  5  2 14 54 45.0000000  0  8G 2G 7G 8G 9G26G27G 4G11
    931659.79749    720662.60848  21125278.7414   21125276.2504
      -988.2424       -770.0594
    508505.91049    393999.37748  20419554.2754   20419551.0614
      -682.6764       -531.9554
   3744251.60549   2895571.60347  22441024.7744   22441024.3214
     -3883.9894      -3026.4854
  -1494020.37549  -1159608.22047  23626598.6914   23626597.1494
      2602.3974       2027.8424
   1787195.39149   1383075.97147  22921673.6374   22921672.7244
     -1997.2314      -1556.2844
   4088016.19149   3163161.78047  23493887.2904   23493888.1614
     -4201.1384      -3273.6144
  -2702129.74249  -2098419.59047  23122479.7914   23122480.6344
      2933.9754       2286.2144
   1577849.87549   1224898.13746  24407714.4164   24407713.0424
     -2890.0934      -2252.0204
 00  5  2 14 55  0.0000000  0  8G 2G 7G 8G 9G26G27G 4G11
    946502.31649    732228.20448  21128103.2314   21128100.9374
      -990.8844       -772.1174
    518791.05549    402013.77948  20421511.1154   20421508.0964
      -688.7504       -536.6884
   3802541.02049   2940991.87847  22452116.8484   22452116.3144
     -3887.9544      -3029.5754
  -1533038.63349  -1190012.03147  23619173.8264   23619172.5874
      2599.9074       2025.9024
   1817202.07049   1406457.77947  22927383.9114   22927383.0614
     -2003.7794      -1561.3864
   4151054.16449   3212282.16247  23505882.7304   23505884.0954
     -4204.0624      -3275.8934
  -2746130.90649  -2132706.10647  23114106.5874   23114107.5864
      2932.7154       2285.2324
   1621246.80149   1258713.88346  24415972.4034   24415971.6734
     -2896.2304      -2256.8034
 00  5  2 14 55 15.0000000  0  8G 2G 7G 8G 9G26G27G 4G11
    961383.48449    743823.90648  21130935.0394   21130932.7484
      -993.3254       -774.0204
    529164.97749    410097.34248  20423485.0014   20423482.4564
      -694.5214       -541.1864
   3860888.68849   2986457.53247  22463220.1554   22463219.1654
     -3891.7684      -3032.5464
  -1572019.93449  -1220387.07347  23611755.5644   23611754.6724
      2597.5154       2024.0374
   1847305.60249   1429915.03047  22933112.5684   22933111.4284
     -2010.1074      -1566.3174
   4214134.71549   3261435.75947  23517886.7344   23517888.3074
     -4206.7384      -3277.9784
  -2790113.75049  -2166978.35147  23105736.8534   23105737.7014
      2931.5044       2284.2894
   1664732.01249   1292598.44146  24424247.5534   24424246.5774
     -2901.8954      -2261.2174
 00  5  2 14 55 30.0000000  0  8G 2G 7G 8G 9G26G27G 4G11
    976302.50849    755449.10848  21133774.1764   21133771.5904
      -995.9624       -776.0744
    539626.63749    418249.28048  20425476.0304   20425473.1864
      -700.4304       -545.7894
   3919293.81649   3031967.97347  22474334.0994   22474333.3044
     -3895.6394      -3035.5634
  -1610964.90249  -1250733.76947  23604345.3174   23604343.2294
      2594.9564       2022.0444
   1877504.84449   1453446.88447  22938859.1854   22938858.0494
     -2016.5584      -1571.3444
   4277256.78549   3310621.69347  23529898.8224   23529900.2594
     -4209.6484      -3280.2464
  -2834078.62949  -2201236.61347  23097370.2824   23097371.6664
      2930.2544       2283.3154
   1708304.44149   1326550.95746  24432539.7184   24432538.2094
     -2907.7594      -2265.7864
 00  5  2 14 55 45.0000000  0  8G 2G 7G 8G 9G26G27G 4G11
    991259.15249    767103.62548  21136620.0654   21136617.3724
      -998.4674       -778.0264
    550175.66049    426469.30348  20427483.6684   20427480.5944
      -706.2994       -550.3634
   3977755.77349   3077522.69547  22485458.9264   22485458.5314
     -3899.4294      -3038.5164
  -1649873.39549  -1281052.07447  23596941.6084   23596939.3274
      2592.5344       2020.1574
   1907799.32049   1477052.92547  22944624.2334   22944623.1894
     -2022.9254      -1576.3054
   4340419.77349   3359839.53947  23541918.5154   23541919.7504
     -4212.3444      -3282.3464
  -2878025.46149  -2235480.79247  23089007.7524   23089008.1904
      2929.0874       2282.4054
   1751963.60249   1360571.03146  24440847.4024   24440846.2004
     -2913.5064      -2270.2644
 00  5  2 14 56  0.0000000  0  8G 2G 7G 8G 9G26G27G 4G11
   1006253.20349    778787.29648  21139473.2934   21139470.8674
     -1000.9674       -779.9744
    560811.64149    434757.08448  20429507.1984   20429504.3424
      -712.0704       -554.8604
   4036273.92649   3123121.20447  22496594.9234   22496594.5464
     -3903.1644      -3041.4274
  -1688745.44149  -1311341.96447  23589543.8414   23589542.3814
      2590.0934       2018.2544
   1938188.51249   1500732.77847  22950407.4214   22950405.9834
     -2029.2094      -1581.2024
   4403623.09049   3409088.74747  23553945.2344   23553947.3834
     -4214.9714      -3284.3934
  -2921954.26249  -2269710.93347  23080648.0164   23080648.7084
      2927.8764       2281.4624
   1795708.80149   1394658.18046  24449171.8944   24449170.3554
     -2919.4244      -2274.8764
 00  5  2 14 56 15.0000000  0  8G 2G 7G 8G 9G26G27G 4G11
   1021286.75449    790501.74948  21142334.3144   21142331.7664
     -1003.3114       -781.8004
    571536.26649    443113.93848  20431547.9954   20431545.0394
      -717.7054       -559.2514
   4094849.98849   3168764.83347  22507741.2204   22507740.8214
     -3906.7484      -3044.2194
  -1727578.93049  -1341601.81247  23582153.6754   23582152.2074
      2587.8134       2016.4774
   1968673.91449   1524487.60247  22956208.5264   22956206.9834
     -2035.3564      -1585.9924
   4466868.35249   3458370.67047  23565980.4274   23565982.6774
     -4217.4714      -3286.3414
  -2965862.64549  -2303925.16347  23072292.1104   23072292.9294
      2926.8024       2280.6254
   1839541.85249   1428813.79346  24457512.9084   24457511.5874
     -2924.8684      -2279.1184
 00  5  2 14 56 30.0000000  0  8G 2G 7G 8G 9G26G27G 4G11
   1036357.41049    802245.10148  21145201.9524   21145199.3774
     -1006.1724       -784.0304
    582346.99249    451537.87448  20433605.4234   20433602.5324
      -723.7794       -563.9844
   4153481.26649   3214451.48547  22518898.7394   22518897.8024
     -3910.7764      -3047.3584
  -1766376.02049  -1371833.29747  23574771.5064   23574769.3464
      2585.0394       2014.3164
   1999252.88349   1548315.32947  22962027.3854   22962026.1444
     -2041.9244      -1591.1094
   4530152.85949   3507683.15647  23578023.6404   23578025.4384
     -4220.4834      -3288.6884
  -3009752.62149  -2338125.07647  23063940.3824   23063941.0614
      2925.1664       2279.3504
   1883460.06349   1463035.80546  24465870.4714   24465868.4254
     -2930.9184      -2283.8324
 00  5  2 14 56 45.0000000  0  8G 2G 7G 8G 9G26G27G 4G11
   1051467.00049    814018.80248  21148077.3924   21148074.9044
     -1008.5064       -785.8494
    593245.41049    460030.14848  20435679.2574   20435676.7044
      -729.3994       -568.3634
   4212169.33249   3260182.39147  22530066.8104   22530066.3704
     -3914.3164      -3050.1174
  -1805134.59849  -1402034.75247  23567395.5804   23567394.2814
      2582.7004       2012.4944
   2029926.92649   1572217.15647  22967864.4804   22967863.1704
     -2047.9794      -1595.8274
   4593478.04349   3557027.34347  23590073.2314   23590075.5534
     -4222.8174      -3290.5074
  -3053622.21549  -2372309.07847  23055592.0834   23055592.8534
      2924.0334       2278.4674
   1927464.71149   1497325.12146  24474244.4794   24474242.3174
     -2936.3824      -2288.0904
 00  5  2 14 57  0.0000000  0  8G 2G 7G 8G 9G26G27G 4G11
   1066615.89849    825823.12448  21150959.9454   21150957.2334
     -1011.1384       -787.9004
    604231.61349    468590.81648  20437769.9784   20437766.8854
      -735.1764       -572.8644
   4270914.10949   3305957.49947  22541245.7634   22541245.0274
     -3918.1104      -3053.0734
  -1843854.22749  -1432205.89147  23560027.8634   23560025.7014
      2580.0544       2010.4314
   2060695.90249   1596192.94747  22973719.9674   22973718.6384
     -2054.2484      -1600.7134
   4656843.84049   3606403.18046  23602131.7834   23602133.7504
     -4225.6304      -3292.6994
  -3097470.71549  -2406476.65047  23047247.9004   23047248.6434
      2922.7104       2277.4364
   1971555.84849   1531681.84446  24482634.1214   24482632.6394
     -2942.2124      -2292.6334
 00  5  2 14 57 15.0000000  0  8G 2G 7G 8G 9G26G27G 4G11
   1081802.17649    837656.58748  21153849.7484   21153847.3324
     -1013.6574       -789.8634
    615303.47349    477218.24848  20439876.9384   20439874.0214
      -740.9814       -577.3884
   4329713.52749   3351775.17947  22552434.7744   22552434.1964
     -3921.8804      -3056.0104
  -1882536.58649  -1462347.99747  23552666.1464   23552664.7704
      2577.5934       2008.5144
   2091557.60949   1620240.99247  22979592.4174   22979591.4264
     -2060.4984      -1605.5834
   4720248.04749   3655808.94247  23614197.7934   23614199.5254
     -4228.2034      -3294.7044
  -3141299.65249  -2440628.97147  23038907.7724   23038908.4684
      2921.2014       2276.2614
   2015731.33249   1566104.28346  24491041.7974   24491039.1824
     -2947.7734      -2296.9664
 00  5  2 14 57 30.0000000  0  8G 2G 7G 8G 9G26G27G 4G11
   1097027.63349    849520.57148  21156747.5684   21156745.2924
     -1016.2504       -791.8834
    626462.64849    485913.70648  20442000.5244   20441997.8694
      -746.7044       -581.8474
   4388568.93849   3397636.49347  22563634.5434   22563634.5874
     -3925.4544      -3058.7954
  -1921179.56249  -1492459.37347  23545313.3664   23545311.6294
      2574.9324       2006.4404
   2122513.54749   1644362.46847  22985483.3824   22985482.0324
     -2066.8164      -1610.5064
   4783692.15249   3705245.78447  23626270.6134   23626272.5424
     -4230.8114      -3296.7354
  -3185106.94549  -2474764.42747  23030571.2154   23030572.1044
      2919.7464       2275.1274
   2059992.60949   1600593.60646  24499463.5694   24499461.8354
     -2953.5254      -2301.4484
 00  5  2 14 57 45.0000000  0  8G 2G 7G 8G 9G26G27G 4G11
   1112290.88349    861414.00848  21159652.0164   21159649.3044
     -1018.9064       -793.9534
    637707.46149    494675.90348  20444140.1164   20444137.0284
      -752.5834       -586.4284
   4447478.68049   3443540.13447  22574844.8794   22574844.3684
     -3929.2244      -3061.7334
  -1959784.39149  -1522541.05847  23537966.8104   23537965.2474
      2572.3104       2004.3974
   2153561.82049   1668555.91347  22991391.6214   22991390.1564
     -2073.0714      -1615.3804
   4847174.45349   3754712.38647  23638351.0504   23638353.3184
     -4233.4864      -3298.8214
  -3228893.66449  -2508883.87047  23022238.6244   23022239.1284
      2918.3354       2274.0274
   2104337.98449   1635148.46446  24507902.5304   24507900.6264
     -2959.2094      -2305.8774
 00  5  2 14 58  0.0000000  0  8G 2G 7G 8G 9G26G27G 4G11
   1127592.31649    873337.18848  21162563.7884   21162560.9094
     -1021.4364       -795.9244
    649038.11749    503504.98348  20446296.2584   20446293.3044
      -758.2714       -590.8614
   4506442.80549   3489486.16047  22586064.8154   22586064.6604
     -3932.8814      -3064.5824
  -1998350.26249  -1552592.36047  23530628.0474   23530626.0464
      2569.6344       2002.3124
   2184702.64849   1692821.46247  22997317.6294   22997316.2924
     -2079.2924      -1620.2284
   4910694.95749   3804208.78647  23650438.5184   23650440.5824
     -4236.1524      -3300.8984
  -3272659.10549  -2542986.72247  23013910.7874   23013911.2734
      2916.9384       2272.9394
   2148767.52749   1669768.84646  24516357.1774   24516355.0604
     -2964.8394      -2310.2644
 00  5  2 14 58 15.0000000  0  8G 2G 7G 8G 9G26G27G 4G11
   1142933.78549    885291.58648  21165483.0614   21165480.4914
     -1024.2724       -798.1344
    660456.19949    512402.20448  20448469.1344   20448465.7844
      -764.2974       -595.5564
   4565462.74249   3535475.67747  22597296.2024   22597295.6824
     -3936.7534      -3067.6004
  -2036875.25049  -1582611.80847  23523296.4614   23523294.7484
      2566.8164       2000.1174
   2215937.36749   1717160.18047  23003261.1444   23003260.0264
     -2085.5714      -1625.1204
   4974255.09449   3853736.04847  23662534.0024   23662535.8664
     -4238.8044      -3302.9644
  -3316401.12549  -2577071.31347  23005586.6514   23005587.4004
      2915.1224       2271.5244
   2193282.74249   1704456.00946  24524828.1924   24524826.3384
     -2970.6984      -2314.8304
 00  5  2 14 58 30.0000000  0  8G 2G 7G 8G 9G26G27G 4G11
   1158315.04349    897276.97848  21168409.9124   21168407.5164
     -1026.6314       -799.9724
    671961.24249    521367.16948  20450658.4134   20450655.4354
      -769.8244       -599.8634
   4624538.07449   3581508.35747  22608538.6664   22608537.8284
     -3940.0884      -3070.1984
  -2075359.44549  -1612599.47847  23515973.1784   23515972.1164
      2564.3514       1998.1954
   2247265.34849   1741571.56447  23009222.6514   23009221.6674
     -2091.5724      -1629.7974
   5037854.27349   3903293.76047  23674636.7144   23674638.3554
     -4241.1964      -3304.8284
  -3360119.66449  -2611137.60647  22997267.4284   22997268.2264
      2913.8184       2270.5084
   2237882.91849   1739209.39246  24533315.3924   24533313.3504
     -2976.1874      -2319.1064
 00  5  2 14 58 45.0000000  0  8G 2G 7G 8G 9G26G27G 4G11
   1173734.13749    909291.84948  21171344.1674   21171341.8434
     -1029.0284       -801.8404
    683551.00849    530398.15848  20452863.9974   20452860.8784
      -775.4204       -604.2234
   4683666.43049   3627582.35547  22619790.0884   22619789.0214
     -3943.6624      -3072.9834
  -2113804.53549  -1642556.67747  23508657.5944   23508655.8804
      2561.7334       1996.1564
   2278684.35249   1766053.87847  23015201.7544   23015200.4694
     -2097.5934      -1634.4884
   5101490.17249   3952880.05547  23686746.6174   23686748.4714
     -4243.5304      -3306.6474
  -3403816.50849  -2645187.04747  22988952.1914   22988952.6264
      2912.3974       2269.4014
   2282565.81349   1774027.17746  24541818.1334   24541816.3094
     -2981.5574      -2323.2914
 00  5  2 14 59  0.0000000  0  8G 2G 7G 8G 9G26G27G 4G11
   1189190.77749    921335.97648  21174285.2784   21174282.9034
     -1031.7194       -803.9374
    695225.03549    539494.79748  20455085.5414   20455082.3894
      -781.0894       -608.6414
   4742847.09849   3673697.11647  22631051.7394   22631051.2334
     -3947.1344      -3075.6894
  -2152210.72349  -1672483.55547  23501349.2354   23501347.5474
      2559.0384       1994.0564
   2310193.60949   1790606.51947  23021197.5814   23021196.4344
     -2103.6674      -1639.2214
   5165162.06349   4002494.41447  23698862.5024   23698864.5764
     -4245.9964      -3308.5684
  -3447491.42649  -2679219.35847  22980641.0844   22980641.0054
      2910.8794       2268.2174
   2327330.71949   1808908.94447  24550336.5714   24550334.4284
     -2987.0754      -2327.5914
 00  5  2 14 59 15.0000000  0  8G 2G 7G 8G 9G26G27G 4G11
   1204685.12149    933409.48448  21177234.0734   21177231.0144
     -1034.1944       -805.8664
    706983.20349    548657.00948  20457323.0544   20457319.7514
      -786.7334       -613.0394
   4802080.06649   3719852.63447  22642323.8864   22642322.7974
     -3950.6554      -3078.4324
  -2190577.60249  -1702379.80247  23494048.0574   23494046.2914
      2556.4894       1992.0704
   2341793.03549   1815229.42247  23027211.3634   23027209.6974
     -2109.6144      -1643.8554
   5228869.75049   4052136.66547  23710985.3754   23710987.5244
     -4248.3544      -3310.4064
  -3491144.14149  -2713234.38647  22972333.9304   22972334.0914
      2909.4534       2267.1064
   2372177.48049   1843854.41847  24558870.8124   24558868.8824
     -2992.4904      -2331.8114
 00  5  2 14 59 30.0000000  0  8G 2G 7G 8G 9G26G27G 4G11
   1220217.88349    945512.93148  21180189.7484   21180187.4134
     -1036.8554       -807.9394
    718826.02749    557885.17948  20459576.4104   20459573.4884
      -792.3054       -617.3804
   4861365.66849   3766049.16047  22653605.0064   22653604.4464
     -3954.1654      -3081.1684
  -2228904.17249  -1732244.63847  23486754.6264   23486752.8074
      2553.7744       1989.9544
   2373482.86749   1839922.76647  23033241.4634   23033240.1334
     -2115.6544      -1648.5624
   5292613.65249   4101807.08546  23723115.9234   23723118.2334
     -4250.8014      -3312.3124
  -3534773.48049  -2747231.19047  22964031.5414   22964032.0544
      2907.7784       2265.8014
   2417106.51649   1878864.03447  24567420.7234   24567418.4374
     -2998.0134      -2336.1144
 00  5  2 14 59 45.0000000  0  8G 2G 7G 8G 9G26G27G 4G11
   1235790.04349    957647.06548  21183152.9564   21183150.6024
     -1039.3604       -809.8914
    730754.24249    567179.89048  20461846.5664   20461843.3304
      -798.0134       -621.8284
   4920704.49649   3812287.15447  22664896.7794   22664896.7184
     -3957.6124      -3083.8544
  -2267189.22349  -1762077.13647  23479470.0904   23479467.3554
      2550.9474       1987.7514
   2405263.82449   1864687.11347  23039288.8534   23039288.0474
     -2121.7094      -1653.2804
   5356394.43049   4151506.27346  23735252.9264   23735254.9584
     -4253.2674      -3314.2344
  -3578378.22349  -2781208.84147  22955734.0014   22955734.3754
      2906.1724       2264.5504
   2462118.47349   1913938.26347  24575986.1814   24575984.3664
     -3003.4964      -2340.3874
 00  5  2 15  0  0.0000000  0  8G 2G 7G 8G 9G26G27G 4G11
   1251401.72749    969812.01348  21186123.7434   21186121.0334
     -1041.8654       -811.8434
    742767.83649    576541.13748  20464132.3794   20464129.5664
      -803.4964       -626.1014
   4980096.48449   3858566.57747  22676198.8374   22676198.2454
     -3960.8984      -3086.4144
  -2305432.46949  -1791877.04347  23472192.5184   23472190.7134
      2548.5164       1985.8564
   2437135.47349   1889522.14747  23045353.8594   23045353.0964
     -2127.5154      -1657.8044
   5420211.78549   4201234.01247  23747396.9924   23747398.7184
     -4255.4644      -3315.9464
  -3621957.96549  -2815166.99647  22947440.8984   22947440.7304
      2904.7514       2263.4424
   2507213.14149   1949076.94047  24584567.2744   24584565.7744
     -3008.8334      -2344.5454
 00  5  2 15  0 15.0000000  0  8G 2G 7G 8G 9G26G27G 4G11
   1267051.55149    982006.67548  21189101.8134   21189099.2884
     -1044.5804       -813.9594
    754865.04749    585967.52848  20466434.8074   20466431.6074
      -809.2584       -630.5914
   5039539.69549   3904885.90747  22687510.8404   22687510.0974
     -3964.6004      -3089.2984
  -2343634.99649  -1821645.23547  23464922.3964   23464920.5284
      2545.5324       1983.5324
   2469096.22349   1914426.57347  23051436.2824   23051434.7624
     -2133.7404      -1662.6554
   5484064.02349   4250988.88646  23759547.9374   23759549.5984
     -4257.9004      -3317.8444
  -3665513.72349  -2849106.50947  22939152.3174   22939152.7084
      2902.9354       2262.0274
   2552388.71149   1984278.66447  24593164.1084   24593162.6064
     -3014.3604      -2348.8524
 00  5  2 15  0 30.0000000  0  8G 2G 7G 8G 9G26G27G 4G11
   1282739.28949    994230.87148  21192087.1894   21192084.4884
     -1047.2564       -816.0444
    767045.50049    595458.79448  20468752.3214   20468749.3124
      -814.8344       -634.9364
   5099033.77749   3951244.88547  22698832.6664   22698831.8724
     -3968.1014      -3092.0264
  -2381796.85549  -1851381.72247  23457660.3174   23457659.0294
      2542.6124       1981.2564
   2501145.43849   1939399.97647  23057534.5434   23057533.7864
     -2139.5854      -1667.2094
   5547950.54749   4300770.47146  23771705.3534   23771707.4274
     -4260.3124      -3319.7244
  -3709045.49249  -2883027.28847  22930868.3564   22930868.4314
      2901.2304       2260.6994
   2597644.71949   2019543.04747  24601776.1874   24601774.3544
     -3019.7664      -2353.0644
 00  5  2 15  0 45.0000000  0  8G 2G 7G 8G 9G26G27G 4G11
   1298465.74249   1006485.24748  21195079.9284   21195077.1994
     -1049.7464       -817.9844
    779309.65249    605015.28348  20471086.3524   20471082.8874
      -820.4004       -639.2734
   5158579.16449   3997643.83947  22710163.2544   22710162.8974
     -3971.4164      -3094.6104
  -2419917.06649  -1881085.76747  23450406.1654   23450404.5234
      2539.9414       1979.1754
   2533283.51249   1964442.58747  23063650.3724   23063649.4514
     -2145.4494      -1671.7794
   5611871.77049   4350579.09346  23783868.8254   23783871.6024
     -4262.5934      -3321.5014
  -3752552.09049  -2916928.47047  22922590.0824   22922589.8334
      2899.5514       2259.3904
   2642981.50849   2054870.39647  24610403.4394   24610401.6104
     -3025.1514      -2357.2614
 00  5  2 15  1  0.0000000  0  8G 2G 7G 8G 9G26G27G 4G11
   1314231.51649   1018770.25248  21198080.0874   21198077.4294
     -1052.3494       -820.0124
    791658.10549    614637.44848  20473435.8034   20473433.0894
      -826.0554       -643.6794
   5218176.07849   4044082.95047  22721504.5594   22721503.7494
     -3974.8204      -3097.2624
  -2457994.75449  -1910756.67247  23443160.2054   23443158.7414
      2537.1094       1976.9684
   2565510.70749   1989554.66247  23069783.2644   23069781.9414
     -2151.4314      -1676.4394
   5675827.89849   4400414.91446  23796039.5784   23796041.9804
     -4264.9804      -3323.3614
  -3796032.56649  -2950809.29247  22914315.0254   22914315.5814
      2897.7884       2258.0174
   2688399.34449   2090260.87447  24619045.8884   24619044.2294
     -3030.5714      -2361.4844
 00  5  2 15  1 15.0000000  0  8G 2G 7G 8G 9G26G27G 4G11
   1330034.91849   1031084.59048  21201087.2584   21201084.6804
     -1054.9224       -822.0174
    804088.76649    624323.67848  20475801.4784   20475798.1904
      -831.5874       -647.9904
   5277822.49649   4090560.62247  22732854.5564   22732854.4594
     -3978.1844      -3099.8844
  -2496031.47349  -1940395.64947  23435921.9294   23435920.5664
      2534.3904       1974.8494
   2597824.91849   2014734.53647  23075931.9504   23075931.1114
     -2157.2564      -1680.9794
   5739816.84849   4450276.29047  23808216.4824   23808218.5394
     -4267.1534      -3325.0554
  -3839488.40649  -2984670.92747  22906045.3034   22906046.4194
      2896.2264       2256.7994
   2733896.18449   2125712.93847  24627703.0684   24627702.0514
     -3035.7964      -2365.5554
 00  5  2 15  1 30.0000000  0  8G 2G 7G 8G 9G26G27G 4G11
   1345878.41849   1043430.16548  21204102.4304   21204099.6954
     -1057.5344       -824.0534
    816603.84449    634075.68948  20478183.1684   20478180.2244
      -837.1094       -652.2934
   5337520.48849   4137078.46447  22744214.7444   22744214.1354
     -3981.5724      -3102.5244
  -2534024.48849  -1970000.58547  23428692.4714   23428690.8454
      2531.3964       1972.5174
   2630228.17249   2039983.78147  23082098.4974   23082097.4334
     -2163.1204      -1685.5484
   5803840.71949   4500164.90047  23820399.9584   23820402.5594
     -4269.4434      -3326.8394
  -3882916.90249  -3018511.25447  22897781.3744   22897781.4654
      2894.3854       2255.3654
   2779474.17649   2161228.22646  24636376.5894   24636375.4324
     -3041.1474      -2369.7254
 00  5  2 15  1 45.0000000  0  8G 2G 7G 8G 9G26G27G 4G11
   1361760.32049   1055805.66248  21207124.5334   21207122.0444
     -1060.2204       -826.1454
    829201.53949    643892.06848  20480580.4434   20480577.3194
      -842.7884       -656.7184
   5397268.17249   4183635.05647  22755584.7234   22755584.3164
     -3985.0344      -3105.2214
  -2571975.23049  -1999572.56947  23421470.9074   23421468.6314
      2528.4184       1970.1964
   2662718.55949   2065300.93047  23088281.0534   23088279.8664
     -2169.1264      -1690.2284
   5867897.50449   4550079.12847  23832589.7564   23832591.7334
     -4271.6754      -3328.5784
  -3926319.28549  -3052331.23947  22889522.4934   22889522.7234
      2892.4614       2253.8664
   2825131.31349   2196805.16547  24645065.1064   24645063.9044
     -3046.5584      -2373.9414
 00  5  2 15  2  0.0000000  0  7G 2G 7G 8G 9G26G27G 4
   1377681.83649   1068212.03548  21210153.9084   21210151.2614
     -1062.9794       -828.2954
    841882.66849    653773.47148  20482993.5674   20482990.3904
      -848.4964       -661.1664
   5457066.33249   4230230.97947  22766963.7514   22766963.1984
     -3988.4774      -3107.9044
  -2609882.36349  -2029110.59247  23414257.1794   23414255.7114
      2525.4884       1967.9134
   2695296.75849   2090686.49647  23094480.7024   23094479.5114
     -2175.0884      -1694.8744
   5931988.07049   4600019.69147  23844785.6994   23844788.0824
     -4274.0974      -3330.4654
  -3969694.08249  -3086129.71347  22881268.1544   22881269.0694
      2890.5324       2252.3634
 00  5  2 15  2 15.0000000  0  7G 2G 7G 8G 9G26G27G 4
   1393644.52349   1080650.48448  21213191.6264   21213189.3334
     -1065.3564       -830.1484
    854648.60249    663720.94748  20485422.6584   20485419.6934
      -853.6914       -665.2144
   5516916.18849   4276867.18347  22778353.2204   22778352.2924
     -3991.5044      -3110.2634
  -2647744.09449  -2058613.20147  23407052.1354   23407050.5374
      2522.7494       1965.7784
   2727963.94949   2116141.42847  23100697.4394   23100696.1194
     -2180.6014      -1699.1694
   5996113.50449   4649987.42247  23856988.4784   23856990.7314
     -4276.0644      -3331.9984
  -4013039.46149  -3119905.27647  22873020.0214   22873020.2524
      2888.9314       2251.1154
 00  5  2 15  2 30.0000000  0  7G 2G 7G 8G 9G26G27G 4
   1409646.63349   1093119.66248  21216237.0404   21216234.3734
     -1068.2714       -832.4194
    867497.36749    673732.96948  20487867.6364   20487864.5114
      -859.5214       -669.7574
   5576815.66449   4323542.04447  22789751.5464   22789750.9304
     -3995.1424      -3113.0974
  -2685561.89849  -2088081.61847  23399855.8844   23399854.1744
      2519.5514       1963.2864
   2760718.03549   2141664.06547  23106929.8214   23106929.1114
     -2186.7144      -1703.9334
   6060271.66449   4699980.68147  23869197.7474   23869200.2354
     -4278.5844      -3333.9624
  -4056356.91449  -3153659.07647  22864776.5134   22864776.6574
      2886.6944       2249.3724
 00  5  2 15  2 45.0000000  0  7G 2G 7G 8G 9G26G27G 4
   1425689.96149   1105620.93548  21219289.8284   21219287.2094
     -1070.9424       -834.5014
    880430.44949    683810.67948  20490328.8934   20490325.8264
      -865.0494       -674.0644
   5636766.10949   4370256.60947  22801159.6324   22801159.2604
     -3998.3844      -3115.6244
  -2723333.85249  -2117514.29247  23392667.7264   23392666.5034
      2516.5194       1960.9244
   2793560.39149   2167255.47647  23113179.7364   23113178.3174
     -2192.4324      -1708.3884
   6124464.01249   4750000.54247  23881412.6844   23881415.1334
     -4280.6104      -3335.5414
  -4099644.28949  -3187389.44847  22856539.3934   22856540.2094
      2884.8204       2247.9114
 00  5  2 15  3  0.0000000  0  7G 2G 7G 8G 9G26G27G 4
   1441774.89149   1118154.64348  21222350.8194   21222348.1074
     -1073.8094       -836.7344
    893448.02749    693954.26048  20492805.7214   20492803.0344
      -870.7864       -678.5354
   5696767.74649   4417011.08447  22812577.7224   22812577.4184
     -4001.8754      -3118.3444
  -2761059.41449  -2146910.80647  23385488.7614   23385486.9714
      2513.4424       1958.5274
   2826491.05149   2192915.70147  23119446.0244   23119444.9124
     -2198.3204      -1712.9774
   6188690.56649   4800047.06147  23893635.1244   23893637.8364
     -4282.9254      -3337.3444
  -4142900.93749  -3221095.86647  22848307.9764   22848308.4104
      2882.6864       2246.2484
 00  5  2 15  3 15.0000000  0  7G 2G 7G 8G 9G26G27G 4
   1457902.75849   1130721.80448  21225419.7974   21225417.4334
     -1076.6164       -838.9224
    906551.10949    704164.44948  20495299.3244   20495296.8394
      -876.4114       -682.9184
   5756821.45749   4463806.11647  22824005.3594   22824005.4714
     -4005.3084      -3121.0194
  -2798736.96149  -2176269.91447  23378318.8114   23378317.5354
      2510.1864       1955.9894
   2859510.90649   2218645.43947  23125729.5094   23125728.6664
     -2204.3164      -1717.6494
   6252952.32449   4850121.03347  23905863.7764   23905866.3834
     -4285.2694      -3339.1704
  -4186125.22349  -3254777.06547  22840082.5554   22840082.8784
      2880.5374       2244.5754
 00  5  2 15  3 30.0000000  0  7G 2G 7G 8G 9G26G27G 4
   1474072.97749   1143321.96448  21228496.9224   21228494.3014
     -1079.4534       -841.1324
    919738.99249    714440.72348  20497808.9914   20497806.2074
      -882.0564       -687.3164
   5816926.24649   4510640.96847  22835443.2074   22835443.0684
     -4008.7114      -3123.6714
  -2836366.92649  -2205591.94347  23371157.9294   23371156.9574
      2507.1444       1953.6184
   2892619.02049   2244443.94547  23132029.9224   23132029.0204
     -2210.0884      -1722.1464
   6317248.29749   4900221.63947  23918099.7224   23918101.7104
     -4287.6514      -3341.0274
  -4229317.45349  -3288433.29247  22831863.3274   22831863.3044
      2878.4034       2242.9124
 00  5  2 15  3 45.0000000  0  7G 2G 7G 8G 9G26G27G 4
   1490286.92249   1155956.19748  21231582.3534   21231579.6844
     -1082.3244       -843.3704
    933012.71549    724783.87648  20500334.8044   20500331.8774
      -887.7154       -691.7264
   5877083.35549   4557516.57447  22846890.7284   22846890.3454
     -4012.1144      -3126.3234
  -2873947.68449  -2234875.63447  23364006.8354   23364005.7684
      2503.7704       1950.9894
   2925816.32449   2270311.94647  23138346.9154   23138346.1164
     -2216.0644      -1726.8034
   6381579.45749   4950349.67947  23930340.4394   23930343.4774
     -4289.8444      -3342.7354
  -4272475.89549  -3322063.19047  22823650.1264   22823650.4214
      2876.1914       2241.1884
 00  5  2 15  4  0.0000000  0  7G 2G 7G 8G 9G26G27G 4
   1506543.67249   1168623.78848  21234675.7994   21234673.5754
     -1085.1174       -845.5464
    946371.19549    735193.08648  20502876.8354   20502874.2934
      -893.3254       -696.0984
   5937291.39549   4604431.87747  22858347.5214   22858347.2574
     -4015.5084      -3128.9674
  -2911479.97749  -2264121.56647  23356864.7234   23356862.9504
      2500.6304       1948.5434
   2959101.54349   2296248.45447  23144680.8514   23144680.2554
     -2221.8164      -1731.2864
   6445944.61349   5000504.18847  23942589.4534   23942591.5794
     -4291.9924      -3344.4094
  -4315601.22349  -3355667.28647  22815444.0204   22815444.3884
      2874.0774       2239.5414
 00  5  2 15  4 15.0000000  0  7G 2G 7G 8G 9G26G27G 4
   1522843.26249   1181324.75948  21237777.6904   21237775.3314
     -1087.8374       -847.6654
    959814.23449    745668.17748  20505435.1894   20505432.0014
      -898.7604       -700.3324
   5997550.13749   4651386.68447  22869814.5574   22869814.6924
     -4018.5894      -3131.3684
  -2948963.51649  -2293329.49447  23349732.2994   23349730.1854
      2497.5154       1946.1154
   2992474.37149   2322253.22347  23151031.5324   23151030.6064
     -2227.4904      -1735.7074
   6510343.36349   5050684.88947  23954844.3254   23954847.3124
     -4294.0774      -3346.0344
  -4358692.98849  -3389245.24047  22807243.8624   22807244.3404
      2871.9044       2237.8474
 00  5  2 15  4 30.0000000  0  7G 2G 7G 8G 9G26G27G 4
   1539183.30549   1194057.24948  21240887.2564   21240884.5724
     -1090.9134       -850.0624
    973339.12949    756207.05248  20508008.8144   20508005.5994
      -904.6244       -704.9024
   6057856.65249   4698378.71347  22881290.5364   22881289.9924
     -4022.2364      -3134.2104
  -2986400.44149  -2322501.11047  23342608.0014   23342606.5574
      2494.0674       1943.4294
   3025932.00449   2348324.08247  23157398.3434   23157397.6324
     -2233.5164      -1740.4024
   6574772.97749   5100889.65147  23967104.9944   23967107.4784
     -4296.6024      -3348.0014
  -4401753.30549  -3422798.67547  22799049.7914   22799049.9064
      2869.4294       2235.9184
 00  5  2 15  4 45.0000000  0  7G 2G 7G 8G 9G26G27G 4
   1555567.03949   1206823.79448  21244005.2254   21244002.6124
     -1093.6474       -852.1934
    986948.96949    766812.11848  20510598.8344   20510595.8794
      -910.0104       -709.0994
   6118214.00049   4745410.34947  22892775.9624   22892776.1704
     -4025.4644      -3136.7254
  -3023787.17249  -2351633.60747  23335492.9264   23335491.7644
      2490.8154       1940.8954
   3059477.31349   2374463.25947  23163782.2664   23163781.5114
     -2239.1994      -1744.8314
   6639236.39849   5151120.71947  23979372.0314   23979375.0874
     -4298.5944      -3349.5544
  -4444778.58249  -3456324.81147  22790862.3624   22790862.6364
      2867.2764       2234.2414
 00  5  2 15  5  0.0000000  0  7G 2G 7G 8G 9G26G27G 4
   1571994.94149   1219624.75448  21247130.8494   21247128.3074
     -1096.4994       -854.4154
   1000643.95349    777483.53348  20513204.6374   20513201.8434
      -915.6594       -713.5014
   6178622.45349   4792481.82147  22904271.9934   22904271.3704
     -4028.7214      -3139.2634
  -3061123.19549  -2380726.59947  23328388.4674   23328386.8604
      2487.5494       1938.3504
   3093110.26649   2400670.72647  23170182.1694   23170181.5124
     -2245.0634      -1749.4004
   6703733.58249   5201378.13646  23991645.6724   23991647.8814
     -4300.7134      -3351.2054
  -4487768.17249  -3489823.14347  22782681.7904   22782681.8884
      2864.8634       2232.3614
 00  5  2 15  5 15.0000000  0  7G 2G 7G 8G 9G26G27G 4
   1588465.49249   1232458.94548  21250265.2044   21250262.5114
     -1099.5514       -856.7934
   1014422.22349    788219.85448  20515826.5884   20515823.6674
      -921.3284       -717.9184
   6239079.96549   4839591.48747  22915776.4184   22915776.1374
     -4032.2614      -3142.0214
  -3098409.78949  -2409781.06347  23321293.1224   23321291.1014
      2484.0334       1935.6104
   3126829.03949   2426945.07047  23176598.7604   23176597.6084
     -2250.9034      -1753.9514
   6768262.70349   5251660.40946  24003924.5764   24003927.8794
     -4303.1014      -3353.0654
  -4530723.15649  -3523294.50447  22774507.9874   22774508.1754
      2862.3544       2230.4054
 00  5  2 15  5 30.0000000  0  7G 2G 7G 8G 9G26G27G 4
   1604980.40649   1245327.69348  21253407.8434   21253404.9984
     -1102.5054       -859.0954
   1028285.43049    799022.34448  20518464.7294   20518461.7314
      -926.9924       -722.3324
   6299587.92649   4886740.48847  22927291.1194   22927291.0124
     -4035.5274      -3144.5674
  -3135644.97349  -2438795.49247  23314207.6744   23314205.6374
      2480.6054       1932.9394
   3160634.99649   2453287.33547  23183032.0964   23183030.7524
     -2256.6554      -1758.4334
   6832825.09049   5301968.65746  24016210.6014   24016213.7334
     -4305.2594      -3354.7474
  -4573641.60249  -3556737.38747  22766340.1714   22766340.5494
      2860.0494       2228.6094
 00  5  2 15  5 45.0000000  0  7G 2G 7G 8G 9G26G27G 4
   1621538.63749   1258230.19548  21256558.7264   21256556.0414
     -1105.3614       -861.3214
   1042232.20749    809889.96048  20521118.8024   20521116.0114
      -932.5494       -726.6614
   6360145.02349   4933927.75847  22938814.6334   22938814.0724
     -4038.8334      -3147.1434
  -3172829.60949  -2467770.50847  23307131.2924   23307129.5874
      2477.3294       1930.3864
   3194526.64849   2479696.38247  23189481.5234   23189479.7804
     -2262.3004      -1762.8314
   6897419.41448   5352301.68046  24028501.7304   24028505.7704
     -4307.4174      -3356.4294
  -4616524.18749  -3590152.34147  22758180.2784   22758179.6694
      2857.6804       2226.7644
 00  5  2 15  6  0.0000000  0  7G 2G 7G 8G 9G26G27G 4
   1638140.80549   1271166.94348  21259718.1164   21259715.4254
     -1108.1844       -863.5204
   1056262.83249    820822.91648  20523788.5914   20523785.9124
      -938.1154       -730.9994
   6420751.37949   4981153.43947  22950347.0974   22950348.0684
     -4041.9434      -3149.5664
  -3209962.93749  -2496705.56047  23300065.1604   23300063.7074
      2473.9404       1927.7464
   3228504.17649   2506172.36347  23195947.0394   23195945.8924
     -2267.8914      -1767.1874
   6962045.82448   5402659.80146  24040800.5114   24040803.7834
     -4309.4044      -3357.9774
  -4659370.06649  -3623538.69047  22750026.7474   22750027.0864
      2855.3034       2224.9114
 00  5  2 15  6 15.0000000  0  7G 2G 7G 8G 9G26G27G 4
   1654787.82849   1284138.64348  21262885.9904   21262883.3444
     -1111.2894       -865.9404
   1070377.86749    831821.64648  20526474.3174   20526471.3754
      -943.8044       -735.4314
   6481407.64149   5028417.97647  22961890.1124   22961889.4464
     -4045.4444      -3152.2944
  -3247043.82049  -2525599.74747  23293009.2494   23293007.2714
      2470.2934       1924.9044
   3262568.03949   2532715.60347  23202428.9554   23202428.1764
     -2273.7604      -1771.7614
   7026704.81349   5453043.19946  24053105.1604   24053108.2824
     -4311.7384      -3359.7964
  -4702178.09849  -3656895.55347  22741880.8224   22741880.7384
      2852.5834       2222.7924
 00  5  2 15  6 30.0000000  0  7G 2G 7G 8G 9G26G27G 4
   1671478.73849   1297144.53948  21266062.0574   21266059.5294
     -1114.3214       -868.3024
   1084576.30149    842885.35548  20529176.4764   20529173.3184
      -949.4294       -739.8154
   6542112.56349   5075720.45547  22973441.6834   22973441.6824
     -4048.7654      -3154.8824
  -3284072.92249  -2554453.58047  23285962.5184   23285960.7344
      2466.7044       1922.1074
   3296717.00849   2559325.17447  23208927.5614   23208926.5404
     -2279.5614      -1776.2814
   7091394.99649   5503451.03146  24065415.2894   24065418.3274
     -4313.7064      -3361.3294
  -4744948.71949  -3690223.26047  22733741.4424   22733741.3644
      2849.9854       2220.7684
 00  5  2 15  6 45.0000000  0  7G 2G 7G 8G 9G26G27G 4
   1688215.21149   1310185.93748  21269246.7284   21269244.6614
     -1117.3144       -870.6354
   1098859.47349    854015.10948  20531894.5944   20531891.6554
      -955.0104       -744.1634
   6602867.38749   5123061.81147  22985003.4234   22985003.0864
     -4052.0514      -3157.4424
  -3321048.39149  -2583265.62047  23278926.9084   23278924.9114
      2463.2374       1919.4064
   3330952.29749   2586001.98247  23215442.1774   23215441.2414
     -2285.2204      -1780.6914
   7156117.78149   5553884.24646  24077731.6954   24077734.7154
     -4315.9134      -3363.0494
  -4787680.20749  -3723520.45847  22725609.9224   22725610.0274
      2847.4854       2218.8204
 00  5  2 15  7  0.0000000  0  7G 2G 7G 8G 9G26G27G 4
   1704996.42649   1323262.19048  21272440.2674   21272437.8684
     -1120.3374       -872.9904
   1113226.37549    865210.08648  20534628.4734   20534625.5204
      -960.7134       -748.6074
   6663670.96549   5170441.14947  22996573.8224   22996573.8274
     -4055.3274      -3159.9954
  -3357970.82049  -2612036.34347  23271900.0754   23271898.7464
      2459.6294       1916.5944
   3365272.74249   2612745.17347  23221972.6064   23221972.3544
     -2290.9774      -1785.1774
   7220872.00449   5604341.90246  24090054.5104   24090057.6454
     -4318.0964      -3364.7504
  -4830372.77349  -3756787.34947  22717485.9664   22717486.4374
      2844.7124       2216.6594
 00  5  2 15  7 15.0000000  0  7G 2G 7G 8G 9G26G27G 4
   1721822.44949   1336373.37848  21275642.0154   21275639.5744
     -1123.0914       -875.1364
   1127676.78949    876470.15148  20537378.4414   20537375.1834
      -966.0554       -752.7704
   6724523.04749   5217858.28747  23008153.4304   23008153.7204
     -4058.2714      -3162.2894
  -3394839.92249  -2640765.50047  23264883.9564   23264882.4894
      2456.2304       1913.9464
   3399677.94949   2639554.40247  23228520.4764   23228519.2354
     -2296.3964      -1789.4004
   7285657.31649   5654823.88546  24102382.9524   24102385.4214
     -4319.9514      -3366.1964
  -4873026.23849  -3790023.77447  22709369.0114   22709369.1894
      2842.3244       2214.7984
 00  5  2 15  7 30.0000000  0  7G 2G 7G 8G 9G26G27G 4
   1738693.78149   1349519.85148  21278852.6824   21278849.7214
     -1126.3184       -877.6514
   1142210.96949    887795.48548  20540143.9504   20540140.6924
      -971.7534       -757.2104
   6785423.87149   5265313.42547  23019742.8404   23019742.3684
     -4061.7144      -3164.9724
  -3431654.98849  -2669452.53947  23257878.8924   23257877.0014
      2452.5204       1911.0544
   3434168.01649   2666429.74347  23235083.8004   23235082.4604
     -2302.1784      -1793.9054
   7350473.82049   5705330.14146  24114716.6434   24114719.7604
     -4322.1294      -3367.8934
  -4915639.92649  -3823229.18447  22701260.3464   22701260.4814
      2839.5804       2212.6604
 00  5  2 15  7 45.0000000  0  7G 2G 7G 8G 9G26G27G 4
   1755608.74249   1362700.32948  21282071.4334   21282068.9754
     -1129.1554       -879.8614
   1156827.00449    899184.59448  20542925.5654   20542922.2314
      -977.1874       -761.4454
   6846371.23449   5312804.81747  23031340.7004   23031340.0644
     -4064.7714      -3167.3544
  -3468417.44949  -2698098.61447  23250882.8264   23250881.2154
      2449.0674       1908.3644
   3468740.79349   2693369.56247  23241663.0584   23241661.7564
     -2307.6374      -1798.1584
   7415319.50849   5755859.11246  24127057.0164   24127059.8794
     -4323.9994      -3369.3504
  -4958214.94949  -3856404.49547  22693158.0144   22693158.4524
      2836.9734       2210.6284
 00  5  2 15  8  0.0000000  0  7G 2G 7G 8G 9G26G27G 4
   1772568.15249   1375915.45348  21285298.7544   21285296.0474
     -1132.1534       -882.1974
   1171525.41849    910637.89848  20545722.3054   20545719.7044
      -982.7294       -765.7634
   6907365.71149   5360332.89847  23042947.4894   23042947.5564
     -4067.9154      -3169.8044
  -3505126.28949  -2726702.88447  23243897.3514   23243896.0424
      2445.4494       1905.5454
   3503396.84449   2720374.24447  23248257.5384   23248256.9804
     -2313.1844      -1802.4814
   7480194.79749   5806411.11147  24139402.6084   24139405.0614
     -4326.0064      -3370.9144
  -5000750.24249  -3889548.82947  22685064.1444   22685063.7644
      2834.3124       2208.5544
 00  5  2 15  8 15.0000000  0  7G 2G 7G 8G 9G26G27G 4
   1789573.33249   1389166.22748  21288534.9184   21288532.1314
     -1135.2694       -884.6254
   1186307.28549    922156.24448  20548535.1234   20548532.5024
      -988.2234       -770.0444
   6968408.32849   5407898.50847  23054562.8284   23054563.5204
     -4071.0844      -3172.2734
  -3541779.98449  -2755264.18047  23236922.4644   23236920.7614
      2441.6504       1902.5854
   3538137.00049   2747444.46447  23254868.1984   23254866.9434
     -2318.7654      -1806.8304
   7545100.59049   5856986.95947  24151753.6754   24151756.4734
     -4328.1104      -3372.5544
  -5043244.32449  -3922661.04947  22676977.5004   22676977.3504
      2831.5484       2206.4014
 00  5  2 15  8 30.0000000  0  7G 2G 7G 8G 9G26G27G 4
   1806624.75849   1402453.04848  21291779.5874   21291776.8224
     -1138.2034       -886.9124
   1201172.85949    933739.79748  20551364.2014   20551361.3204
      -993.7164       -774.3244
   7029499.16849   5455501.70647  23066188.7004   23066189.0554
     -4074.2534      -3174.7434
  -3578377.87949  -2783782.01547  23229958.6504   23229956.5714
      2438.1154       1899.8304
   3572961.44149   2774580.38347  23261495.4934   23261494.8134
     -2324.3704      -1811.1974
   7610037.09449   5907586.66847  24164110.9384   24164113.5514
     -4329.9804      -3374.0114
  -5085696.20749  -3955740.37847  22668899.0274   22668899.4244
      2828.7654       2204.2324
 00  5  2 15  8 45.0000000  0  7G 2G 7G 8G 9G26G27G 4
   1823721.74249   1415775.36548  21295032.8914   21295030.6014
     -1141.3384       -889.3544
   1216121.30149    945387.93448  20554208.8464   20554205.7824
      -999.2874       -778.6654
   7090637.18049   5503141.62947  23077823.4974   23077823.1854
     -4077.4814      -3177.2584
  -3614920.49249  -2812256.77147  23223003.8204   23223002.4664
      2434.3654       1896.9084
   3607868.90249   2801780.95747  23268137.8864   23268136.9594
     -2329.9224      -1815.5244
   7675003.21549   5958209.48747  24176473.6414   24176476.9204
     -4332.0414      -3375.6164
  -5128106.32849  -3988787.18747  22660828.5534   22660828.9034
      2825.9084       2202.0064
 00  5  2 15  9  0.0000000  0  7G 2G 7G 8G 9G26G27G 4
   1840863.80549   1429132.80648  21298294.9634   21298292.7904
     -1144.3214       -891.6794
   1231151.80949    957100.01348  20557068.5614   20557065.7014
     -1004.7714       -782.9384
   7151821.60949   5550817.75047  23089466.1224   23089466.6204
     -4080.5274      -3179.6324
  -3651407.94549  -2840688.55247  23216061.1074   23216058.8794
      2430.5964       1893.9714
   3642858.68849   2829045.69447  23274796.1184   23274795.1444
     -2335.3714      -1819.7704
   7739998.12149   6008854.74147  24188842.4564   24188845.1314
     -4333.9164      -3377.0774
  -5170474.90649  -4021801.61847  22652766.6354   22652766.2844
      2823.1014       2199.8194
 00  5  2 15  9 15.0000000  0  7G 2G 7G 8G 9G26G27G 4
   1858051.45749   1442525.77348  21301565.4524   21301563.0014
     -1147.5154       -894.1674
   1246264.57049    968876.20248  20559944.8014   20559942.0884
     -1010.4544       -787.3674
   7213052.58249   5598530.13247  23101118.4954   23101118.0094
     -4083.7604      -3182.1504
  -3687839.66449  -2869076.89947  23209128.4454   23209126.7414
      2426.7824       1890.9994
   3677930.86749   2856374.64947  23281470.4234   23281469.6324
     -2341.0554      -1824.1984
   7805021.93849   6059522.48747  24201215.9074   24201219.1764
     -4336.0164      -3378.7134
  -5212801.12149  -4054783.03747  22644711.9754   22644712.1494
      2820.1274       2197.5024
 00  5  2 15  9 30.0000000  0  7G 2G 7G 8G 9G26G27G 4
   1875285.42249   1455954.81448  21304845.1884   21304843.0164
     -1150.2544       -896.3024
   1261459.90249    980716.70748  20562836.1524   20562833.5304
     -1015.5474       -791.3354
   7274330.37149   5646278.98647  23112778.8344   23112778.5894
     -4086.6654      -3184.4144
  -3724214.63749  -2897421.00947  23202206.2834   23202204.2854
      2423.2674       1888.2604
   3713085.60949   2883767.92947  23288160.0964   23288159.0884
     -2346.2844      -1828.2734
   7870074.88749   6110212.92347  24213595.1044   24213597.8444
     -4337.6954      -3380.0224
  -5255083.92649  -4087730.62947  22636666.0544   22636665.6024
      2817.5054       2195.4594
 00  5  2 15  9 45.0000000  0  7G 2G 7G 8G 9G26G27G 4
   1892564.73049   1469419.20148  21308133.5164   21308130.9104
     -1153.4914       -898.8244
   1276736.82449    992620.80248  20565743.3744   20565740.6014
     -1021.1724       -795.7184
   7335653.60949   5694063.24847  23124448.6264   23124448.8914
     -4089.8144      -3186.8684
  -3760533.59849  -2925721.48847  23195295.5814   23195293.3784
      2419.3854       1885.2354
   3748321.49649   2911224.44947  23294865.1984   23294864.4414
     -2351.7774      -1832.5544
   7935155.58649   6160924.93947  24225979.4194   24225982.5924
     -4339.3514      -3381.3124
  -5297324.22749  -4120645.11347  22628627.7824   22628627.8814
      2814.6634       2193.2444
 00  5  2 15 10  0.0000000  0  7G 2G 7G 8G 9G26G27G 4
   1909888.45349   1482918.19348  21311429.9054   21311427.3634
     -1156.3624       -901.0624
   1292093.99649   1004587.41548  20568666.0614   20568663.0214
     -1026.4554       -799.8354
   7397021.07849   5741881.98947  23136126.7744   23136126.3234
     -4092.6514      -3189.0794
  -3796797.21949  -2953978.85447  23188394.2624   23188392.5874
      2415.6744       1882.3434
   3783637.24649   2938743.17947  23301585.7264   23301584.9854
     -2357.0214      -1836.6404
   8000262.91449   6211657.84047  24238369.2964   24238372.5234
     -4341.3044      -3382.8344
  -5339522.46949  -4153526.80847  22620597.5984   22620597.3894
      2811.8604       2191.0604
 00  5  2 15 10 15.0000000  0  7G 2G 7G 8G 9G26G27G 4
   1927257.32449   1496452.36848  21314735.2314   21314732.9144
     -1159.4734       -903.4854
   1307531.96149   1016616.99448  20571603.8634   20571600.8864
     -1031.9584       -804.1234
   7458433.18449   5789735.49247  23147812.7934   23147813.0894
     -4095.7034      -3191.4574
  -3833004.60949  -2982192.38147  23181504.5994   23181502.0554
      2411.9194       1879.4174
   3819033.28949   2966324.46947  23308321.1144   23308320.2824
     -2362.4664      -1840.8824
   8065397.14149   6262411.63147  24250763.6994   24250767.2104
     -4343.1744      -3384.2914
  -5381677.64149  -4186374.95147  22612575.3664   22612575.4114
      2808.8434       2188.7094
 00  5  2 15 10 30.0000000  0  7G 2G 7G 8G 9G26G27G 4
   1944672.17249   1510022.37948  21318048.9154   21318046.4604
     -1162.3934       -905.7604
   1323051.17649   1028709.89048  20574556.7904   20574553.5364
     -1037.1634       -808.1794
   7519890.37149   5837624.15947  23159507.7954   23159508.1284
     -4098.5894      -3193.7064
  -3869154.76649  -3010361.32747  23174625.0354   23174623.3604
      2408.1844       1876.5074
   3854509.85549   2993968.52647  23315071.9604   23315071.1384
     -2367.6274      -1844.9044
   8130558.67249   6313186.66947  24263163.5704   24263167.5744
     -4344.9854      -3385.7034
  -5423788.59849  -4219188.62947  22604562.1264   22604562.1734
      2805.8844       2186.4034
 00  5  2 15 10 45.0000000  0  7G 2G 7G 8G 9G26G27G 4
   1962132.28549   1523627.64848  21321371.3154   21321369.4284
     -1165.5624       -908.2304
   1338650.80549   1040865.44748  20577525.4444   20577522.7094
     -1042.6464       -812.4524
   7581391.55549   5885547.09147  23171211.0934   23171211.0784
     -4101.5924      -3196.0464
  -3905248.15649  -3038486.02147  23167757.1414   23167755.0044
      2404.3024       1873.4824
   3890065.92249   3021674.52847  23321838.5034   23321837.9924
     -2373.1694      -1849.2234
   8195746.46949   6363982.19846  24275568.3354   24275572.5054
     -4346.7434      -3387.0734
  -5465855.75449  -4251968.21747  22596556.9304   22596557.0674
      2802.9734       2184.1354
 00  5  2 15 11  0.0000000  0  7G 2G 7G 8G 9G26G27G 4
   1979635.95349   1537266.85748  21324702.1234   21324699.9044
     -1168.4774       -910.5014
   1354328.91049   1053082.14948  20580508.4514   20580505.7324
     -1047.9834       -816.6104
   7642934.79749   5933502.80447  23182922.5374   23182922.3634
     -4104.3854      -3198.2224
  -3941286.21949  -3066567.61747  23160898.7054   23160897.4694
      2400.5624       1870.5674
   3925699.41449   3049440.85547  23328618.9424   23328618.3014
     -2378.2714      -1853.1994
   8260958.43449   6414796.52646  24287979.1724   24287982.2734
     -4348.2864      -3388.2754
  -5507880.48849  -4284714.70847  22588560.3134   22588559.3574
      2800.1324       2181.9214
 00  5  2 15 11 15.0000000  0  7G 2G 7G 8G 9G26G27G 4
   1997185.98449   1550942.19148  21328042.3014   21328039.8324
     -1171.5624       -912.9064
   1370087.94949   1065361.91448  20583507.5194   20583504.7044
     -1053.3644       -820.8034
   7704522.49649   5981493.14747  23194642.4184   23194642.1974
     -4107.4224      -3200.5884
  -3977266.02349  -3094603.82647  23154052.0534   23154050.7974
      2396.6704       1867.5354
   3961412.64149   3077269.31747  23335415.2374   23335414.1084
     -2383.6184      -1857.3654
   8326197.07449   6465631.63746  24300391.9994   24300396.5014
     -4350.1664      -3389.7404
  -5549859.66449  -4317425.73147  22580571.6644   22580571.2464
      2797.0804       2179.5434
 00  5  2 15 11 30.0000000  0  7G 2G 7G 8G 9G26G27G 4
   2014780.79749   1564652.43148  21331390.4124   21331387.7684
     -1174.3954       -915.1134
   1385926.16849   1077703.37948  20586521.3684   20586518.6434
     -1058.4234       -824.7454
   7766152.82049   6029516.69547  23206369.8424   23206370.3084
     -4109.9374      -3202.5484
  -4013188.91449  -3122595.66447  23147216.4334   23147214.7914
      2393.1104       1864.7614
   3997203.76249   3105158.47147  23342226.0944   23342225.4814
     -2388.5164      -1861.1814
   8391460.34048   6516485.99246  24312811.2044   24312815.8154
     -4351.5384      -3390.8094
  -5591794.63349  -4350102.28547  22572591.3074   22572591.1974
      2794.2144       2177.3094
 00  5  2 15 11 45.0000000  0  7G 2G 7G 8G 9G26G27G 4
   2032418.79749   1578396.31148  21334746.9034   21334744.2034
     -1177.4564       -917.4984
   1401841.69949   1090105.09748  20589550.2454   20589547.4404
     -1063.6724       -828.8354
   7827823.68849   6077571.86347  23218105.9484   23218105.7864
     -4112.8174      -3204.7934
  -4049056.23449  -3150544.21847  23140391.1184   23140388.9974
      2389.1854       1861.7024
   4033070.69549   3133106.70047  23349051.3504   23349050.7304
     -2393.7114      -1865.2294
   8456746.34048   6567357.97446  24325235.0884   24325238.8444
     -4353.2134      -3392.1144
  -5633686.57449  -4382745.30947  22564619.8144   22564619.7844
      2791.2504       2175.0004
 00  5  2 15 12  0.0000000  0  7G 2G 7G 8G 9G26G27G 4
   2050105.34849   1592178.03448  21338112.6424   21338110.2024
     -1180.4934       -919.8654
   1417839.66449   1102571.03648  20592594.2664   20592591.4174
     -1069.0624       -833.0364
   7889540.20749   6125662.59547  23229849.8484   23229849.9974
     -4115.7084      -3207.0454
  -4084862.36749  -3178445.08647  23133576.9924   23133575.8324
      2385.3084       1858.6814
   4069018.42249   3161117.89047  23355891.9774   23355891.3804
     -2399.0044      -1869.3544
   8522060.05548   6618251.63446  24337664.2354   24337668.4444
     -4354.8444      -3393.3854
  -5675529.91449  -4415350.47247  22556656.7924   22556657.2124
      2788.1494       2172.5844
 00  5  2 15 12 15.0000000  0  7G 2G 7G 8G 9G26G27G 4
   2067836.02049   1605994.13348  21341486.6694   21341484.1514
     -1183.5504       -922.2474
   1433915.34049   1115097.53148  20595653.6244   20595650.9264
     -1074.3754       -837.1754
   7951297.51249   6173785.09247  23241601.7814   23241602.6204
     -4118.6284      -3209.3204
  -4120611.53949  -3206301.57047  23126774.6404   23126772.7324
      2381.3134       1855.5694
   4105041.98049   3189188.16447  23362747.2054   23362745.9174
     -2404.2044      -1873.4064
   8587396.60548   6669163.05146  24350097.5894   24350101.8784
     -4356.3574      -3394.5644
  -5717328.70749  -4447920.93247  22548702.9734   22548702.6814
      2784.9664       2170.1034
 00  5  2 15 12 30.0000000  0  7G 2G 7G 8G 9G26G27G 4
   2085608.70749   1619842.96648  21344868.3494   21344865.8004
     -1186.4164       -924.4804
   1450066.34849   1127682.72348  20598726.9294   20598724.1374
     -1079.3854       -841.0794
   8013093.16049   6221937.47247  23253361.5774   23253362.0944
     -4121.2354      -3211.3524
  -4156305.67249  -3234115.16547  23119982.2704   23119980.1214
      2377.6224       1852.6934
   4141138.89849   3217315.61147  23369616.0244   23369615.4334
     -2409.0874      -1877.2114
   8652753.48848   6720090.17246  24362535.1124   24362538.3084
     -4357.8274      -3395.7094
  -5759084.82449  -4480458.12047  22540757.4524   22540757.1674
      2782.1784       2167.9314
 00  5  2 15 12 45.0000000  0  7G 2G 7G 8G 9G26G27G 4
   2103428.12149   1633728.21048  21348259.3214   21348256.9644
     -1189.3704       -926.7824
   1466297.08649   1140330.05548  20601815.5154   20601812.7124
     -1084.5854       -845.1314
   8074931.43849   6270123.08347  23265128.1724   23265129.6024
     -4123.8824      -3213.4144
  -4191939.88349  -3261882.07847  23113200.9904   23113198.7104
      2373.7164       1849.6494
   4177313.44149   3245503.53147  23376499.5994   23376499.3084
     -2414.0824      -1881.1034
   8718135.00849   6771036.71346  24374976.5924   24374980.7794
     -4359.5514      -3397.0534
  -5800793.16049  -4512958.07947  22532819.7244   22532820.1034
      2778.9604       2165.4234
 00  5  2 15 13  0.0000000  0  6G 2G 7G 8G 9G26G 4
   2121290.05149   1647646.59248  21351658.3814   21351656.0414
     -1192.1584       -928.9544
   1482603.15649   1153036.07548  20604918.4954   20604915.4824
     -1089.5514       -849.0014
   8136807.98849   6318338.49947  23276903.0994   23276904.0034
     -4126.3094      -3215.3054
  -4227518.13349  -3289605.35947  23106430.6464   23106429.1084
      2370.1074       1846.8374
   4213561.13749   3273748.45547  23383397.9644   23383397.0444
     -2418.9314      -1884.8814
  -5842457.84449  -4545424.03447  22524891.6784   22524891.6604
      2776.1964       2163.2704
 00  5  2 15 13 15.0000000  0  6G 2G 7G 8G 9G26G 4
   2139195.64849   1661599.00348  21355065.9944   21355063.6184
     -1195.1714       -931.3024
   1498985.38349   1165801.44348  20608036.1394   20608033.1614
     -1094.7514       -853.0534
   8198723.32449   6366584.14247  23288686.1184   23288686.9024
     -4129.1314      -3217.5054
  -4263039.03149  -3317283.97847  23099671.4574   23099669.3234
      2366.0744       1843.6944
   4249882.42649   3302050.73047  23390309.2624   23390308.4544
     -2423.9554      -1888.7964
  -5884077.21149  -4577854.67247  22516971.6854   22516971.3794
      2773.0324       2160.8044
 00  5  2 15 13 30.0000000  0  6G 2G 7G 8G 9G26G 4
   2157148.14149   1675587.93948  21358482.1334   21358479.5644
     -1198.4184       -933.8324
   1515446.79749   1178628.51348  20611168.4624   20611165.7694
     -1100.0984       -857.2194
   8260680.38349   6414862.30347  23300475.5824   23300476.2724
     -4131.8854      -3219.6504
  -4298499.17649  -3344915.25647  23092923.4304   23092921.3254
      2361.9294       1840.4644
   4286280.32449   3330412.70847  23397235.7904   23397235.1854
     -2429.1504      -1892.8444
  -5925647.87549  -4610247.36047  22509061.0804   22509061.1214
      2769.6974       2158.2064
 00  5  2 15 13 45.0000000  0  6G 2G 7G 8G 9G26G 4
   2175145.66849   1689611.97548  21361906.9834   21361904.4324
     -1201.2554       -936.0434
   1531985.21549   1191515.58848  20614315.6204   20614312.3994
     -1105.1124       -861.1264
   8322677.11349   6463171.36847  23312273.6924   23312274.0854
     -4134.5214      -3221.7054
  -4333900.20749  -3372500.45847  23086186.6864   23086184.6794
      2358.1454       1837.5154
   4322752.53149   3358832.59247  23404176.4484   23404175.3344
     -2433.9014      -1896.5474
  -5967171.36349  -4642603.29147  22501159.2364   22501158.9824
      2766.6804       2155.8544
 00  5  2 15 14  0.0000000  0  6G 2G 7G 8G 9G26G 4
   2193187.44549   1703670.48748  21365339.9574   21365337.7414
     -1204.2294       -938.3604
   1548599.54349   1204461.80448  20617477.6274   20617474.4274
     -1110.1954       -865.0874
   8384712.33649   6511510.42147  23324078.4564   23324079.0704
     -4137.0954      -3223.7104
  -4369242.69549  -3400040.05547  23079461.5864   23079459.7384
      2354.1064       1834.3694
   4359297.73449   3387309.32947  23411130.3294   23411129.8304
     -2438.8484      -1900.4014
  -6008648.18049  -4674922.85947  22493267.0454   22493266.1864
      2763.4384       2153.3284
 00  5  2 15 14 15.0000000  0  6G 2G 7G 8G 9G26G 4
   2211274.96549   1717764.64448  21368782.3414   21368779.7654
     -1207.4274       -940.8524
   1565291.08249   1217468.19548  20620653.7074   20620651.0434
     -1115.3324       -869.0904
   8446787.01249   6559880.23447  23335891.1944   23335891.5954
     -4139.6444      -3225.6964
  -4404524.88349  -3427532.67247  23072747.5064   23072744.9724
      2350.1374       1831.2754
   4395917.17249   3415843.93547  23418098.7204   23418098.1434
     -2443.8134      -1904.2704
  -6050076.43449  -4707204.57447  22485383.2354   22485382.5874
      2760.2544       2150.8474
 00  5  2 15 14 30.0000000  0  6G 2G 7G 8G 9G26G 4
   2229407.80549   1731894.12048  21372232.7614   21372230.2604
     -1210.3764       -943.1504
   1582059.26249   1230534.30548  20623844.4904   20623841.5094
     -1120.3964       -873.0354
   8508900.51649   6608280.28547  23347711.1554   23347711.6894
     -4142.1394      -3227.6414
  -4439746.87149  -3454978.35647  23066044.8344   23066042.8914
      2346.1774       1828.1904
   4432609.91849   3444435.65347  23425081.2354   23425080.9254
     -2448.5404      -1907.9534
  -6091456.18449  -4739448.49647  22477508.5394   22477508.5774
      2757.0704       2148.3664
 00  5  2 15 14 45.0000000  0  6G 2G 7G 8G 9G26G 4
   2247586.47349   1746059.30248  21375691.9374   21375689.6474
     -1213.5254       -945.6044
   1598904.14849   1243660.18048  20627049.9904   20627047.1734
     -1125.5914       -877.0844
   8571053.08249   6656710.76847  23359537.6124   23359538.7974
     -4144.8444      -3229.7484
  -4474908.19149  -3482376.79947  23059353.7574   23059352.0004
      2342.0364       1824.9634
   4469376.09049   3473084.58347  23432077.6904   23432076.9294
     -2453.6384      -1911.9254
  -6132786.70749  -4771654.05547  22469643.4984   22469643.5144
      2753.5844       2145.6504
 00  5  2 15 15  0.0000000  0  6G 2G 7G 8G 9G26G 4
   2265811.33649   1760260.48948  21379160.2344   21379157.9444
     -1216.5724       -947.9784
   1615826.00849   1256846.04748  20630269.9594   20630267.1394
     -1130.7474       -881.1024
   8633244.55949   6705171.58347  23371373.2074   23371373.3624
     -4147.4414      -3231.7734
  -4510008.08249  -3509727.34647  23052674.4294   23052673.0564
      2337.9054       1821.7444
   4506215.63349   3501790.69147  23439087.8824   23439087.9594
     -2458.5114      -1915.7234
  -6174067.39549  -4803820.80047  22461788.3534   22461788.5764
      2750.3614       2143.1394
 00  5  2 15 15 15.0000000  0  6G 2G 7G 8G 9G26G 4
   2284081.15649   1774496.69848  21382636.7114   21382634.1404
     -1219.5074       -950.2654
   1632823.14849   1270090.56548  20633504.3854   20633501.5714
     -1135.7374       -884.9904
   8695473.38749   6753661.49247  23383214.5704   23383215.1024
     -4149.8394      -3233.6414
  -4545047.67249  -3537030.90947  23046006.7094   23046004.8664
      2333.9264       1818.6434
   4543126.78149   3530552.59547  23446112.2014   23446111.4164
     -2463.1494      -1919.3374
  -6215299.19549  -4835949.43447  22453942.3034   22453942.1614
      2747.0804       2140.5824
 00  5  2 15 15 30.0000000  0  6G 2G 7G 8G 9G26G 4
   2302396.09449   1788768.06948  21386121.9754   21386119.3364
     -1222.4224       -952.5374
   1649895.59049   1283393.76848  20636753.2394   20636750.2164
     -1140.5624       -888.7494
   8757739.44149   6802180.42747  23395063.9214   23395064.2244
     -4152.2854      -3235.5474
  -4580026.53549  -3564287.15847  23039350.8864   23039349.1034
      2329.9854       1815.5734
   4580109.33649   3559370.14047  23453149.7734   23453149.0424
     -2467.8914      -1923.0324
  -6256481.61749  -4868039.58947  22446105.3884   22446105.2934
      2743.8534       2138.0674
 00  5  2 15 15 45.0000000  0  6G 2G 7G 8G 9G26G 4
   2320757.02349   1803075.27248  21389615.8014   21389613.7524
     -1225.4884       -954.9264
   1667044.02749   1296756.17748  20640016.3834   20640013.9184
     -1145.6844       -892.7404
   8820043.35549   6850728.85247  23406919.3144   23406920.4624
     -4154.7614      -3237.4764
  -4614943.53549  -3591495.21247  23032706.4634   23032704.0564
      2325.8544       1812.3544
   4617163.82449   3588243.73847  23460200.9544   23460200.2544
     -2472.6864      -1926.7684
  -6297613.28549  -4900090.20347  22438277.9564   22438278.2034
      2740.4834       2135.4424
 00  5  2 15 16  0.0000000  0  6G 2G 7G 8G 9G26G 4
   2339163.41049   1817417.89648  21393118.4774   21393115.9074
     -1228.6234       -957.3694
   1684267.47349   1310177.03148  20643294.1804   20643291.2334
     -1150.7864       -896.7164
   8882383.89549   6899305.80747  23418782.9794   23418783.0604
     -4157.3104      -3239.4624
  -4649799.00049  -3618655.30447  23026073.2714   23026071.7844
      2321.5774       1809.0214
   4654289.19149   3617172.56247  23467265.5844   23467265.0014
     -2477.4714      -1930.4974
  -6338694.78949  -4932101.73747  22430460.4734   22430460.4864
      2736.9974       2132.7254
 00  5  2 15 16 15.0000000  0  6G 2G 7G 8G 9G26G 4
   2357614.86749   1831795.65248  21396629.5454   21396627.4794
     -1231.6164       -959.7014
   1701565.38749   1323655.92548  20646585.6774   20646582.9574
     -1155.6934       -900.5404
   8944760.51249   6947910.89047  23430652.7954   23430653.5114
     -4159.6734      -3241.3044
  -4684593.16449  -3645767.64247  23019452.1314   23019450.2124
      2317.5934       1805.9164
   4691484.67249   3646156.02247  23474343.4294   23474343.1964
     -2481.9784      -1934.0084
  -6379725.98449  -4964074.05547  22422652.6694   22422652.2554
      2733.7654       2130.2064
 00  5  2 15 16 30.0000000  0  6G 2G 7G 8G 9G26G 4
   2376111.60249   1846208.67848  21400149.3374   21400147.1364
     -1234.8294       -962.2044
   1718937.62549   1337192.73848  20649891.7104   20649888.8964
     -1160.7764       -904.5014
   9007173.07849   6996543.98347  23442529.0624   23442529.7484
     -4162.2364      -3243.3014
  -4719325.55949  -3672831.82247  23012843.2194   23012841.0504
      2313.1544       1802.4584
   4728750.00449   3675193.91847  23481435.1464   23481434.2524
     -2486.9684      -1937.8974
  -6420706.39149  -4996006.80447  22414854.2174   22414853.6474
      2730.1904       2127.4214
 00  5  2 15 16 45.0000000  0  6G 2G 7G 8G 9G26G 4
   2394653.30549   1860656.74748  21403677.8604   21403675.6934
     -1237.5784       -964.3474
   1736383.66849   1350787.04948  20653211.3794   20653208.4134
     -1165.5034       -908.1844
   9069620.79349   7045204.46147  23454413.0644   23454413.5444
     -4164.2824      -3244.8954
  -4753996.27349  -3699847.96247  23006245.2804   23006243.2994
      2309.3464       1799.4904
   4766084.48049   3704285.68447  23488539.6564   23488539.3264
     -2491.3094      -1941.2794
  -6461636.10949  -5027900.05047  22407065.3524   22407065.3314
      2726.9974       2124.9334
 00  5  2 15 17  0.0000000  0  6G 2G 7G 8G 9G26G 4
   2413242.25449   1875141.61748  21407214.9654   21407212.5444
     -1240.9234       -966.9534
   1753905.52349   1364440.43048  20656545.7284   20656542.6544
     -1170.6254       -912.1754
   9132105.64549   7093893.87347  23466303.6474   23466304.4964
     -4166.9044      -3246.9384
  -4788602.89849  -3726814.16447  22999659.7684   22999657.8614
      2304.9224       1796.0434
   4803489.86749   3733432.69947  23495657.4534   23495656.4384
     -2496.0994      -1945.0124
  -6502512.46949  -5059751.72947  22399286.9034   22399286.5684
      2723.2714       2122.0304
 00  5  2 15 17 15.0000000  0  6G 2G 7G 8G 9G26G 4
   2431877.43449   1889662.53648  21410761.5124   21410758.9334
     -1244.2044       -969.5104
   1771501.84849   1378151.85448  20659894.1924   20659891.1664
     -1175.8254       -916.2274
   9194626.28949   7142611.17347  23478201.0614   23478201.4504
     -4169.5654      -3249.0124
  -4823146.16849  -3753730.98147  22993086.9304   22993084.9294
      2300.4884       1792.5884
   4840964.77049   3762633.88547  23502788.9314   23502787.9574
     -2500.9774      -1948.8134
  -6543336.25849  -5091562.42847  22391518.4144   22391518.2244
      2719.4924       2119.0854
 00  5  2 15 17 30.0000000  0  6G 2G 7G 8G 9G26G 4
   2450558.69949   1904219.35948  21414316.3694   21414313.9254
     -1247.0124       -971.6974
   1789172.35549   1391921.06948  20663257.0984   20663254.0864
     -1180.5574       -919.9144
   9257182.32049   7191356.03647  23490105.5644   23490105.6144
     -4171.6754      -3250.6564
  -4857625.98049  -3780598.35847  22986524.9654   22986523.3944
      2296.4704       1789.4574
   4878508.73049   3791888.89847  23509933.6104   23509932.4754
     -2505.2594      -1952.1504
  -6584107.23449  -5123331.98347  22383759.7994   22383759.5634
      2716.2604       2116.5664
 00  5  2 15 17 45.0000000  0  6G 2G 7G 8G 9G26G 4
   2469285.47749   1918811.64748  21417879.7624   21417877.5414
     -1250.0204       -974.0414
   1806916.10949   1405747.36748  20666633.3064   20666630.3804
     -1185.3524       -923.6514
   9319772.60249   7240127.63547  23502015.9754   23502016.6034
     -4173.9654      -3252.4404
  -4892042.71949  -3807416.58947  22979975.7024   22979973.9204
      2292.2614       1786.1774
   4916120.62149   3821196.82547  23517090.5934   23517089.5874
     -2509.7954      -1955.6844
  -6624825.77349  -5155060.67047  22376011.1954   22376011.3384
      2712.8034       2113.8724
 00  5  2 15 18  0.0000000  0  6G 2G 7G 8G 9G26G 4
   2488058.48449   1933439.94848  21421452.2784   21421449.7044
     -1253.0964       -976.4384
   1824733.59449   1419631.11348  20670023.9704   20670020.7844
     -1190.2294       -927.4524
   9382397.54749   7288926.21647  23513932.5444   23513932.9714
     -4176.0694      -3254.0804
  -4926395.48449  -3834184.96847  22973438.5784   22973437.0244
      2288.1014       1782.9364
   4953800.70349   3850557.89247  23524260.9064   23524260.2494
     -2514.2294      -1959.1394
  -6665490.77349  -5186747.66347  22368273.0344   22368272.8854
      2709.2774       2111.1254
 00  5  2 15 18 15.0000000  0  6G 2G 7G 8G 9G26G 4
   2506877.27749   1948103.92948  21425033.3334   21425031.1624
     -1256.2064       -978.8624
   1842624.05949   1433571.73248  20673428.4774   20673425.6824
     -1195.2444       -931.3594
   9445056.46549   7337751.25647  23525856.2044   23525857.0714
     -4178.4774      -3255.9564
  -4960684.47349  -3860903.65747  22966913.7784   22966912.1614
      2283.7214       1779.5234
   4991548.17249   3879971.46647  23531444.0124   23531443.0484
     -2518.7504      -1962.6624
  -6706102.42649  -5218393.06447  22360544.9624   22360545.0444
      2705.5424       2108.2154
 00  5  2 15 18 30.0000000  0  6G 2G 7G 8G 9G26G 4
   2525743.34849   1962804.75148  21428623.7294   21428621.0694
     -1259.3804       -981.3354
   1860588.78149   1447570.21548  20676846.8644   20676844.1794
     -1200.1514       -935.1834
   9507750.36749   7386603.56947  23537786.7614   23537787.5494
     -4180.7284      -3257.7104
  -4994908.02349  -3887571.35747  22960401.2824   22960399.2344
      2279.3554       1776.1214
   5029364.16049   3909438.44347  23538639.7844   23538639.4544
     -2523.3944      -1966.2814
  -6746658.89549  -5249995.47647  22352827.0594   22352826.7524
      2701.9094       2105.3844
 00  5  2 15 18 45.0000000  0  6G 2G 7G 8G 9G26G 4
   2544656.58249   1977542.32748  21432222.5894   21432219.9844
     -1262.2904       -983.6034
   1878627.32849   1461626.21448  20680279.5594   20680276.3804
     -1204.8344       -938.8324
   9570478.77749   7435482.76147  23549723.5664   23549724.4924
     -4182.9004      -3259.4034
  -5029066.02749  -3914187.98447  22953901.1034   22953899.2314
      2275.1714       1772.8604
   5067247.98849   3938958.27047  23545849.0894   23545848.7594
     -2527.7104      -1969.6444
  -6787160.12149  -5281554.83647  22345119.8434   22345119.6824
      2698.3304       2102.5954
 00  5  2 15 19  0.0000000  0  6G 2G 7G 8G 9G26G 4
   2563614.42649   1992314.65348  21435830.0954   21435828.0694
     -1265.1814       -985.8554
   1896736.88349   1475737.55248  20683725.8854   20683722.6924
     -1209.6094       -942.5534
   9633238.82849   7484386.61747  23561666.7674   23561667.0514
     -4184.9274      -3260.9824
  -5063160.70349  -3940755.24647  22947412.8754   22947411.5174
      2270.9724       1769.5884
   5105196.68449   3968528.65447  23553070.5204   23553069.8954
     -2531.9044      -1972.9124
  -6827608.22749  -5313072.78847  22337422.6174   22337422.9004
      2694.9514       2099.9624
 00  5  2 15 19 15.0000000  0  6G 2G 7G 8G 9G26G 4
   2582616.87949   2007121.75748  21439446.2584   21439444.0964
     -1268.3454       -988.3214
   1914917.20349   1489904.04148  20687185.2224   20687182.4154
     -1214.4584       -946.3314
   9696030.30149   7533314.95947  23573615.5534   23573616.3864
     -4187.1194      -3262.6904
  -5097191.82849  -3967273.00147  22940937.3134   22940935.6564
      2266.4704       1766.0804
   5143209.94549   3998149.33147  23560304.1914   23560303.5074
     -2536.3824      -1976.4014
  -6868002.89149  -5344549.10347  22329736.3854   22329736.0144
      2691.1774       2097.0214
 00  5  2 15 19 30.0000000  0  6G 2G 7G 8G 9G26G 4
   2601666.78949   2021965.83948  21443071.4004   21443069.0734
     -1271.5384       -990.8094
   1933170.85249   1504127.65148  20690658.6324   20690655.8984
     -1219.3124       -950.1134
   9758855.56649   7582269.60647  23585571.0974   23585571.9634
     -4189.3954      -3264.4634
  -5131156.48449  -3993738.96047  22934474.0904   22934471.9974
      2262.1344       1762.7024
   5181290.07049   4027822.14147  23567550.7744   23567550.1994
     -2540.8304      -1979.8684
  -6908340.98049  -5375981.34247  22322060.2314   22322059.8314
      2687.3634       2094.0494
 00  5  2 15 19 45.0000000  0  6G 2G 7G 8G 9G26G 4
   2620761.61749   2036844.90348  21446705.0294   21446702.6874
     -1274.2824       -992.9474
   1951495.09049   1518406.27248  20694145.5554   20694142.9734
     -1223.7994       -953.6094
   9821711.64149   7631248.28547  23597531.5054   23597532.3214
     -4191.3284      -3265.9704
  -5165056.97749  -4020154.92947  22928023.0564   22928021.5494
      2258.0914       1759.5514
   5219434.18049   4057544.77447  23574809.4324   23574809.2484
     -2544.8494      -1982.9994
  -6948624.79349  -5407371.28847  22314394.6694   22314393.9884
      2683.9114       2091.3594
 00  5  2 15 20  0.0000000  0  6G 2G 7G 8G 9G26G 4
   2639900.84049   2051758.56948  21450347.1134   21450345.0184
     -1277.6074       -995.5384
   1969889.10249   1532739.25748  20697646.0644   20697643.0894
     -1228.8234       -957.5254
   9884597.67249   7680250.30847  23609498.5814   23609499.3774
     -4193.5794      -3267.7244
  -5198893.53549  -4046521.07047  22921584.0834   22921582.8014
      2253.4424       1755.9294
   5257641.21549   4087316.46347  23582079.7724   23582079.8234
     -2549.4924      -1986.6174
  -6988854.57449  -5438719.12147  22306738.3104   22306738.5534
      2679.9614       2088.2814
 00  5  2 15 20 15.0000000  0  6G 2G 7G 8G 9G26G 4
   2659087.33249   2066709.07148  21453998.1654   21453995.4564
     -1280.6304       -997.8934
   1988355.32449   1547128.51848  20701160.1414   20701157.2694
     -1233.4624       -961.1394
   9947516.28149   7729277.70847  23621471.2224   23621473.0624
     -4195.5574      -3269.2654
  -5232663.11349  -4072835.02647  22915157.8964   22915155.9984
      2249.0584       1752.5124
   5295913.68449   4117139.13147  23589363.0574   23589362.6234
     -2553.7354      -1989.9244
  -7029027.12949  -5470022.37447  22299094.2634   22299093.7734
      2676.2304       2085.3744
 00  5  2 15 20 30.0000000  0  6G 2G 7G 8G 9G26G 4
   2678322.80949   2081697.75548  21457658.4624   21457656.0524
     -1283.9014      -1000.4434
   2006895.35549   1561575.29248  20704688.0914   20704685.3604
     -1238.3204       -964.9254
  10010468.58649   7778331.35647  23633451.6414   23633452.6984
     -4197.8224      -3271.0304
  -5266363.82049  -4099095.29647  22908744.9784   22908743.2984
      2244.4974       1748.9594
   5334252.84049   4147013.76047  23596659.0534   23596658.3684
     -2558.1304      -1993.3484
  -7069140.43449  -5501279.45347  22291460.8434   22291460.0814
      2672.3194       2082.3274
 00  5  2 15 20 45.0000000  0  6G 2G 7G 8G 9G26G 4
   2697605.82449   2096723.46548  21461328.1514   21461325.5884
     -1286.8904      -1002.7714
   2025507.45349   1576078.22548  20708229.8114   20708227.0154
     -1243.0374       -968.6004
  10073453.06349   7827410.06447  23645436.9214   23645438.3784
     -4199.8634      -3272.6214
  -5299996.87549  -4125302.87347  22902344.6904   22902342.9364
      2240.2294       1745.6334
   5372656.72749   4176938.84847  23603966.5954   23603966.1744
     -2562.2364      -1996.5484
  -7109195.64849  -5532491.27847  22283838.6264   22283838.0754
      2668.6524       2079.4694
 00  5  2 15 21  0.0000000  0  6G 2G 7G 8G 9G26G 4
   2716933.29749   2111783.82348  21465005.7704   21465003.5024
     -1290.1954      -1005.3474
   2044188.19149   1590634.62848  20711784.8424   20711782.0224
     -1247.8174       -972.3254
  10136465.94949   7876510.89347  23657427.5174   23657428.5004
     -4201.9194      -3274.2234
  -5333565.19549  -4151459.98547  22895956.7204   22895955.2504
      2235.5624       1741.9964
   5411121.90249   4206911.68247  23611286.4644   23611286.0904
     -2566.5724      -1999.9264
  -7149195.62149  -5563660.04847  22276226.4874   22276226.1884
      2664.6884       2076.3804
 00  5  2 15 21 15.0000000  0  6G 2G 7G 8G 9G26G 4
   2736309.71949   2126882.31948  21468692.9754   21468690.4374
     -1293.4524      -1007.8854
   2062941.88749   1605247.89148  20715353.6034   20715350.5324
     -1252.7644       -976.1794
  10199511.72349   7925637.40147  23669424.6924   23669426.2424
     -4204.2094      -3276.0074
  -5367064.07049  -4177563.00847  22889582.2874   22889580.1364
      2230.8644       1738.3364
   5449652.47349   4236935.45847  23618618.7494   23618618.4964
     -2570.9474      -2003.3364
  -7189135.45749  -5594781.95247  22268626.4344   22268625.9364
      2660.5714       2073.1724
 00  5  2 15 21 30.0000000  0  6G 2G 7G 8G 9G26G 4
   2755734.78549   2142018.71648  21472389.4914   21472387.1944
     -1296.5674      -1010.3124
   2081767.89849   1619917.49748  20718935.7574   20718933.0224
     -1257.4664       -979.8434
  10262589.57049   7974788.83447  23681428.8814   23681429.8874
     -4206.2654      -3277.6094
  -5400493.47349  -4203611.88847  22883220.7234   22883219.0204
      2226.3134       1734.7904
   5488247.58649   4267009.52647  23625963.3994   23625963.1054
     -2575.1274      -2006.5924
  -7229015.12549  -5625856.97647  22261037.7024   22261037.2594
      2656.6024       2070.0794
 00  5  2 15 21 45.0000000  0  6G 2G 7G 8G 9G26G 4
   2775206.86749   2157191.75548  21476094.9944   21476092.3854
     -1299.8344      -1012.8584
   2100664.36749   1634642.01548  20722531.8774   20722529.1494
     -1262.1394       -983.4854
  10325697.29749   8023963.60847  23693437.6224   23693438.6714
     -4208.1594      -3279.0854
  -5433854.84049  -4229607.75147  22876872.1594   22876870.6364
      2221.7724       1731.2514
   5526905.26249   4297132.36347  23633319.4734   23633318.9954
     -2579.3164      -2009.8574
  -7268836.10949  -5656886.27347  22253459.8464   22253459.3774
      2652.7054       2067.0434
 00  5  2 15 22  0.0000000  0  6G 2G 7G 8G 9G26G 4
   2794726.75849   2172402.05648  21479809.5544   21479806.9654
     -1302.7984      -1015.1674
   2119631.85249   1649421.86848  20726141.3714   20726138.4814
     -1266.7684       -987.0924
  10388835.59849   8073162.18147  23705452.8434   23705453.7894
     -4210.1614      -3280.6454
  -5467147.21549  -4255549.84647  22870536.8404   22870535.1914
      2217.2854       1727.7554
   5565625.85249   4327304.23147  23640687.9514   23640687.4684
     -2583.3454      -2012.9964
  -7308597.35249  -5687869.02147  22245893.6484   22245892.6644
      2648.7844       2063.9884
 00  5  2 15 22 15.0000000  0  6G 2G 7G 8G 9G26G 4
   2814293.59049   2187648.92148  21483533.0394   21483530.7024
     -1306.0404      -1017.6944
   2138669.16049   1664256.12048  20729763.6844   20729761.0794
     -1271.4994       -990.7784
  10452003.18049   8122383.56247  23717472.9004   23717474.3484
     -4212.0904      -3282.1484
  -5500371.22749  -4281438.68047  22864214.5984   22864212.9644
      2212.6464       1724.1404
   5604408.12549   4357524.15147  23648067.7144   23648067.2774
     -2587.5244      -2016.2534
  -7348299.22749  -5718805.51047  22238338.6064   22238338.2634
      2644.6884       2060.7954
 00  5  2 15 22 30.0000000  0  6G 2G 7G 8G 9G26G 4
   2833907.84849   2202932.75448  21487265.6014   21487263.2174
     -1309.1464      -1020.1134
   2157776.53549   1679144.97748  20733399.9534   20733396.8484
     -1276.0554       -994.3284
  10515200.10249   8171627.80247  23729499.2404   23729500.1354
     -4213.9314      -3283.5824
  -5533526.16049  -4307273.69947  22857905.4914   22857903.6994
      2208.1404       1720.6284
   5643251.96149   4387792.05047  23655459.7514   23655459.2854
     -2591.5974      -2019.4264
  -7387941.07449  -5749695.21147  22230794.8154   22230794.3534
      2640.8844       2057.8324
 00  5  2 15 22 45.0000000  0  6G 2G 7G 8G 9G26G 4
   2853569.40249   2218253.44248  21491006.8304   21491004.4254
     -1312.3344      -1022.5984
   2176953.59449   1694088.13648  20737049.3344   20737046.2594
     -1280.8254       -998.0464
  10578425.98449   8220894.62747  23741530.5204   23741531.8684
     -4216.0744      -3285.2534
  -5566611.90249  -4333054.78047  22851609.6354   22851607.5424
      2203.3204       1716.8734
   5682156.95349   4418107.57147  23662863.0644   23662862.5144
     -2595.7714      -2022.6794
  -7427522.63349  -5780537.94747  22223262.9294   22223262.2654
      2636.5824       2054.4804
 00  5  2 15 23  0.0000000  0  6G 2G 7G 8G 9G26G 4
   2873280.33649   2233612.59148  21494757.9094   21494755.7074
     -1315.6694      -1025.1974
   2196202.19149   1709087.02948  20740712.1954   20740709.6274
     -1285.6154      -1001.7784
  10641682.53549   8270185.34647  23753568.8534   23753569.2304
     -4218.0814      -3286.8164
  -5599626.13349  -4358780.14347  22845326.9654   22845325.0474
      2198.5554       1713.1594
   5721124.61749   4448471.95647  23670278.5304   23670278.4284
     -2599.9564      -2025.9404
  -7467041.60549  -5811331.91547  22215742.6574   22215741.9854
      2632.4664       2051.2724
 00  5  2 15 23 15.0000000  0  6G 2G 7G 8G 9G26G 4
   2893041.15249   2249010.62148  21498518.3444   21498515.7984
     -1318.9454      -1027.7504
   2215522.45749   1724141.78148  20744388.4274   20744385.4674
     -1290.2884      -1005.4194
  10704969.84049   8319500.03047  23765611.7484   23765612.4404
     -4220.0734      -3288.3694
  -5632568.30149  -4384449.36147  22839058.1374   22839056.3774
      2193.8234       1709.4734
   5760154.98449   4478885.19647  23677705.6204   23677705.3974
     -2604.0334      -2029.1174
  -7506497.21149  -5842076.49947  22208234.2264   22208233.5424
      2628.3744       2048.0844
 00  5  2 15 23 30.0000000  0  6G 2G 7G 8G 9G26G 4
   2912849.59849   2264445.76548  21502287.7504   21502285.2714
     -1322.0614      -1030.1774
   2234911.82849   1739250.37548  20748078.4614   20748075.4094
     -1294.8884      -1009.0034
  10768285.19549   8368836.54847  23777660.9734   23777661.3734
     -4221.8704      -3289.7694
  -5665440.40249  -4410063.97647  22832802.9804   22832801.0744
      2189.1894       1705.8624
   5799245.58649   4509345.37047  23685144.2524   23685143.8524
     -2607.9444      -2032.1644
  -7545891.36349  -5872773.19647  22200738.0644   22200736.8714
      2624.3074       2044.9144
 00  5  2 15 23 45.0000000  0  6G 2G 7G 8G 9G26G 4
   2932707.17249   2279919.18548  21506066.3374   21506064.4304
     -1325.4304      -1032.8024
   2254371.66849   1754413.87348  20751781.2064   20751778.3654
     -1299.6194      -1012.6904
  10831629.98849   8418196.03847  23789713.8844   23789715.8364
     -4223.9554      -3291.3944
  -5698240.62549  -4435622.58447  22826561.3474   22826559.4174
      2184.2974       1702.0504
   5838397.27749   4539853.13547  23692594.4124   23692594.5544
     -2612.0614      -2035.3724
  -7585222.25849  -5903420.61347  22193253.6764   22193252.9324
      2619.9664       2041.5324
 00  5  2 15 24  0.0000000  0  6G 2G 7G 8G 9G26G 4
   2952612.60949   2295429.89848  21509854.2024   21509851.6044
     -1328.6824      -1035.3364
   2273900.35549   1769631.02348  20755497.4664   20755494.7514
     -1304.2634      -1016.3094
  10895002.32849   8467576.99147  23801773.3284   23801775.0894
     -4225.8594      -3292.8774
  -5730970.08649  -4461126.05547  22820333.1694   22820331.3124
      2179.5754       1698.3704
   5877608.43449   4570407.25947  23700055.9864   23700056.2824
     -2616.1824      -2038.5834
  -7624490.89849  -5934019.50847  22185780.8774   22185780.0454
      2615.7764       2038.2674
 00  5  2 15 24 15.0010000  0  6G 2G 7G 8G 9G26G 4
   2972568.13349   2310979.64248  21513651.9564   21513649.1534
     -1331.9294      -1037.8674
   2293499.86749   1784903.35848  20759227.3234   20759224.1734
     -1308.8384      -1019.8744
  10958407.13349   8516983.18147  23813839.1074   23813840.8104
     -4227.6904      -3294.3044
  -5763629.80149  -4486575.18447  22814118.4474   22814116.3194
      2174.7414       1694.6044
   5916882.12149   4601010.11147  23707530.1894   23707529.8094
     -2620.0594      -2041.6044
  -7663698.74649  -5964571.04547  22178319.4234   22178319.5784
      2611.5824       2034.9994
 00  5  2 15 24 30.0010000  0  6G 2G 7G 8G 9G26G 4
   2992571.67249   2326566.80648  21517458.3494   21517455.7764
     -1335.2254      -1040.4354
   2313167.83649   1800229.04748  20762969.9584   20762967.3634
     -1313.6964      -1023.6594
  11021836.18849   8566408.33647  23825909.3494   23825911.0264
     -4229.6394      -3295.8224
  -5796214.64149  -4511965.95247  22807917.1364   22807915.7004
      2169.8104       1690.7614
   5956213.26649   4631657.71647  23715014.7404   23715013.7954
     -2624.1464      -2044.7894
  -7702839.55149  -5995070.33247  22170871.2054   22170870.9654
      2607.1684       2031.5594
 00  5  2 15 24 45.0010000  0  6G 2G 7G 8G 9G26G 4
   3012623.49249   2342191.59048  21521274.1934   21521271.6684
     -1338.3204      -1042.8474
   2332904.29349   1815608.09348  20766725.7604   20766722.9004
     -1318.0084      -1027.0194
  11085292.18849   8615854.43347  23837984.6914   23837986.8154
     -4231.2604      -3297.0864
  -5828727.49249  -4537300.62847  22801730.3514   22801728.6764
      2165.1814       1687.1544
   5995603.01649   4662350.98847  23722509.7124   23722509.2164
     -2627.8964      -2047.7114
  -7741916.81249  -6025520.10547  22163435.3404   22163434.5234
      2603.0914       2028.3824
 00  5  2 15 25  0.0010000  0  6G 2G 7G 8G 9G26G 4
   3032724.37949   2357854.61248  21525099.1944   21525096.7474
     -1341.7434      -1045.5144
   2352709.75849   1831040.91848  20770494.4114   20770491.5364
     -1322.6174      -1030.6114
  11148775.64849   8665321.95047  23850065.2954   23850067.1324
     -4233.1594      -3298.5664
  -5861167.52749  -4562578.57047  22795557.3874   22795555.7094
      2160.2344       1683.3004
   6035051.58249   4693090.10447  23730016.8544   23730016.3654
     -2631.8514      -2050.7934
  -7780929.43749  -6055919.51247  22156011.3234   22156010.7684
      2598.6524       2024.9244
 00  5  2 15 25 15.0010000  0  6G 2G 7G 8G 9G26G 4
   3052875.77049   2373556.97348  21528933.7404   21528931.3684
     -1344.9614      -1048.0224
   2372585.30949   1846528.35048  20774276.9444   20774274.1294
     -1327.2564      -1034.2254
  11212287.50049   8714811.60547  23862151.2364   23862152.8694
     -4234.9174      -3299.9354
  -5893533.04349  -4587798.44947  22789398.2564   22789396.7654
      2155.3424       1679.4874
   6074560.10949   4723875.92147  23737535.1114   23737534.7144
     -2635.8114      -2053.8784
  -7819875.69949  -6086267.22447  22148600.5704   22148599.5074
      2594.3314       2021.5574
 00  5  2 15 25 30.0010000  0  6G 2G 7G 8G 9G26G 4
   3073075.86349   2389297.29848  21532777.7384   21532775.4824
     -1348.3694      -1050.6774
   2392528.88349   1862068.78148  20778072.1384   20778069.0924
     -1331.8704      -1037.8214
  11275825.61349   8764321.67047  23874242.1714   23874243.8854
     -4236.7684      -3301.3774
  -5925825.68749  -4612961.53847  22783253.1584   22783251.2054
      2150.3274       1675.5804
   6114126.24649   4754706.65447  23745064.3534   23745064.0944
     -2639.6784      -2056.8924
  -7858757.04749  -6116564.32947  22141201.4474   22141200.5274
      2589.8784       2018.0874
 00  5  2 15 25 45.0010000  0  6G 2G 7G 8G 9G26G 4
   3093326.07049   2405076.66248  21536631.6264   21536629.1114
     -1351.8024      -1053.3524
   2412541.78149   1877663.24648  20781880.1064   20781877.2974
     -1336.5624      -1041.4774
  11339391.19949   8813853.18847  23886338.3394   23886340.1664
     -4238.6724      -3302.8614
  -5958043.78949  -4638066.54047  22777122.3534   22777120.5694
      2145.3374       1671.6914
   6153751.03149   4785583.07647  23752605.1194   23752604.6204
     -2643.5844      -2059.9364
  -7897571.89549  -6146809.63047  22133814.8704   22133813.8244
      2585.4354       2014.6244
 00  5  2 15 26  0.0010000  0  6G 2G 7G 8G 9G26G 4
   3113626.57049   2420895.22048  21540494.5684   21540491.7424
     -1355.0934      -1055.9164
   2432623.74649   1893311.52248  20785701.7634   20785699.0164
     -1341.1674      -1045.0654
  11402983.90649   8863405.82847  23898439.6714   23898441.7164
     -4240.4354      -3304.2354
  -5990186.98849  -4663113.18047  22771005.6484   22771004.3444
      2140.2934       1667.7614
   6193434.14849   4816504.93047  23760156.3634   23760155.9434
     -2647.5244      -2063.0064
  -7936319.73449  -6177002.71747  22126441.4654   22126440.9154
      2580.8944       2011.0864
 00  5  2 15 26 15.0010000  0  6G 2G 7G 8G 9G26G 4
   3133976.06349   2436751.96548  21544366.9874   21544364.4424
     -1358.3154      -1058.4284
   2452773.31349   1909012.46948  20789535.9364   20789532.9044
     -1345.5864      -1048.5094
  11466602.09449   8912978.34147  23910546.6904   23910548.3304
     -4242.0904      -3305.5254
  -6022256.39149  -4688102.30747  22764903.0884   22764901.0324
      2135.5184       1664.0404
   6233173.90649   4847470.97047  23767718.7424   23767718.4244
     -2651.2654      -2065.9214
  -7975001.47349  -6207144.28247  22119080.5124   22119079.4994
      2576.5634       2007.7114
 00  5  2 15 26 30.0010000  0  6G 2G 7G 8G 9G26G 4
   3154375.92249   2452647.94248  21548248.9014   21548246.1894
     -1361.8024      -1061.1444
   2472991.50449   1924766.88248  20793383.4214   20793380.5024
     -1350.3034      -1052.1844
  11530246.81349   8962571.49947  23922656.8634   23922658.3664
     -4243.9454      -3306.9704
  -6054250.27349  -4713032.61347  22758814.8474   22758813.4074
      2130.2594       1659.9424
   6272971.23049   4878481.81947  23775291.5134   23775291.3054
     -2655.2694      -2069.0404
  -8013615.51249  -6237233.11247  22111732.5264   22111731.6574
      2571.8514       2004.0394
 00  5  2 15 26 45.0010000  0  6G 2G 7G 8G 9G26G 4
   3174825.71549   2468582.83648  21552140.0424   21552137.5734
     -1364.8544      -1063.5224
   2493277.59049   1940574.21748  20797243.6474   20797240.7274
     -1354.5314      -1055.4794
  11593917.26249   9012184.72447  23934773.6184   23934775.1764
     -4245.4104      -3308.1124
  -6086168.91049  -4737904.26347  22752740.7474   22752738.9964
      2125.5274       1656.2554
   6312825.20749   4909536.85047  23782875.7734   23782875.6364
     -2658.6574      -2071.6814
  -8052162.08649  -6267269.38047  22104397.4324   22104396.8334
      2567.6124       2000.7374
 00  5  2 15 27  0.0010000  0  6G 2G 7G 8G 9G26G 4
   3195324.23449   2484555.69248  21556040.9184   21556038.3074
     -1368.4474      -1066.3234
   2513630.12549   1956433.33148  20801116.8464   20801113.7524
     -1359.2924      -1059.1894
  11657611.88749   9061816.80547  23946894.6054   23946896.1704
     -4247.3584      -3309.6304
  -6118013.38749  -4762718.12947  22746681.0954   22746679.1094
      2120.2254       1652.1234
   6352734.21549   4940634.74447  23790469.8204   23790469.9274
     -2662.6274      -2074.7744
  -8090641.91449  -6297253.61947  22097074.9924   22097074.1474
      2562.8714       1997.0424
 00  5  2 15 27 15.0010000  0  6G 2G 7G 8G 9G26G 4
   3215874.08249   2500568.55448  21559951.4754   21559949.3804
     -1371.6504      -1068.8184
   2534051.49649   1972346.08048  20805002.6094   20804999.8654
     -1363.5994      -1062.5444
  11721332.85249   9111469.40847  23959020.7194   23959021.4444
     -4248.8774      -3310.8134
  -6149780.89149  -4787472.01247  22740635.7214   22740633.7464
      2115.3614       1648.3344
   6392700.31349   4971777.12347  23798075.5764   23798075.0774
     -2666.2064      -2077.5634
  -8129052.21949  -6327183.68247  22089765.5164   22089764.7524
      2558.3984       1993.5574
 00  5  2 15 27 30.0010000  0  6G 2G 7G 8G 9G26G 4
   3236474.46549   2516620.77948  21563871.6654   21563869.2564
     -1375.1174      -1071.5204
   2554540.49249   1988311.51948  20808901.6014   20808898.8274
     -1368.1694      -1066.1064
  11785078.99649   9161141.60646  23971150.6474   23971152.4624
     -4250.6544      -3312.1984
  -6181472.02749  -4812166.40347  22734605.2094   22734603.2784
      2110.1814       1644.2974
   6432722.41449   5002963.13347  23805691.6354   23805691.2904
     -2669.9904      -2080.5124
  -8167393.55549  -6357060.01347  22082469.6994   22082468.6634
      2553.7214       1989.9124
 00  5  2 15 27 45.0010000  0  6G 2G 7G 8G 9G26G 4
   3257125.48449   2532712.47648  21567801.3334   21567799.1254
     -1378.3644      -1074.0504
   2575097.03149   2004329.59648  20812813.5404   20812810.4364
     -1372.5834      -1069.5454
  11848850.25449   9210833.36047  23983285.9894   23983287.5214
     -4252.1834      -3313.3894
  -6213086.25849  -4836800.86147  22728589.0524   22728587.4214
      2105.1374       1640.3664
   6472800.15249   5034192.51847  23813317.8244   23813317.3364
     -2673.5694      -2083.3014
  -8205665.38749  -6386882.19247  22075186.6714   22075185.8094
      2549.2194       1986.4044
 00  5  2 15 28  0.0010000  0  6G 2G 7G 8G 9G26G 4
   3277825.69949   2548842.49248  21571740.5934   21571738.5584
     -1381.6024      -1076.5734
   2595719.44549   2020399.00648  20816737.7124   20816734.7094
     -1376.8564      -1072.8744
  11912644.61749   9260543.17346  23995426.2704   23995427.4134
     -4253.5304      -3314.4394
  -6244624.92249  -4861376.44147  22722587.7934   22722585.6434
      2100.2054       1636.5234
   6512931.59049   5065463.73347  23820954.5484   23820954.4764
     -2677.0364      -2086.0024
  -8243868.95349  -6416651.16747  22067916.4184   22067915.8224
      2544.6974       1982.8814
 00  5  2 15 28 15.0010000  0  6G 2G 7G 8G 9G26G 4
   3298576.36349   2565011.83548  21575689.5034   21575686.7814
     -1385.2444      -1079.4114
   2616408.64149   2036520.43948  20820674.9484   20820671.9914
     -1381.6604      -1076.6184
  11976463.05949   9310271.69846  24007569.8844   24007572.0714
     -4255.4644      -3315.9464
  -6276086.56649  -4885891.99847  22716600.8904   22716598.7934
      2094.7074       1632.2394
   6553117.53149   5096777.42247  23828602.0804   23828601.3964
     -2681.0114      -2089.0994
  -8282002.69149  -6446365.72647  22060659.9304   22060659.5104
      2539.7074       1978.9924
 00  5  2 15 28 30.0010000  0  6G 2G 7G 8G 9G26G 4
   3319377.89849   2581220.81348  21579647.5494   21579645.3264
     -1388.5014      -1081.9494
   2637164.80149   2052694.05848  20824624.8934   20824621.9384
     -1386.0164      -1080.0124
  12040305.62549   9360019.04246  24019719.2654   24019720.9154
     -4257.0954      -3317.2174
  -6307470.52749  -4910347.03647  22710628.5084   22710626.0954
      2089.6244       1628.2784
   6593357.99649   5128133.58447  23836259.4374   23836259.2994
     -2684.6144      -2091.9074
  -8320065.91049  -6476025.34547  22053416.5234   22053415.9324
      2535.1274       1975.4244
 00  5  2 15 28 45.0010000  0  6G 2G 7G 8G 9G26G 4
   3340229.88749   2597469.08848  21583615.7054   21583613.1004
     -1391.8124      -1084.5284
   2657987.21149   2068919.31248  20828587.0304   20828583.8104
     -1390.3424      -1083.3834
  12104171.55149   9409784.57246  24031872.5474   24031874.1224
     -4258.4774      -3318.2934
  -6338777.10249  -4934741.75847  22704671.3094   22704669.2514
      2084.5954       1624.3604
   6633652.11349   5159531.54347  23843926.9944   23843926.6654
     -2688.0374      -2094.5744
  -8358058.70349  -6505630.08047  22046186.9644   22046186.2094
      2530.5324       1971.8434
 00  5  2 15 29  0.0010000  0  6G 2G 7G 8G 9G26G 4
   3361132.05149   2613756.48548  21587593.0104   21587590.9994
     -1395.0104      -1087.0214
   2678875.40249   2085195.81148  20832561.7774   20832558.9164
     -1394.5854      -1086.6904
  12168060.20749   9459567.79646  24044030.0824   24044032.2784
     -4259.9414      -3319.4354
  -6370006.26249  -4959076.16247  22698728.2574   22698726.2004
      2079.4684       1620.3644
   6673999.19149   5190970.79447  23851604.8194   23851605.1654
     -2691.3874      -2097.1844
  -8395981.12149  -6535179.98847  22038970.4124   22038969.8474
      2525.9384       1968.2634
 00  5  2 15 29 15.0010000  0  6G 2G 7G 8G 9G26G 4
   3382085.94149   2630084.18548  21591580.7284   21591578.2454
     -1398.6674      -1089.8704
   2699830.57849   2101524.50148  20836549.3774   20836546.5784
     -1399.2384      -1090.3164
  12231972.60249   9509369.51546  24056192.3774   24056194.0214
     -4261.5824      -3320.7134
  -6401156.28149  -4983348.90747  22692800.6644   22692798.7464
      2074.0434       1616.1374
   6714400.31349   5222452.15447  23859292.5964   23859292.6654
     -2695.1814      -2100.1414
  -8433831.24649  -6564673.56547  22031767.8604   22031767.2244
      2520.9474       1964.3744
 00  5  2 15 29 30.0010000  0  6G 2G 7G 8G 9G26G 4
   3403092.08649   2646452.59948  21595577.9544   21595575.4464
     -1402.1244      -1092.5644
   2720853.00849   2117905.60648  20840550.2154   20840547.4124
     -1403.6234      -1093.7324
  12295909.07049   9559190.02146  24068358.6664   24068361.4494
     -4263.1644      -3321.9464
  -6432226.41449  -5007559.37847  22686888.1894   22686886.5384
      2068.7994       1612.0514
   6754855.52749   5253975.65447  23866991.6854   23866991.6724
     -2698.7604      -2102.9304
  -8471608.35549  -6594110.23047  22024579.2754   22024578.2394
      2516.0694       1960.5744
 00  5  2 15 29 45.0010000  0  6G 2G 7G 8G 9G26G 4
   3424148.57849   2662860.23748  21599584.9814   21599582.4184
     -1405.6354      -1095.3004
   2741940.47349   2134337.38948  20844562.8974   20844560.2514
     -1408.1694      -1097.2754
  12359867.27049   9609027.43946  24080529.9284   24080532.0644
     -4264.8394      -3323.2514
  -6463218.39849  -5031708.97947  22680990.9564   22680988.8834
      2063.3254       1607.7864
   6795362.48049   5285539.47347  23874699.6184   23874699.2424
     -2702.3394      -2105.7194
  -8509313.99649  -6623491.22047  22017403.5404   22017403.2424
      2511.1474       1956.7384
 00  5  2 15 30  0.0010000  0  6G 2G 7G 8G 9G26G 4
   3445256.94149   2679308.30948  21603601.8474   21603599.0794
     -1408.9264      -1097.8644
   2763094.27049   2150820.86048  20848588.2254   20848585.0014
     -1412.4464      -1100.6074
  12423848.51649   9658882.80147  24092705.5384   24092707.2294
     -4266.1184      -3324.2484
  -6494130.45749  -5055796.29647  22675108.2734   22675106.2894
      2058.2524       1603.8334
   6835922.32849   5317144.51347  23882417.7644   23882417.8294
     -2705.7714      -2108.3934
  -8546946.37549  -6652815.11647  22010242.8414   22010241.7054
      2506.3484       1952.9984
 00  5  2 15 30 15.0010000  0  6G 2G 7G 8G 9G26G 4
   3466418.25049   2695797.63348  21607628.6064   21607625.9894
     -1412.6664      -1100.7794
   2784315.24249   2167356.66948  20852626.3024   20852623.3084
     -1417.0954      -1104.2304
  12487853.37149   9708756.58947  24104885.6804   24104887.1304
     -4267.8964      -3325.6334
  -6524961.19149  -5079820.24147  22669241.6454   22669239.6624
      2052.5784       1599.4124
   6876535.64849   5348791.22847  23890146.8904   23890146.0054
     -2709.3754      -2111.2014
  -8584504.02749  -6682080.78547  22003095.7394   22003095.2174
      2501.1624       1948.9574
 00  5  2 15 30 30.0010000  0  6G 2G 7G 8G 9G26G 4
   3487631.24249   2712327.20748  21611665.1624   21611662.4384
     -1415.8694      -1103.2754
   2805601.84449   2183943.62548  20856677.1714   20856674.3674
     -1421.2504      -1107.4684
  12551880.23449   9758647.54547  24117069.6744   24117071.2924
     -4269.3074      -3326.7324
  -6555711.71949  -5103781.67847  22663389.6364   22663388.1444
      2047.3934       1595.3714
   6917200.87949   5380478.36747  23897884.2954   23897884.7284
     -2712.6764      -2113.7734
  -8621987.92249  -6711288.98947  21995962.8104   21995961.7774
      2496.4754       1945.3054
 00  5  2 15 30 45.0010000  0  6G 2G 7G 8G 9G26G 4
   3508897.14149   2728898.01948  21615711.8494   21615709.9484
     -1419.3604      -1105.9954
   2826954.90249   2200582.35348  20860740.3584   20860737.4204
     -1425.6304      -1110.8814
  12615929.96549   9808556.29447  24129257.9074   24129259.5874
     -4270.6204      -3327.7564
  -6586380.69149  -5127679.58147  22657553.6204   22657551.8934
      2041.9534       1591.1324
   6957918.53549   5412206.37047  23905633.5504   23905633.0694
     -2716.1334      -2116.4674
  -8659396.76649  -6740438.69747  21988843.9874   21988843.1154
      2491.5334       1941.4544
 00  5  2 15 31  0.0010000  0  6G 2G 7G 8G 9G26G 4
   3530215.23449   2745509.50948  21619768.6234   21619766.1554
     -1423.0084      -1108.8374
   2848373.41849   2217272.10548  20864816.3244   20864813.4124
     -1430.1424      -1114.3964
  12680001.41449   9858481.97347  24141451.1734   24141452.0924
     -4272.2024      -3328.9894
  -6616968.70349  -5151514.38147  22651733.2044   22651730.9554
      2036.4264       1586.8254
   6998687.55949   5443974.39247  23913391.9304   23913391.3354
     -2719.6344      -2119.1954
  -8696730.89849  -6769530.19447  21981739.5734   21981738.3154
      2486.4014       1937.4564
 00  5  2 15 31 15.0010000  0  6G 2G 7G 8G 9G26G 4
   3551585.85949   2762161.93148  21623835.4494   21623833.1004
     -1426.4314      -1111.5044
   2869857.55949   2234012.97748  20868904.6504   20868901.6924
     -1434.4334      -1117.7404
  12744094.55149   9908424.56647  24153646.8154   24153649.1704
     -4273.6334      -3330.1034
  -6647475.09449  -5175285.59247  22645927.8714   22645925.5874
      2030.9864       1582.5874
   7039507.85549   5475782.39547  23921159.1184   23921159.0274
     -2723.0524      -2121.8594
  -8733989.70349  -6798562.98947  21974649.6674   21974648.5194
      2481.4114       1933.5674
 00  5  2 15 31 30.0010000  0  6G 2G 7G 8G 9G26G 4
   3573009.84049   2778855.93148  21627912.8204   21627910.2424
     -1430.0444      -1114.3204
   2891407.82449   2250805.38848  20873005.5444   20873002.9374
     -1438.9214      -1121.2374
  12808209.94549   9958384.47147  24165847.6454   24165849.8144
     -4275.2204      -3331.3404
  -6677898.79749  -5198992.37447  22640138.3684   22640136.7414
      2025.4154       1578.2454
   7080379.80549   5507630.61647  23928936.7344   23928936.9804
     -2726.6164      -2124.6364
  -8771172.08249  -6827536.24347  21967574.1464   21967572.5494
      2476.1964       1929.5044
 00  5  2 15 31 45.0010000  0  6G 2G 7G 8G 9G26G 4
   3594484.40649   2795589.34948  21631998.7494   21631996.1834
     -1433.3844      -1116.9224
   2913021.25049   2267647.00248  20877118.6454   20877115.5734
     -1443.1254      -1124.5134
  12872344.48449  10008359.35447  24178052.3794   24178054.7404
     -4276.3624      -3332.2304
  -6708242.33649  -5222636.68447  22634363.9074   22634361.8714
      2020.1074       1574.1104
   7121300.13349   5539516.53147  23936723.9204   23936723.8824
     -2729.7804      -2127.1024
  -8808280.43449  -6856451.80348  21960512.0744   21960511.8134
      2471.2994       1925.6874
 00  5  2 15 32  0.0010000  0  6G 2G 7G 8G 9G26G 4
   3616012.21949   2812364.25748  21636095.1564   21636093.1494
     -1436.8074      -1119.5904
   2934700.16449   2284539.66048  20881243.6734   20881241.1784
     -1447.3584      -1127.8124
  12936500.29749  10058350.73547  24190261.0164   24190262.5854
     -4277.5884      -3333.1854
  -6738502.88349  -5246216.31947  22628606.1254   22628603.6994
      2014.7414       1569.9284
   7162271.10249   5571441.93647  23944520.7524   23944520.4624
     -2732.9594      -2129.5784
  -8845311.90649  -6885307.46847  21953465.3544   21953464.5494
      2466.2404       1921.7464
 00  5  2 15 32 15.0010000  0  6G 2G 7G 8G 9G26G 4
   3637593.33649   2829180.69848  21640202.1454   21640199.8094
     -1440.5424      -1122.5004
   2956444.43449   2301483.23548  20885381.6724   20885379.1214
     -1451.8554      -1131.3164
  13000677.30549  10108358.67746  24202473.4694   24202474.8494
     -4279.1804      -3334.4264
  -6768680.14849  -5269731.06847  22622863.1474   22622861.2834
      2008.9754       1565.4354
   7203292.34449   5603406.49947  23952326.7634   23952326.3904
     -2736.4064      -2132.2654
  -8882265.97349  -6914102.80348  21946432.9834   21946432.3944
      2461.0254       1917.6824
 00  5  2 15 32 30.0010000  0  6G 2G 7G 8G 9G26G 4
   3659226.23049   2846037.50148  21644318.8754   21644316.4804
     -1443.9264      -1125.1374
   2978252.14549   2318476.24748  20889531.4024   20889528.7344
     -1455.9574      -1134.5124
  13064873.42649  10158381.49647  24214689.5124   24214691.1474
     -4280.3474      -3335.3354
  -6798775.54749  -5293182.01947  22617136.1864   22617133.9604
      2003.6824       1561.3104
   7244361.89149   5635408.69347  23960141.0864   23960141.7064
     -2739.5414      -2134.7074
  -8919144.03149  -6942838.92348  21939415.3104   21939414.7984
      2456.0164       1913.7784
 00  5  2 15 32 45.0010000  0  6G 2G 7G 8G 9G26G 4
   3680911.82849   2862935.34248  21648445.2594   21648442.9244
     -1447.5154      -1127.9334
   3000124.00849   2335519.25048  20893693.4904   20893690.7964
     -1460.2544      -1137.8604
  13129089.27349  10208419.71747  24226909.3204   24226911.6484
     -4281.7294      -3336.4124
  -6828787.91449  -5316568.27747  22611425.2414   22611423.4844
      1998.0084       1556.8894
   7285480.21949   5667448.90947  23967966.5264   23967966.5404
     -2742.8614      -2137.2954
  -8955944.85249  -6971514.85548  21932412.4864   21932411.8654
      2450.6694       1909.6124
 00  5  2 15 33  0.0010000  0  6G 2G 7G 8G 9G26G 4
   3702647.59849   2879872.29748  21652581.3054   21652579.4464
     -1450.7864      -1130.4834
   3022057.28949   2352610.11648  20897867.4914   20897864.5564
     -1464.3024      -1141.0144
  13193322.06349  10258471.11347  24239132.2894   24239134.9244
     -4282.8224      -3337.2644
  -6858719.52049  -5339891.59047  22605729.0324   22605727.3454
      1992.6614       1552.7234
   7326644.37149   5699524.81947  23975799.7604   23975799.3094
     -2745.8694      -2139.6384
  -8992670.57049  -7000132.25748  21925424.0274   21925422.8714
      2445.7914       1905.8114
 00  5  2 15 33 15.0010000  0  6G 2G 7G 8G 9G26G 4
   3724435.48449   2896849.86348  21656727.6914   21656725.5474
     -1454.2384      -1133.1734
   3044053.57849   2369750.07348  20902052.9894   20902050.0304
     -1468.4724      -1144.2644
  13257573.30949  10308536.85447  24251358.9504   24251361.2774
     -4284.0044      -3338.1854
  -6888568.15649  -5363150.25747  22600049.2244   22600046.9774
      1987.1584       1548.4354
   7367855.86749   5731637.64447  23983642.1434   23983642.0414
     -2749.0584      -2142.1234
  -9029319.12549  -7028689.54347  21918449.8714   21918448.5294
      2440.6794       1901.8284
 00  5  2 15 33 30.0010000  0  6G 2G 7G 8G 9G26G 4
   3746275.62149   2913868.14248  21660883.8594   21660881.4004
     -1457.5494      -1135.7524
   3066112.60549   2386938.90748  20906250.8894   20906248.0854
     -1472.4074      -1147.3304
  13321842.69949  10358616.78847  24263589.4534   24263591.9314
     -4285.0154      -3338.9724
  -6918333.60249  -5386344.10747  22594385.1974   22594383.4134
      1981.7974       1544.2574
   7409114.26649   5763787.01247  23991492.8974   23991493.2574
     -2751.8554      -2144.3034
  -9065890.07449  -7057186.35548  21911490.5414   21911489.6464
      2435.6794       1897.9314
 00  5  2 15 33 45.0010000  0  6G 2G 7G 8G 9G26G 4
   3768168.32449   2930927.37448  21665049.8094   21665047.7154
     -1461.2454      -1138.6334
   3088234.57449   2404176.80148  20910460.3094   20910457.8884
     -1476.7974      -1150.7514
  13386130.30949  10408710.84947  24275822.8834   24275825.4374
     -4286.3134      -3339.9854
  -6948015.23049  -5409472.65147  22588736.9924   22588735.2204
      1976.0214       1539.7564
   7450419.53549   5795972.87347  23999353.6874   23999353.6704
     -2755.1864      -2146.8984
  -9102382.76649  -7085622.18747  21904546.0684   21904545.3624
      2430.3034       1893.7424
 00  5  2 15 34  0.0010000  0  6G 2G 7G 8G 9G26G 4
   3790112.85949   2948027.00548  21669225.5214   21669223.7314
     -1464.7414      -1141.3574
   3110418.51249   2421462.97648  20914682.0124   20914679.2034
     -1481.0604      -1154.0724
  13450434.98449  10458818.29047  24288059.6184   24288062.4464
     -4287.6224      -3341.0044
  -6977613.58649  -5432536.29047  22583104.7294   22583102.6464
      1970.3764       1535.3584
   7491770.53549   5828194.39247  24007221.9604   24007222.3974
     -2758.3064      -2149.3294
  -9138797.56249  -7113997.32348  21897616.5094   21897615.3494
      2424.9804       1889.5954
 00  5  2 15 34 15.0010000  0  6G 2G 7G 8G 9G26G 4
   3812109.50049   2965167.22048  21673411.4904   21673408.9344
     -1468.0914      -1143.9674
   3132664.45749   2438797.47148  20918915.5204   20918912.4374
     -1485.0684      -1157.1964
  13514756.68849  10508938.96147  24300300.5354   24300302.8494
     -4288.4774      -3341.6704
  -7007128.18049  -5455534.67547  22577487.9774   22577486.0844
      1964.9514       1531.1314
   7533167.09049   5860451.41647  24015099.7394   24015099.6304
     -2761.1724      -2151.5624
  -9175133.98449  -7142311.38448  21890701.7774   21890701.4194
      2419.8834       1885.6234
 00  5  2 15 34 30.0010000  0  6G 2G 7G 8G 9G26G 4
   3834159.53949   2982349.06248  21677607.5334   21677605.2424
     -1471.7144      -1146.7904
   3154973.34049   2456181.00948  20923160.5194   20923157.9244
     -1489.2634      -1160.4644
  13579096.35249  10559073.63147  24312543.5624   24312546.3624
     -4289.7414      -3342.6554
  -7036557.55549  -5478466.65447  22571888.0324   22571886.0784
      1959.2194       1526.6644
   7574609.98449   5892744.52747  24022986.4244   24022986.2474
     -2764.1504      -2153.8834
  -9211390.43449  -7170563.12548  21883802.4474   21883801.6614
      2414.5124       1881.4384
 00  5  2 15 34 45.0010000  0  7G 2G 7G 8G 9G26G24G 4
   3856262.16849   2999571.87748  21681813.5414   21681811.0454
     -1475.3324      -1149.6094
   3177344.07049   2473612.73348  20927417.3334   20927414.6164
     -1493.5554      -1163.8094
  13643452.69549  10609221.26147  24324790.5724   24324793.0384
     -4291.1134      -3343.7254
  -7065902.24649  -5501332.62547  22566303.6124   22566301.5604
      1953.3894       1522.1214
   7616098.04749   5925072.84147  24030881.0084   24030880.6874
     -2767.5394      -2156.5244
    -60955.44159    -32107.18556  24530271.0494   24530276.0154
      3187.3394       2483.6404
  -9247567.44549  -7198752.97248  21876918.4464   21876917.5874
      2409.0234       1877.1614
 00  5  2 15 35  0.0010000  0  7G 2G 7G 8G 9G26G24G 4
   3878417.03549   3016835.39648  21686029.1254   21686027.2284
     -1478.8874      -1152.3794
   3199776.07449   2491092.21348  20931686.1724   20931683.1424
     -1497.6664      -1167.0124
  13707825.09449  10659381.44747  24337040.3224   24337042.7354
     -4292.1784      -3344.5544
  -7095162.47349  -5524132.80647  22560735.6174   22560733.2814
      1947.7934       1517.7614
   7657630.35249   5957435.64647  24038784.5974   24038784.5174
     -2770.4494      -2158.7924
   -108771.07849    -69365.91547  24521172.4714   24521176.5154
      3187.9444       2484.1124
  -9283665.02349  -7226880.92748  21870049.1714   21870048.2204
      2403.7164       1873.0254
 00  5  2 15 35 15.0010000  0  7G 2G 7G 8G 9G26G24G 4
   3900623.41449   3034139.04548  21690255.2804   21690252.8754
     -1482.1244      -1154.9024
   3222268.32449   2508618.63048  20935966.3474   20935963.4264
     -1501.4114      -1169.9314
  13772212.43449  10709553.27647  24349293.0064   24349295.4054
     -4292.9834      -3345.1824
  -7124338.65249  -5546867.48147  22555183.8534   22555181.7014
      1942.3104       1513.4884
   7699205.78549   5989832.03947  24046696.0574   24046695.9854
     -2773.0674      -2160.8314
   -156596.68049   -106632.43546  24512070.2604   24512075.3844
      3188.7064       2484.7064
  -9319683.68049  -7254947.37948  21863195.3774   21863194.2704
      2398.6384       1869.0684
 00  5  2 15 35 30.0010000  0  7G 2G 7G 8G 9G26G24G 4
   3922881.33249   3051482.86348  21694490.5624   21694487.9864
     -1485.6884      -1157.6794
   3244820.47349   2526191.71948  20940257.6934   20940255.0114
     -1505.5424      -1173.1504
  13836614.31649  10759736.43447  24361548.0894   24361550.8134
     -4294.0044      -3345.9774
  -7153430.64549  -5569536.56847  22549647.8484   22549645.4764
      1936.5974       1509.0364
   7740823.87949   6022261.69547  24054615.5804   24054615.6454
     -2776.0014      -2163.1184
   -204432.21549   -143906.66946  24502968.0034   24502971.8324
      3189.2434       2485.1254
  -9355623.30549  -7282952.25748  21856356.3184   21856355.2624
      2393.2964       1864.9064
 00  5  2 15 35 45.0010000  0  7G 2G 7G 8G 9G26G24G 4
   3945191.59049   3068867.47448  21698736.3974   21698733.9764
     -1489.1164      -1160.3504
   3267433.13349   2543811.97248  20944560.8344   20944558.7244
     -1509.5124      -1176.2434
  13901031.27049  10809931.31447  24373806.4834   24373809.0204
     -4294.9614      -3346.7234
  -7182437.37549  -5592139.20247  22544127.8144   22544125.7374
      1931.0114       1504.6844
   7782485.02749   6054724.87147  24062543.5834   24062543.7744
     -2778.8234      -2165.3174
   -252276.52749   -181187.75746  24493863.1814   24493867.1434
      3189.9804       2485.6994
  -9391482.58649  -7310894.51548  21849532.1794   21849531.2414
      2387.9644       1860.7514
 00  5  2 15 36  0.0010000  0  7G 2G 7G 8G 9G26G24G 4
   3967553.50449   3086292.33148  21702991.6164   21702989.4184
     -1492.5154      -1162.9984
   3290105.39549   2561478.65848  20948875.1664   20948872.3124
     -1513.4914      -1179.3444
  13965462.12549  10860137.04646  24386067.3904   24386069.6904
     -4295.8254      -3347.3964
  -7211359.29749  -5614675.75047  22538624.0214   22538622.1934
      1925.2984       1500.2324
   7824188.05949   6087220.70847  24070479.6844   24070479.8144
     -2781.5434      -2167.4364
   -300129.99649   -218475.97246  24484757.0334   24484760.9424
      3190.6834       2486.2474
  -9427262.15249  -7338774.66848  21842723.4684   21842722.7684
      2382.6514       1856.6114
 00  5  2 15 36 15.0010000  0  7G 2G 7G 8G 9G26G24G 4
   3989967.52749   3103757.79148  21707256.8644   21707255.1074
     -1496.1334      -1165.8184
   3312837.37149   2579191.88148  20953201.2774   20953198.4524
     -1517.5934      -1182.5404
  14029906.96949  10910353.64446  24398330.8214   24398333.6124
     -4296.9194      -3348.2494
  -7240195.81649  -5637145.74647  22533136.8134   22533134.2924
      1919.4634       1495.6854
   7865932.98049   6119749.14947  24078423.2534   24078423.0784
     -2784.5554      -2169.7834
   -347991.94549   -255770.77247  24475648.9654   24475653.2264
      3190.9484       2486.4534
  -9462961.00449  -7366591.91748  21835930.0164   21835929.1064
      2377.0704       1852.2634
 00  5  2 15 36 30.0010000  0  7G 2G 7G 8G 9G26G24G 4
   4012434.19949   3121264.26548  21711532.0294   21711530.0684
     -1499.2144      -1168.2194
   3335629.34049   2596951.85448  20957538.0254   20957535.4414
     -1521.1084      -1185.2794
  14094366.11349  10960581.41846  24410597.0864   24410599.6544
     -4297.4904      -3348.6944
  -7268946.19549  -5659548.64147  22527665.8104   22527663.7914
      1914.1364       1491.5344
   7907719.90649   6152310.36647  24086375.2564   24086375.2354
     -2786.9294      -2171.6334
   -395861.58249   -293071.60946  24466539.5124   24466543.2864
      3191.8554       2487.1604
  -9498578.41849  -7394345.71248  21829152.5054   21829151.7494
      2372.0704       1848.3664
 00  5  2 15 36 45.0010000  0  7G 2G 7G 8G 9G26G24G 4
   4034951.67249   3138810.33948  21715816.8324   21715814.5024
     -1502.9884      -1171.1604
   3358479.04749   2614756.80948  20961886.2004   20961883.8194
     -1525.3324      -1188.5714
  14158837.18049  11010818.44946  24422865.3034   24422868.5404
     -4298.6434      -3349.5924
  -7297612.19149  -5681885.77047  22522210.5914   22522208.5484
      1908.1644       1486.8814
   7949546.46149   6184902.44347  24094334.4964   24094334.6174
     -2789.9074      -2173.9544
   -443740.60949   -330379.76746  24457428.2954   24457432.0394
      3192.0954       2487.3474
  -9534116.13749  -7422037.41148  21822389.4834   21822388.6814
      2366.4314       1843.9724
 00  5  2 15 37  0.0010000  0  7G 2G 7G 8G 9G26G24G 4
   4057521.56349   3156397.25748  21720111.9054   21720109.9214
     -1506.3234      -1173.7584
   3381388.01249   2632607.94648  20966245.9044   20966243.0274
     -1529.1704      -1191.5614
  14223321.66849  11061065.99246  24435136.0604   24435139.7544
     -4299.3554      -3350.1474
  -7326191.81649  -5704155.60547  22516772.3254   22516770.3084
      1902.4904       1482.4604
   7991413.95749   6217526.43047  24102301.8834   24102301.3364
     -2792.5244      -2175.9934
   -491627.08249   -367693.71646  24448315.9514   24448319.6304
      3192.8024       2487.8984
  -9569572.07849  -7449665.38648  21815642.7154   21815641.5474
      2361.0454       1839.7754
 00  5  2 15 37 15.0010000  0  7G 2G 7G 8G 9G26G24G 4
   4080144.30549   3174025.35648  21724417.0504   21724414.9124
     -1510.0004      -1176.6234
   3404356.34449   2650505.34248  20970616.5464   20970613.6104
     -1533.2084      -1194.7084
  14287819.39549  11111323.78446  24447409.6194   24447413.2874
     -4300.2694      -3350.8594
  -7354684.50449  -5726357.69847  22511350.1964   22511348.3044
      1896.5774       1477.8524
   8033322.35549   6250182.29747  24110276.0014   24110276.9964
     -2795.3174      -2178.1694
   -539520.37949   -405012.99446  24439201.6154   24439205.7694
      3193.1204       2488.1464
  -9604945.57449  -7477229.11848  21808911.1304   21808910.1954
      2355.4104       1835.3854
 00  5  2 15 37 30.0010000  0  7G 2G 7G 8G 9G26G24G 4
   4102820.73049   3191695.29248  21728732.0484   21728730.0524
     -1513.3594      -1179.2414
   3427384.71549   2668449.51148  20974998.6524   20974995.9424
     -1536.9974      -1197.6604
  14352330.92249  11161592.31546  24459686.0584   24459689.3654
     -4300.9134      -3351.3614
  -7383089.23049  -5748491.22947  22505944.7194   22505942.8434
      1890.8844       1473.4164
   8075271.96949   6282870.26447  24118259.9924   24118259.1874
     -2797.7354      -2180.0534
   -587419.25049   -442336.61146  24430086.5504   24430090.7734
      3193.6084       2488.5264
  -9640235.47749  -7504727.71548  21802195.9814   21802194.7064
      2350.0344       1831.1954
 00  5  2 15 37 45.0010000  0  7G 2G 7G 8G 9G26G24G 4
   4125549.06349   3209405.66748  21733057.3214   21733055.1574
     -1516.7974      -1181.9204
   3450471.02049   2686438.84148  20979391.9534   20979389.2534
     -1540.9234      -1200.7194
  14416854.29749  11211870.16446  24471964.4484   24471967.5414
     -4301.8954      -3352.1264
  -7411407.44549  -5770557.36547  22500556.3044   22500554.4454
      1885.0984       1468.9074
   8117260.75049   6315588.73847  24126250.2964   24126249.8754
     -2800.4394      -2182.1604
   -635325.25449   -479665.74546  24420970.4664   24420974.1404
      3194.0434       2488.8654
  -9675443.20349  -7532162.26848  21795496.1804   21795494.9534
      2344.5214       1826.9004
 00  5  2 15 38  0.0010000  0  7G 2G 7G 8G 9G26G24G 4
   4148329.27349   3227156.46748  21737392.1064   21737389.9474
     -1520.5224      -1184.8234
   3473614.94549   2704473.05948  20983796.0624   20983793.0984
     -1545.0004      -1203.8964
  14481389.00449  11262156.81346  24484245.7734   24484247.8534
     -4302.6814      -3352.7384
  -7439639.03549  -5792556.00247  22495184.1954   22495181.6524
      1879.0974       1464.2314
   8159288.02349   6348337.19047  24134247.1204   24134247.0024
     -2803.2474      -2184.3484
   -683238.28949   -517000.38046  24411852.7524   24411856.6064
      3194.3564       2489.1084
  -9710568.55549  -7559532.64248  21788812.0274   21788811.2534
      2338.8044       1822.4444
 00  5  2 15 38 15.0010000  0  7G 2G 7G 8G 9G26G24G 4
   4171164.76249   3244950.33948  21741737.5744   21741735.5784
     -1524.1754      -1187.6694
   3496819.67249   2722554.64848  20988211.7944   20988209.0734
     -1548.9604      -1206.9824
  14545938.03549  11312454.59446  24496528.1904   24496532.0424
     -4303.5064      -3353.3814
  -7467780.24649  -5814484.21047  22489828.8224   22489826.5814
      1873.1104       1459.5674
   8201356.93449   6381118.12647  24142252.6074   24142252.2404
     -2805.8794      -2186.3994
   -731154.60949   -554337.60646  24402734.5054   24402738.2324
      3194.5024       2489.2224
  -9745607.91849  -7586836.01248  21782144.0874   21782142.6914
      2333.1354       1818.0274
 00  5  2 15 38 30.0010000  0  7G 2G 7G 8G 9G26G24G 4
   4194053.57849   3262785.76348  21746093.3754   21746091.1074
     -1527.7494      -1190.4544
   3520082.90649   2740681.84448  20992638.6894   20992635.9694
     -1552.8964      -1210.0484
  14610499.22349  11362761.89446  24508814.5244   24508817.1904
     -4304.6144      -3354.2454
  -7495832.87949  -5836343.40148  22484490.4004   22484488.3354
      1867.1534       1454.9254
   8243464.99249   6413929.55747  24150265.5264   24150265.2904
     -2808.5554      -2188.4844
   -779076.02749   -591678.79446  24393615.3384   24393618.8134
      3194.8394       2489.4854
  -9780562.86749  -7614073.61348  21775492.5084   21775491.3024
      2327.4904       1813.6294
 00  5  2 15 38 45.0010000  0  7G 2G 7G 8G 9G26G24G 4
   4216997.59049   3280664.20748  21750459.4354   21750457.4304
     -1531.3334      -1193.2464
   3543406.28949   2758855.90148  20997076.7964   20997073.8744
     -1556.7774      -1213.0734
  14675073.80949  11413079.61846  24521102.4994   24521105.0634
     -4305.4304      -3354.8804
  -7523794.96549  -5858132.03047  22479169.7194   22479167.5334
      1861.2014       1450.2874
   8285613.55549   6446772.53647  24158286.4624   24158286.1114
     -2811.2114      -2190.5544
   -827000.31649   -629022.20746  24384494.4434   24384498.7794
      3195.2204       2489.7824
  -9815431.38349  -7641243.84748  21768857.3684   21768856.1264
      2321.6944       1809.1124
 00  5  2 15 39  0.0010000  0  7G 2G 7G 8G 9G26G24G 4
   4239995.95749   3298584.99348  21754836.0654   21754833.6744
     -1535.1464      -1196.2184
   3566788.69549   2777075.95048  21001526.2784   21001523.6674
     -1560.8454      -1216.2434
  14739660.81649  11463406.96746  24533393.9894   24533396.3954
     -4306.2264      -3355.5004
  -7551667.16049  -5879850.62048  22473865.7104   22473863.5244
      1855.1034       1445.5344
   8327801.41849   6479646.16147  24166314.3154   24166314.3914
     -2813.9754      -2192.7074
   -874928.12149   -666368.39946  24375375.0864   24375377.9684
      3195.3134       2489.8544
  -9850213.97749  -7668347.13248  21762238.2434   21762237.2154
      2315.9184       1804.6114
 00  5  2 15 39 15.0010000  0  7G 2G 7G 8G 9G26G24G 4
   4263047.70749   3316547.39048  21759222.5504   21759220.3844
     -1538.7214      -1199.0034
   3590228.87949   2795341.01348  21005986.8894   21005983.9504
     -1564.7854      -1219.3134
  14804258.76249  11513742.98446  24545687.2434   24545688.6344
     -4307.0174      -3356.1174
  -7579450.22349  -5901499.74648  22468578.8494   22468576.5254
      1849.0634       1440.8284
   8370027.07849   6512549.21547  24174349.5914   24174350.0304
     -2816.4114      -2194.6064
   -922860.14549   -703717.84846  24366253.4664   24366256.9464
      3195.4444       2489.9564
  -9884911.35949  -7695384.02748  21755635.6894   21755633.9584
      2310.1464       1800.1144
 00  5  2 15 39 30.0010000  0  7G 2G 7G 8G 9G26G24G 4
   4286153.22349   3334551.66548  21763619.1944   21763617.4454
     -1542.1534      -1201.6784
   3613726.88749   2813651.14248  21010458.6504   21010455.5744
     -1568.5014      -1222.2084
  14868867.64149  11564087.44046  24557981.0464   24557984.0704
     -4307.5984      -3356.5704
  -7607143.67649  -5923079.04548  22463308.8194   22463306.6494
      1843.2084       1436.2664
   8412290.49649   6545481.71447  24182391.7234   24182392.0604
     -2818.8624      -2196.5164
   -970795.82849   -741070.16646  24357131.5634   24357134.7234
      3195.8114       2490.2424
  -9919522.91049  -7722354.04148  21749049.2794   21749048.0024
      2304.6194       1795.8074
 00  5  2 15 39 45.0010000  0  7G 2G 7G 8G 9G26G24G 4
   4309312.98849   3352598.23348  21768026.0174   21768024.0594
     -1545.8844      -1204.5854
   3637283.03149   2832006.57348  21014940.8694   21014937.9914
     -1572.5204      -1225.3404
  14933487.71549  11614440.56647  24570278.0484   24570281.2274
     -4308.4334      -3357.2204
  -7634746.66049  -5944587.86048  22458055.9954   22458054.0744
      1837.0704       1431.4834
   8454591.73849   6578443.64447  24190441.8824   24190441.9644
     -2821.3914      -2198.4874
  -1018734.29749   -778424.60246  24348008.4484   24348012.0034
      3195.7964       2490.2304
  -9954047.84049  -7749256.54948  21742479.1324   21742478.1694
      2298.6674       1791.1694
 00  5  2 15 40  0.0010000  0  7G 2G 7G 8G 9G26G24G 4
   4332526.32849   3370686.54548  21772444.0304   21772441.2384
     -1549.4344      -1207.3514
   3660896.37549   2850406.57348  21019434.4114   21019431.8314
     -1576.2354      -1228.2354
  14998117.98449  11664801.69647  24582577.3574   24582580.4484
     -4309.0484      -3357.7004
  -7662259.75849  -5966026.62548  22452820.3634   22452818.5564
      1831.0894       1426.8224
   8496929.67649   6611434.21847  24198498.9774   24198498.9124
     -2823.8234      -2200.3824
  -1066676.09049   -815781.67646  24338885.2034   24338889.2554
      3196.0064       2490.3944
  -9988486.46949  -7776091.81848  21735925.5924   21735924.8474
      2292.9394       1786.7064
 00  5  2 15 40 15.0010000  0  7G 2G 7G 8G 9G26G24G 4
   4355794.90649   3388817.88548  21776871.7064   21776869.2514
     -1553.0134      -1210.1404
   3684568.28949   2868852.21348  21023938.9934   21023936.6144
     -1580.0834      -1231.2344
  15062759.68849  11715171.71247  24594878.4224   24594881.1614
     -4309.8344      -3358.3124
  -7689681.03549  -5987393.84647  22447602.4954   22447599.9954
      1825.0004       1422.0784
   8539305.52749   6644454.31447  24206562.2424   24206562.2624
     -2826.2554      -2202.2774
  -1114619.21149   -853139.76446  24329763.3874   24329765.9244
      3196.1674       2490.5204
 -10022836.90649  -7802858.36248  21729389.0254   21729388.2324
      2287.1294       1782.1784
 00  5  2 15 40 30.0010000  0  7G 2G 7G 8G 9G26G24G 4
   4379117.54749   3406991.35048  21781309.7324   21781307.3864
     -1556.5284      -1212.8794
   3708297.29749   2887342.33948  21028454.5174   21028451.8494
     -1583.6964      -1234.0494
  15127411.26249  11765549.43247  24607180.8124   24607183.9374
     -4310.3174      -3358.6894
  -7717011.43049  -6008690.24548  22442401.5564   22442399.4194
      1819.1074       1417.4864
   8581717.75049   6677502.74547  24214632.7594   24214633.5024
     -2828.5254      -2204.0464
  -1162564.60949   -890499.66446  24320638.5074   24320642.0414
      3196.5434       2490.8134
 -10057100.12549  -7829556.94948  21722868.9004   21722867.6494
      2281.4504       1777.7534
 00  5  2 15 40 45.0010000  0  7G 2G 7G 8G 9G26G24G 4
   4402492.24649   3425205.39648  21785757.9894   21785755.9334
     -1560.0984      -1215.6614
   3732081.12549   2905875.18348  21032980.4544   21032977.6354
     -1587.5194      -1237.0284
  15192070.30549  11815932.93047  24619485.4854   24619488.8754
     -4310.8694      -3359.1194
  -7744252.78149  -6029917.27148  22437217.7034   22437215.4204
      1812.9984       1412.7264
   8624163.80549   6710577.56447  24222710.4814   24222710.7184
     -2830.8944      -2205.8914
  -1210514.01249   -927862.66546  24311513.6124   24311517.1554
      3196.7484       2490.9734
 -10091277.68749  -7856188.79048  21716365.3654   21716363.8834
      2275.6154       1773.2074
 00  5  2 15 41  0.0010000  0  7G 2G 7G 8G 9G26G24G 4
   4425918.69949   3443459.76448  21790215.8364   21790213.8964
     -1563.4474      -1218.2714
   3755919.31349   2924450.38348  21037516.7814   21037514.2004
     -1591.0214      -1239.7564
  15256736.17649  11866321.79247  24631790.5444   24631794.1924
     -4311.2164      -3359.3894
  -7771405.07849  -6051074.89948  22432051.0154   22432048.7804
      1807.2224       1408.2254
   8666642.94149   6743678.12347  24230794.0504   24230794.0274
     -2832.8614      -2207.4244
  -1258467.44149   -965228.81146  24302388.4614   24302392.3124
      3197.1444       2491.2814
 -10125369.74249  -7882753.99848  21709877.9974   21709876.6054
      2270.0054       1768.8354
 00  5  2 15 41 15.0010000  0  7G 2G 7G 8G 9G26G24G 4
   4449398.71149   3461755.86448  21794683.8034   21794681.6804
     -1567.2804      -1221.2574
   3779813.31649   2943069.08548  21042063.6814   21042060.7644
     -1594.9324      -1242.8044
  15321410.48049  11916717.16547  24644098.3194   24644101.6344
     -4311.9294      -3359.9444
  -7798466.36349  -6072161.60448  22426901.3704   22426899.0534
      1800.9284       1403.3204
   8709156.60249   6776805.58447  24238884.1924   24238884.6404
     -2835.4544      -2209.4454
  -1306422.89849  -1002596.53746  24293262.2984   24293266.3304
      3196.8854       2491.0794
 -10159374.19549  -7909250.94348  21703406.6094   21703405.4534
      2263.9114       1764.0874
 00  5  2 15 41 30.0010000  0  7G 2G 7G 8G 9G26G24G 4
   4472930.84449   3480092.57448  21799161.9554   21799159.7174
     -1570.6694      -1223.8984
   3803761.46949   2961729.96748  21046621.0744   21046617.9564
     -1598.3944      -1245.5014
  15386091.27749  11967117.59747  24656406.5394   24656410.3184
     -4312.3444      -3360.2684
  -7825437.87149  -6093178.35148  22421768.9694   22421766.5884
      1795.0444       1398.7364
   8751702.82449   6809958.43247  24246979.8514   24246981.3344
     -2837.6024      -2211.1194
  -1354381.55949  -1039966.79646  24284136.9984   24284139.6974
      3197.3004       2491.4024
 -10193292.18749  -7935680.52748  21696952.4174   21696950.9954
      2258.1844       1759.6244
 00  5  2 15 41 45.0010000  0  7G 2G 7G 8G 9G26G24G 4
   4496515.03949   3498469.85648  21803649.9604   21803647.9224
     -1574.0284      -1226.5154
   3827763.44949   2980432.80048  21051188.3124   21051185.5974
     -1601.9824      -1248.2984
  15450778.23449  12017522.91047  24668715.5474   24668719.4774
     -4312.8034      -3360.6264
  -7852319.40649  -6114124.99848  22416653.4154   22416651.1854
      1789.0974       1394.1014
   8794281.18049   6843136.34547  24255082.4414   24255083.2204
     -2839.6874      -2212.7444
  -1402343.21949  -1077339.31746  24275009.6694   24275012.6324
      3197.5344       2491.5854
 -10227123.48049  -7962042.54448  21690514.4594   21690512.8664
      2252.5054       1755.1994
 00  5  2 15 42  0.0010000  0  7G 2G 7G 8G 9G26G24G 4
   4520150.11349   3516886.78248  21808147.3604   21808145.2644
     -1577.4804      -1229.2054
   3851817.79349   2999176.44548  21055765.9094   21055762.7754
     -1605.4744      -1251.0184
  15515469.73449  12067931.72147  24681026.6724   24681030.2484
     -4312.9794      -3360.7624
  -7879111.98849  -6135002.32548  22411554.8064   22411552.7494
      1783.1844       1389.4944
   8836890.02349   6876337.97547  24263191.2104   24263191.6564
     -2841.7684      -2214.3644
  -1450308.84449  -1114714.95346  24265882.1954   24265885.3124
      3197.8134       2491.8024
 -10260869.12149  -7988337.81848  21684092.9564   21684091.6804
      2246.7434       1750.7094
 00  5  2 15 42 15.0010000  0  7G 2G 7G 8G 9G26G24G 4
   4543837.96149   3535344.82148  21812655.1464   21812652.5374
     -1581.0164      -1231.9604
   3875926.07849   3017962.10848  21060353.4004   21060350.5624
     -1609.0774      -1253.8264
  15580167.21549  12118345.18647  24693338.5244   24693341.9424
     -4313.3304      -3361.0364
  -7905813.61349  -6155808.77448  22406473.8854   22406471.7354
      1776.9974       1384.6734
   8879530.73449   6909564.42747  24271305.1884   24271305.3184
     -2843.8724      -2216.0044
  -1498276.21549  -1152091.97946  24256753.6574   24256757.7394
      3197.9544       2491.9124
 -10294526.87949  -8014564.62648  21677687.7744   21677686.5704
      2240.8744       1746.1364
 00  5  2 15 42 30.0010000  0  7G 2G 7G 8G 9G26G24G 4
   4567578.70349   3553844.08548  21817172.5154   21817170.7894
     -1584.4144      -1234.6084
   3900088.15649   3036789.68848  21064951.1414   21064948.4554
     -1612.5444      -1256.5284
  15644870.58649  12168763.21547  24705651.2924   24705654.8454
     -4313.6044      -3361.2494
  -7932423.95349  -6176544.09648  22401409.8584   22401407.7024
      1771.0214       1380.0164
   8922202.96549   6942815.46647  24279425.6344   24279426.1244
     -2845.8594      -2217.5534
  -1546244.96549  -1189470.06946  24247625.4774   24247628.8344
      3197.9004       2491.8704
 -10328096.20349  -8040722.51048  21671299.8644   21671298.7764
      2235.1074       1741.6424
 00  5  2 15 42 45.0010000  0  7G 2G 7G 8G 9G26G24G 4
   4591371.16049   3572383.66148  21821700.2464   21821698.2324
     -1587.7594      -1237.2154
   3924302.59849   3055658.07648  21069559.2404   21069556.5924
     -1615.9424      -1259.1764
  15709578.25049  12219184.64446  24717964.3914   24717968.1374
     -4313.7654      -3361.3754
  -7958943.94549  -6197209.01948  22396363.2184   22396361.4944
      1765.0784       1375.3864
   8964905.16449   6976089.84947  24287551.5514   24287552.2594
     -2847.7204      -2219.0034
  -1594216.14549  -1226850.07647  24238497.5394   24238500.1134
      3198.3644       2492.2324
 -10361578.27349  -8066812.41148  21664928.6834   21664927.3674
      2229.3164       1737.1304
 00  5  2 15 43  0.0010000  0  7G 2G 7G 8G 9G26G24G 4
   4615216.41049   3590964.35848  21826237.7304   21826235.9564
     -1591.3724      -1240.0304
   3948570.22749   3074567.91448  21074176.7554   21074174.3914
     -1619.5704      -1262.0034
  15774291.00849  12269609.98746  24730279.0334   24730282.8484
     -4314.2584      -3361.7594
  -7985372.27349  -6217802.52148  22391334.0674   22391331.9574
      1758.7404       1370.4474
   9007638.00849   7009388.11847  24295683.4734   24295684.2194
     -2849.9024      -2220.7034
  -1642188.15649  -1264230.68847  24229368.6124   24229371.1704
      3198.1354       2492.0534
 -10394971.62149  -8092833.18948  21658574.1184   21658572.6324
      2223.3064       1732.4464
 00  5  2 15 43 15.0010000  0  7G 2G 7G 8G 9G26G24G 4
   4639116.21949   3609587.56748  21830786.1124   21830784.0524
     -1595.1174      -1242.9484
   3972892.58249   3093520.39048  21078805.2874   21078802.8994
     -1623.2864      -1264.8984
  15839010.23048  12320040.33046  24742593.6424   24742598.8764
     -4314.7224      -3362.1214
  -8011706.95749  -6238323.04248  22386322.7804   22386320.3914
      1752.4904       1365.5774
   9050402.72349   7042711.19747  24303821.4654   24303821.6254
     -2851.9534      -2222.3014
  -1690159.20349  -1301610.56347  24220239.0444   24220242.3894
      3197.8374       2491.8214
 -10428274.12549  -8118783.17348  21652236.3604   21652235.3874
      2217.1244       1727.6294
 00  5  2 15 43 30.0010000  0  7G 2G 7G 8G 9G26G24G 4
   4663068.30949   3628251.50648  21835343.8714   21835341.8654
     -1598.5204      -1245.6004
   3997266.98049   3112513.41448  21083443.7784   21083440.9394
     -1626.6944      -1267.5544
  15903733.25448  12370473.74046  24754910.9704   24754914.8514
     -4314.9764      -3362.3194
  -8037950.15649  -6258772.28248  22381329.0464   22381326.4894
      1746.5384       1360.9394
   9093196.58649   7076057.02547  24311965.2654   24311965.3454
     -2853.7944      -2223.7364
  -1738131.37149  -1338991.34247  24211110.3274   24211113.4164
      3198.3014       2492.1824
 -10461487.99649  -8144664.08648  21645916.0834   21645914.9204
      2211.2654       1723.0634
 00  5  2 15 43 45.0010000  0  7G 2G 7G 8G 9G26G24G 4
   4687073.55949   3646956.88748  21839912.0874   21839909.9684
     -1602.1734      -1248.4464
   4021694.15649   3131547.57248  21088092.2464   21088089.5234
     -1630.2444      -1270.3204
  15968460.50848  12420910.33246  24767229.2124   24767233.0184
     -4315.1904      -3362.4864
  -8064100.77349  -6279149.38048  22376352.6474   22376350.1214
      1740.2204       1356.0154
   9136019.95349   7109425.83647  24320113.3374   24320114.2064
     -2855.8404      -2225.3304
  -1786103.34849  -1376371.94947  24201981.5014   24201984.4484
      3198.1204       2492.0424
 -10494611.96949  -8170474.94448  21639613.1764   21639611.7784
      2205.2294       1718.3614
 00  5  2 15 44  0.0010000  0  7G 2G 7G 8G 9G26G24G 4
   4711132.15249   3665703.83248  21844490.3894   21844488.2864
     -1605.8844      -1251.3384
   4046173.90649   3150622.69148  21092750.3784   21092747.7614
     -1633.9064      -1273.1744
  16033191.96148  12471350.22246  24779546.9474   24779550.8844
     -4315.6544      -3362.8484
  -8090158.52349  -6299454.10948  22371393.8084   22371391.8264
      1733.9214       1351.1074
   9178872.69149   7142817.49447  24328268.9624   24328268.9354
     -2857.9204      -2226.9504
  -1834074.82449  -1413752.19547  24192853.6364   24192855.8594
      3197.7784       2491.7754
 -10527645.69949  -8196215.49148  21633326.5874   21633325.6314
      2199.0774       1713.5674
 00  5  2 15 44 15.0010000  0  7G 2G 7G 8G 9G26G24G 4
   4735245.68449   3684493.57848  21849079.0954   21849076.6554
     -1609.2244      -1253.9404
   4070707.78949   3169739.99548  21097419.2184   21097416.4784
     -1637.2614      -1275.7884
  16097928.78148  12521794.29346  24791865.2014   24791870.2524
     -4315.9814      -3363.1024
  -8116121.56249  -6319685.04848  22366453.1964   22366451.3194
      1727.8764       1346.3974
   9221755.98449   7176233.00047  24336429.7144   24336429.7464
     -2859.6784      -2228.3204
  -1882043.74649  -1451130.44947  24183724.6144   24183727.6414
      3198.0084       2491.9544
 -10560587.09849  -8221884.08948  21627058.2194   21627057.0364
      2193.1494       1708.9484
 00  5  2 15 44 30.0010000  0  6G 2G 7G 9G26G24G 4
   4759411.10949   3703323.75948  21853677.6004   21853675.5244
     -1612.9054      -1256.8094
   4095292.42249   3188896.84548  21102097.3344   21102094.3934
     -1640.8114      -1278.5544
  -8141992.60549  -6339844.28948  22361530.1504   22361528.1294
      1721.5244       1341.4474
   9264666.36349   7209669.62047  24344595.1164   24344595.0914
     -2861.6754      -2229.8764
  -1930013.00849  -1488508.94847  24174595.9004   24174598.8894
      3197.9444       2491.9054
 -10593439.07849  -8247483.00948  21620806.8864   21620805.7984
      2186.9824       1704.1424
 00  5  2 15 44 45.0010000  0  6G 2G 7G 9G26G24G 4
   4783631.22749   3722196.55548  21858286.4264   21858284.4134
     -1616.4894      -1259.6024
   4119930.27049   3208095.15248  21106786.0444   21106783.1254
     -1644.2684      -1281.2474
  -8167768.66449  -6359929.52548  22356625.3354   22356623.4094
      1715.2784       1336.5814
   9307606.11349   7243129.13847  24352765.8724   24352766.0534
     -2863.5164      -2231.3114
  -1977979.53949  -1525885.33547  24165468.1884   24165471.3074
      3197.7004       2491.7144
 -10626198.53149  -8273009.82648  21614572.6834   21614571.8154
      2180.9334       1699.4284
 00  5  2 15 45  0.0010000  0  6G 2G 7G 9G26G24G 4
   4807906.39549   3741112.25048  21862905.7894   21862904.0864
     -1620.2104      -1262.5014
   4144621.44949   3227335.03248  21111484.2774   21111481.6494
     -1647.8224      -1284.0174
  -8193449.25449  -6379940.36848  22351738.4364   22351736.0454
      1708.9014       1331.6114
   9350575.19949   7276611.45247  24360942.7934   24360943.3784
     -2865.6354      -2232.9624
  -2025942.64149  -1563259.02647  24156340.9334   24156343.5674
      3197.4224       2491.4984
 -10658864.92249  -8298464.14048  21608356.7494   21608355.0754
      2174.6194       1694.5084
 00  5  2 15 45 15.0010000  0  6G 2G 7G 9G26G24G 4
   4832236.86349   3760071.03148  21867536.1074   21867533.9674
     -1623.8574      -1265.3434
   4169365.98449   3246616.47448  21116193.1034   21116190.3724
     -1651.3774      -1286.7874
  -8219033.95349  -6399876.48548  22346869.4994   22346867.4824
      1702.5494       1326.6624
   9393573.36749   7310116.45847  24369125.0784   24369125.0804
     -2867.4904      -2234.4084
  -2073901.92649  -1600629.74347  24147214.7204   24147217.4154
      3197.1344       2491.2734
 -10691437.55549  -8323845.39748  21602158.1744   21602156.8954
      2168.4134       1689.6734
 00  5  2 15 45 30.0010000  0  6G 2G 7G 9G26G24G 4
   4856622.15249   3779072.54348  21872176.2494   21872173.6984
     -1627.4124      -1268.1134
   4194163.13749   3265938.91548  21120912.1814   21120909.7044
     -1654.8144      -1289.4664
  -8244523.00049  -6419738.07348  22342019.6934   22342017.1274
      1696.1524       1321.6774
   9436599.69549   7343643.42647  24377312.8174   24377313.3554
     -2869.3024      -2235.8204
  -2121857.68449  -1637997.74247  24138088.9744   24138091.3854
      3197.0264       2491.1894
 -10723916.87549  -8349153.92148  21595977.6594   21595976.4884
      2162.2854       1684.8984
 00  5  2 15 45 45.0010000  0  6G 2G 7G 9G26G24G 4
   4881061.03149   3798115.80648  21876826.5904   21876824.6314
     -1631.1674      -1271.0394
   4219011.27749   3285301.09148  21125640.4514   21125637.7714
     -1658.3014      -1292.1824
  -8269917.49649  -6439525.99048  22337187.3884   22337184.9154
      1689.6834       1316.6364
   9479652.50049   7377190.95847  24385505.6494   24385506.4204
     -2871.1524      -2237.2624
  -2169810.79749  -1675363.69247  24128963.6664   24128966.2624
      3196.6954       2490.9314
 -10756303.79749  -8374390.46648  21589814.3184   21589813.0954
      2155.9624       1679.9704
 00  5  2 15 46  0.0010000  0  6G 2G 7G 9G26G24G 4
   4905555.39849   3817202.31748  21881487.5224   21881485.8084
     -1634.7614      -1273.8404
   4243912.27349   3304704.45748  21130379.2814   21130376.1414
     -1661.7874      -1294.8994
  -8295215.23449  -6459238.50348  22332372.6344   22332370.8764
      1683.3694       1311.7164
   9522733.27349   7410760.37447  24393703.4134   24393704.0774
     -2872.8914      -2238.6164
  -2217758.98049  -1712725.79547  24119839.8844   24119842.3824
      3196.3724       2490.6804
 -10788596.04749  -8399553.23348  21583669.6624   21583668.1554
      2149.6634       1675.0624
 00  5  2 15 46 15.0010000  0  6G 2G 7G 9G26G24G 4
   4930105.22749   3836332.02748  21886159.5914   21886157.3554
     -1638.4134      -1276.6864
   4268865.68049   3324148.65448  21135127.5444   21135125.1474
     -1665.1904      -1297.5514
  -8320415.98849  -6478875.45248  22327577.1594   22327575.3404
      1676.9434       1306.7094
   9565841.69949   7444351.30947  24401906.6144   24401907.6144
     -2874.6534      -2239.9904
  -2265702.16049  -1750083.98246  24110715.9414   24110718.7784
      3196.1434       2490.5014
 -10820793.48049  -8424642.12348  21577542.6494   21577541.4704
      2143.4864       1670.2494
 00  5  2 15 46 30.0010000  0  6G 2G 7G 9G26G24G 4
   4954709.14849   3855503.88848  21890841.5574   21890839.6644
     -1642.0954      -1279.5544
   4293870.09049   3343632.60948  21139885.5534   21139883.3404
     -1668.6524      -1300.2494
  -8345521.00049  -6498437.78348  22322800.2074   22322798.1174
      1670.4444       1301.6454
   9608975.77749   7477962.18847  24410114.9124   24410115.3394
     -2876.4754      -2241.4094
  -2313641.28149  -1787439.04647  24101593.7594   24101596.2374
      3195.8114       2490.2424
 -10852896.96149  -8449657.79648  21571433.3264   21571432.4404
      2137.0754       1665.2534
 00  5  2 15 46 45.0010000  0  6G 2G 7G 9G26G24G 4
   4979366.77749   3874717.61048  21895533.7524   21895532.0354
     -1645.6744      -1282.3434
   4318924.72349   3363155.68648  21144652.9214   21144650.3204
     -1672.0314      -1302.8814
  -8370530.36349  -6517925.59748  22318041.2004   22318038.8314
      1664.0924       1296.6954
   9652134.85549   7511592.60347  24418327.4034   24418328.3094
     -2878.1154      -2242.6874
  -2361576.48849  -1824791.00446  24092472.0464   24092473.9764
      3195.5524       2490.0404
 -10884906.80949  -8474600.50848  21565342.1124   21565341.1164
      2130.8064       1660.3684
 00  5  2 15 47  0.0010000  0  6G 2G 7G 9G26G24G 4
   5004077.48449   3893972.68348  21900235.6884   21900233.6934
     -1649.2094      -1285.0984
   4344028.51249   3382717.06748  21149430.3674   21149427.4464
     -1675.2344      -1305.3774
  -8395444.54749  -6537339.24148  22313299.7994   22313297.6624
      1657.7204       1291.7304
   9695317.70349   7545241.51847  24426545.7864   24426546.1724
     -2879.5944      -2243.8404
  -2409508.24249  -1862140.32546  24083350.7934   24083352.8924
      3195.3224       2489.8624
 -10916823.31649  -8499470.49748  21559268.4754   21559267.3294
      2124.6094       1655.5404
 00  5  2 15 47 15.0010000  0  6G 2G 7G 9G26G24G 4
   5028842.00849   3913269.69848  21904948.8054   21904946.6914
     -1652.5934      -1287.7354
   4369182.11749   3402317.27448  21154217.1424   21154214.5214
     -1678.2914      -1307.7594
  -8420262.66849  -6556678.02348  22308577.2434   22308574.7204
      1651.5334       1286.9094
   9738524.66449   7578909.21247  24434767.4564   24434767.8984
     -2880.9524      -2244.8984
  -2457435.57049  -1899486.19246  24074229.5594   24074231.9234
      3195.2104       2489.7744
 -10948645.61349  -8524267.06648  21553212.9264   21553211.4954
      2118.5404       1650.8104
 00  5  2 15 47 30.0010000  0  6G 2G 7G 9G26G24G 4
   5053660.41049   3932608.70048  21909671.1514   21909669.0504
     -1656.4014      -1290.7024
   4394385.32449   3421956.12648  21159012.9344   21159010.1334
     -1681.8604      -1310.5414
  -8444984.49649  -6575941.77248  22303873.1224   22303870.7564
      1644.9514       1281.7804
   9781755.26649   7612595.34447  24442993.8724   24442994.1404
     -2882.8174      -2246.3514
  -2505358.05149  -1936828.26446  24065110.7494   24065112.7494
      3194.6584       2489.3444
 -10980373.35549  -8548989.96248  21547175.4554   21547173.9124
      2112.0614       1645.7614
 00  5  2 15 47 45.0010000  0  6G 2G 7G 9G26G24G 4
   5078533.10949   3951990.00348  21914404.4824   21914402.2564
     -1660.0494      -1293.5454
   4419638.24249   3441633.72148  21163818.4264   21163815.7234
     -1685.2004      -1313.1434
  -8469609.34849  -6595129.96848  22299186.6454   22299184.9244
      1638.4334       1276.7014
   9825009.66449   7646299.99347  24451225.0584   24451225.6414
     -2884.4824      -2247.6494
  -2553275.03549  -1974166.06146  24055992.0884   24055994.7834
      3194.1894       2488.9794
 -11012005.89849  -8573638.67148  21541155.9364   21541154.4094
      2105.6254       1640.7474
 00  5  2 15 48  0.0010000  0  6G 2G 7G 9G26G24G 4
   5103461.14549   3971414.41748  21919148.6184   21919146.0164
     -1663.7654      -1296.4404
   4444941.64549   3461350.63648  21168633.3534   21168631.0514
     -1688.6044      -1315.7954
  -8494136.17649  -6614241.77448  22294519.4154   22294517.4684
      1631.7634       1271.5034
   9868288.30549   7680023.57847  24459460.7284   24459461.2294
     -2886.1134      -2248.9194
  -2601185.32049  -2011498.63346  24046875.0564   24046877.1204
      3193.8484       2488.7124
 -11043541.85949  -8598212.12948  21535154.8184   21535153.5614
      2099.1464       1635.6984
 00  5  2 15 48 15.0010000  0  6G 2G 7G 9G26G24G 4
   5128445.87149   3990883.02148  21923902.4754   21923900.4274
     -1667.6174      -1299.4424
   4470296.64849   3481107.77348  21173458.6224   21173455.9724
     -1692.1484      -1318.5574
  -8518563.35949  -6633275.93548  22289871.2804   22289869.2764
      1625.0494       1266.2724
   9911592.06349   7713766.71147  24467701.4064   24467701.4314
     -2887.7934      -2250.2284
  -2649087.15649  -2048824.65347  24037759.9794   24037761.8474
      3193.1054       2488.1344
 -11074979.69149  -8622709.12548  21529172.4094   21529171.0084
      2092.4664       1630.4934
 00  5  2 15 48 30.0010000  0  6G 2G 7G 9G26G24G 4
   5153486.66849   4010395.31548  21928667.2784   21928665.9014
     -1671.0794      -1302.1404
   4495702.30949   3500904.37748  21178293.0724   21178290.3314
     -1695.2304      -1320.9584
  -8542891.30949  -6652232.77048  22285241.6524   22285239.9934
      1618.7454       1261.3604
   9954919.98849   7747528.64247  24475946.3634   24475947.1214
     -2889.2384      -2251.3554
  -2696981.00449  -2086144.40246  24028645.4024   24028647.7744
      3192.9154       2487.9864
 -11106319.79349  -8647129.95948  21523208.4304   21523206.8514
      2086.2794       1625.6724
 00  5  2 15 48 45.0010000  0  6G 2G 7G 9G26G24G 4
   5178582.29349   4029950.33448  21933443.2164   21933441.4014
     -1674.7904      -1305.0314
   4521157.25849   3520739.38748  21183137.1214   21183134.3414
     -1698.6084      -1323.5914
  -8567120.93449  -6671112.98748  22280630.9514   22280629.1344
      1612.0954       1256.1784
   9998270.39849   7781308.13446  24484195.6834   24484196.4764
     -2890.8204      -2252.5874
  -2744867.69149  -2123458.61746  24019533.1284   24019535.4974
      3192.1294       2487.3734
 -11137562.95349  -8671475.25948  21517262.8174   21517261.4924
      2079.6634       1620.5174
 00  5  2 15 49  0.0010000  0  6G 2G 7G 9G26G24G 4
   5203733.79749   4049548.88748  21938229.5224   21938227.0924
     -1678.7164      -1308.0904
   4546662.25849   3540613.40448  21187990.4994   21187987.4784
     -1702.0264      -1326.2544
  -8591251.05149  -6689915.67048  22276039.3404   22276036.7594
      1605.3134       1250.8934
  10041643.91849   7815105.63247  24492448.9924   24492449.5514
     -2892.3094      -2253.7484
  -2792746.07449  -2160766.34946  24010421.8484   24010423.8484
      3191.5774       2486.9434
 -11168707.93049  -8695744.05848  21511336.5244   21511335.0824
      2073.0084       1615.3314
 00  5  2 15 49 15.0010000  0  6G 2G 7G 9G26G24G 4
   5228941.71149   4069191.39748  21943026.2504   21943024.1574
     -1682.5244      -1311.0584
   4572217.48849   3560526.55848  21192853.4124   21192850.8014
     -1705.3474      -1328.8424
  -8615280.96549  -6708640.27348  22271466.4724   22271464.0054
      1598.6434       1245.6964
  10085040.59849   7848921.14447  24500707.8244   24500708.3064
     -2893.9264      -2255.0074
  -2840615.23849  -2198066.89446  24001312.4814   24001314.7084
      3190.9724       2486.4714
 -11199754.03949  -8719935.81148  21505428.7014   21505427.0164
      2066.3574       1610.1494
 00  5  2 15 49 30.0010000  0  6G 2G 7G 9G26G24G 4
   5254203.78149   4088876.10048  21947833.6284   21947831.6904
     -1686.0064      -1313.7714
   4597820.64149   3580477.05548  21197725.4944   21197722.9874
     -1708.5304      -1331.3224
  -8639212.76249  -6727288.42048  22266912.7074   22266910.2504
      1592.1004       1240.5974
  10128457.82049   7882752.65547  24508969.9544   24508969.9094
     -2895.0594      -2255.8904
  -2888477.08249  -2235361.74746  23992205.1214   23992206.8194
      3190.5224       2486.1214
 -11230703.16049  -8744051.98848  21499539.3014   21499537.8044
      2060.0344       1605.2214
 00  5  2 15 49 45.0010000  0  6G 2G 7G 9G26G24G 4
   5279521.39149   4108604.09248  21952651.3394   21952649.2534
     -1689.5464      -1316.5294
   4623472.71549   3600465.67348  21202607.0484   21202604.0754
     -1711.5284      -1333.6594
  -8663044.88349  -6745858.89348  22262376.7564   22262375.3204
      1585.6984       1235.6094
  10171896.51249   7916600.95146  24517236.0104   24517236.4434
     -2896.4554      -2256.9784
  -2936330.00449  -2272649.63746  23983098.3504   23983100.1424
      3190.0104       2485.7224
 -11261553.77049  -8768091.40848  21493668.2924   21493667.1584
      2053.5844       1600.1954
 00  5  2 15 50  0.0010000  0  6G 2G 7G 9G26G24G 4
   5304894.87549   4128375.61548  21957479.8734   21957477.4894
     -1693.4574      -1319.5774
   4649173.79749   3620492.47248  21207497.5384   21207494.7834
     -1715.0494      -1336.4024
  -8686776.85949  -6764351.33948  22257861.2444   22257859.2004
      1578.7404       1230.1874
  10215356.41049   7950465.74946  24525506.0534   24525506.3954
     -2898.0814      -2258.2454
  -2984173.57049  -2309930.26947  23973994.3314   23973996.2644
      3189.1754       2485.0714
 -11292305.14549  -8792053.49448  21487816.5674   21487815.3204
      2046.7824       1594.8954
 00  5  2 15 50 15.0010000  0  6G 2G 7G 9G26G24G 4
   5330326.72749   4148192.62348  21962319.4994   21962317.6514
     -1697.3394      -1322.6024
   4674926.11349   3640559.20148  21212398.4644   21212395.4334
     -1718.4774      -1339.0734
  -8710405.93749  -6782763.59948  22253364.9954   22253362.2614
      1571.8704       1224.8344
  10258839.80949   7984348.85447  24533780.8254   24533781.4834
     -2899.5614      -2259.3984
  -3032004.78949  -2347201.24147  23964892.2594   23964894.2944
      3188.3744       2484.4474
 -11322954.71149  -8815936.24648  21481984.0934   21481982.8244
      2039.9464       1589.5694
 00  5  2 15 50 30.0010000  0  6G 2G 7G 9G26G24G 4
   5355815.68049   4168054.12548  21967169.8204   21967167.8064
     -1701.1084      -1325.5394
   4700728.25449   3660664.76148  21217308.2734   21217305.7094
     -1721.6944      -1341.5804
  -8733933.22349  -6801096.54148  22248887.7854   22248885.4444
      1565.2154       1219.6484
  10302344.94949   8018248.86846  24542059.4144   24542059.8644
     -2900.8844      -2260.4294
  -3079824.78949  -2384463.46347  23955792.1844   23955794.0714
      3187.6904       2483.9144
 -11353503.26249  -8839740.27548  21476170.9584   21476169.6194
      2033.2964       1584.3864
 00  5  2 15 50 45.0010000  0  6G 2G 7G 9G26G24G 4
   5381360.57449   4187959.21048  21972030.8204   21972029.0784
     -1705.0984      -1328.6484
   4726578.59849   3680807.86848  21222227.5294   21222224.5754
     -1725.1764      -1344.2934
  -8757359.59049  -6819350.85748  22244429.4414   22244427.4404
      1558.2284       1214.2034
  10345870.06349   8052164.50346  24550341.8894   24550342.7474
     -2902.4904      -2261.6814
  -3127634.48849  -2421717.68747  23946694.8094   23946696.5524
      3186.8364       2483.2494
 -11383951.85549  -8863466.42048  21470376.8084   21470375.5054
      2026.3924       1579.0064
 00  5  2 15 51  0.0010000  0  6G 2G 7G 9G26G24G 4
   5406961.58649   4207908.03548  21976902.6404   21976900.4134
     -1708.5794      -1331.3604
   4752477.15249   3700988.55248  21227156.0684   21227153.1964
     -1728.1544      -1346.6144
  -8780684.69549  -6837526.25248  22239991.2344   22239988.9054
      1551.6414       1209.0714
  10389414.97749   8086095.54846  24558628.2684   24558629.1634
     -2903.5794      -2262.5294
  -3175433.38349  -2458963.50647  23937598.9244   23937600.4804
      3186.2164       2482.7664
 -11414300.16449  -8887114.41948  21464601.3794   21464599.8614
      2019.9224       1573.9654
 00  5  2 15 51 15.0010000  0  6G 2G 7G 9G26G24G 4
   5432618.17649   4227900.16348  21981784.6434   21981782.8584
     -1712.4804      -1334.4004
   4778423.16449   3721206.20848  21232093.0934   21232090.6954
     -1731.4364      -1349.1714
  -8803908.87149  -6855623.00948  22235571.7724   22235569.6214
      1544.7464       1203.6984
  10432978.84449   8120041.35647  24566918.7914   24566919.4904
     -2905.0684      -2263.6894
  -3223221.78149  -2496201.14447  23928504.5154   23928506.4734
      3185.4104       2482.1384
 -11444548.38349  -8910684.42948  21458845.3904   21458843.9414
      2013.0184       1568.5854
 00  5  2 15 51 30.0010000  0  6G 2G 7G 9G26G24G 4
   5458332.27049   4247937.10048  21986678.2234   21986676.1224
     -1715.9964      -1337.1404
   4804418.25849   3741462.11748  21237040.0774   21237037.2384
     -1734.4194      -1351.4954
  -8827029.98049  -6873639.45648  22231171.9974   22231169.8854
      1538.1594       1198.5664
  10476562.97349   8154002.94146  24575212.5564   24575213.0654
     -2905.9084      -2264.3444
  -3270997.42649  -2533428.79847  23919413.0554   23919414.8014
      3184.7904       2481.6554
 -11474694.28149  -8934174.70948  21453108.8874   21453107.5244
      2006.5044       1563.5104
 00  5  2 15 51 45.0010000  0  6G 2G 7G 9G26G24G 4
   5484101.07049   4268016.66548  21991582.1154   21991579.3904
     -1719.6344      -1339.9744
   4830459.49649   3761753.97848  21241995.3524   21241992.9294
     -1737.6074      -1353.9804
  -8850050.58249  -6891577.57948  22226791.4674   22226788.9394
      1531.4404       1193.3304
  10520164.32449   8187977.93546  24583510.0364   24583510.3474
     -2907.2854      -2265.4174
  -3318762.79749  -2570648.48847  23910323.1524   23910325.4284
      3184.0674       2481.0914
 -11504740.37149  -8957587.21848  21447391.4124   21447390.1194
      1999.7804       1558.2704
 00  5  2 15 52  0.0010000  0  6G 2G 7G 9G26G24G 4
   5509926.86749   4288140.62848  21996496.5784   21996494.7474
     -1723.7114      -1343.1514
   4856548.83649   3782083.31148  21246960.0074   21246957.4344
     -1740.9524      -1356.5864
  -8872968.29749  -6909435.54448  22222430.1304   22222427.7754
      1524.2924       1187.7604
  10563784.63349   8221967.72246  24591810.0814   24591810.7584
     -2908.7014      -2266.5204
  -3366515.55549  -2607858.34147  23901236.6194   23901238.3054
      3182.9544       2480.2244
 -11534684.10549  -8980919.98048  21441693.4964   21441691.8304
      1992.7394       1552.7844
 00  5  2 15 52 15.0010000  0  6G 2G 7G 9G26G24G 4
   5535812.22749   4308311.02248  22001421.9054   22001420.0704
     -1727.5394      -1346.1344
   4882688.64149   3802451.98848  21251933.8974   21251931.0854
     -1744.1994      -1359.1164
  -8895780.41049  -6927211.21448  22218089.1154   22218086.8254
      1517.4324       1182.4144
  10607426.01649   8255973.91946  24600114.5604   24600115.4864
     -2910.0204      -2267.5484
  -3414252.59449  -2645055.98347  23892152.2484   23892154.2274
      3182.0264       2479.5014
 -11564522.70749  -9004170.81348  21436014.9944   21436013.8174
      1985.8694       1547.4314
 00  5  2 15 52 30.0010000  0  6G 2G 7G 9G26G24G 4
   5561755.95349   4328526.90048  22006358.8244   22006356.6144
     -1731.5094      -1349.2284
   4908877.43849   3822858.83548  21256917.9214   21256915.3464
     -1747.5444      -1361.7234
  -8918487.88349  -6944905.34548  22213768.0744   22213765.5814
      1510.3034       1176.8594
  10651086.91449   8289995.33846  24608423.1174   24608424.1974
     -2911.3484      -2268.5834
  -3461975.00449  -2682242.14447  23883071.1564   23883072.9484
      3181.0164       2478.7134
 -11594257.20749  -9027340.52848  21430356.9694   21430355.1614
      1978.8434       1541.9554
 00  5  2 15 52 45.0010000  0  6G 2G 7G 9G26G24G 4
   5587757.13349   4348787.54348  22011306.7964   22011304.8234
     -1735.3324      -1352.2074
   4935114.04749   3843302.93348  21261910.5584   21261907.7454
     -1750.6694      -1364.1584
  -8941091.38749  -6962518.45748  22209466.5794   22209464.2874
      1503.4574       1171.5254
  10694765.97749   8324030.92846  24616735.2924   24616736.2974
     -2912.5154      -2269.4924
  -3509683.30949  -2719417.37647  23873992.1564   23873994.0894
      3180.0694       2477.9764
 -11623888.11349  -9050429.51948  21424718.3454   21424716.8854
      1972.0024       1536.6254
 00  5  2 15 53  0.0010000  0  6G 2G 7G 9G26G24G 4
   5613816.26249   4369093.34348  22016265.6824   22016263.8374
     -1739.0774      -1355.1254
   4961398.75049   3863784.50848  21266912.3854   21266909.6614
     -1753.7744      -1366.5774
  -8963590.33649  -6980050.09848  22205185.2984   22205183.4744
      1496.5434       1166.1374
  10738463.23449   8358080.67346  24625050.4924   24625051.9494
     -2913.5794      -2270.3214
  -3557376.88749  -2756581.11647  23864916.4574   23864918.4074
      3179.1264       2477.2414
 -11653414.89549  -9073437.37448  21419099.1924   21419097.8154
      1965.1224       1531.2644
 00  5  2 15 53 15.0010000  0  6G 2G 7G 9G26G24G 4
   5639933.01649   4389444.02348  22021235.6654   22021233.4564
     -1743.0524      -1358.2224
   4987731.01649   3884303.14048  21271923.2554   21271920.7234
     -1757.0904      -1369.1614
  -8985984.76649  -6997500.30448  22200924.0204   22200921.4674
      1489.4784       1160.6324
  10782178.02749   8392144.02446  24633368.7134   24633369.9624
     -2914.8684      -2271.3264
  -3605055.55549  -2793733.25247  23855843.2044   23855845.4774
      3178.0274       2476.3854
 -11682837.41849  -9096363.99548  21413500.1824   21413498.5344
      1957.9794       1525.6984
 00  5  2 15 53 30.0010000  0  6G 2G 7G 9G26G24G 4
   5666106.25849   4409838.73448  22026216.3874   22026214.6374
     -1746.8654      -1361.1944
   5014109.40249   3904857.71148  21276943.0874   21276940.4354
     -1760.1954      -1371.5814
  -9008275.64549  -7014869.81048  22196682.1074   22196679.8144
      1482.5394       1155.2254
  10825908.66049   8426219.79446  24641690.6074   24641691.7904
     -2915.9134      -2272.1404
  -3652720.37949  -2830874.57647  23846772.9764   23846775.1894
      3177.0074       2475.5904
 -11712156.66849  -9119210.13948  21407921.1834   21407919.4734
      1950.9864       1520.2494
 00  5  2 15 53 45.0010000  0  6G 2G 7G 9G26G24G 4
   5692337.78149   4430278.86348  22031208.0794   22031205.6794
     -1750.7964      -1364.2574
   5040535.44149   3925449.42448  21281971.7254   21281969.4034
     -1763.3844      -1374.0654
  -9030461.03549  -7032157.12648  22192460.2884   22192457.8144
      1475.4254       1149.6824
  10869656.63749   8460309.07646  24650016.0944   24650017.3464
     -2917.1874      -2273.1334
  -3700369.25449  -2868003.48647  23837705.4214   23837707.5574
      3175.9034       2474.7304
 -11741370.47349  -9141974.11748  21402361.9124   21402360.5244
      1943.9704       1514.7824
 00  5  2 15 54  0.0010000  0  6G 2G 7G 9G26G24G 4
   5718629.56649   4450765.95148  22036211.2874   22036209.6954
     -1754.6394      -1367.2514
   5067010.88349   3946079.63048  21287009.3814   21287006.8834
     -1766.5194      -1376.5084
  -9052538.84449  -7049360.59348  22188259.1054   22188256.3284
      1468.4084       1144.2144
  10913423.28149   8494412.85146  24658344.7284   24658345.2834
     -2918.1934      -2273.9174
  -3747999.93449  -2905118.18847  23828641.9654   23828644.0904
      3174.9664       2473.9994
 -11770476.82849  -9164654.36648  21396823.3344   21396821.3174
      1937.0164       1509.3634
 00  5  2 15 54 15.0010000  0  6G 2G 7G 9G26G24G 4
   5744978.91449   4471297.88048  22041225.2764   22041222.9984
     -1758.5554      -1370.3024
   5093532.78149   3966746.03048  21292056.5734   21292054.0084
     -1769.6874      -1378.9774
  -9074511.55949  -7066482.18948  22184077.5834   22184075.1854
      1461.2844       1138.6634
  10957205.60949   8528528.89946  24666676.3534   24666676.7864
     -2919.2924      -2274.7734
  -3795614.69549  -2942220.51147  23819580.1354   23819583.4104
      3173.7994       2473.0904
 -11799478.08249  -9187252.72848  21391304.3374   21391303.0144
      1929.8834       1503.8054
 00  5  2 15 54 30.0010000  0  6G 2G 7G 9G26G24G 4
   5771385.80949   4491874.65948  22046250.4024   22046248.5734
     -1762.3734      -1373.2784
   5120100.75049   3987448.33548  21297112.3324   21297109.2204
     -1772.7104      -1381.3324
  -9096379.02349  -7083521.76448  22179916.4524   22179913.4824
      1454.3264       1133.2414
  11001003.09449   8562656.72046  24675010.7544   24675011.9804
     -2920.3814      -2275.6214
  -3843213.53949  -2979310.45447  23810522.7374   23810525.1504
      3172.6514       2472.1964
 -11828373.99249  -9209768.99848  21385805.6224   21385803.8674
      1922.9054       1498.3684
 00  5  2 15 54 45.0010000  0  6G 2G 7G 9G26G24G 4
   5797850.18049   4512496.22748  22051286.4004   22051284.6944
     -1766.2454      -1376.2954
   5146714.65649   4008186.43648  21302177.0394   21302174.2144
     -1775.8504      -1383.7794
  -9118140.99649  -7100479.14448  22175775.5234   22175772.6434
      1447.2314       1127.7134
  11044815.30949   8596796.02746  24683347.6094   24683349.0524
     -2921.3094      -2276.3444
  -3890796.12549  -3016387.68847  23801468.0664   23801470.1094
      3171.7094       2471.4624
 -11857164.47349  -9232203.11648  21380326.9734   21380325.6984
      1915.7814       1492.8164
 00  5  2 15 55  0.0010000  0  6G 2G 7G 9G26G24G 4
   5824372.86349   4533163.23048  22056333.5074   22056331.5074
     -1770.1224      -1379.3164
   5173375.02349   4028960.73348  21307249.9624   21307247.1474
     -1778.7654      -1386.0504
  -9139796.53149  -7117353.57848  22171654.4074   22171652.0514
      1440.1904       1122.2264
  11088642.70349   8630947.19246  24691687.7474   24691689.3234
     -2922.3054      -2277.1214
  -3938361.23449  -3053451.32647  23792417.1024   23792418.4274
      3170.3614       2470.4114
 -11885848.24649  -9254554.08748  21374868.5654   21374867.0834
      1908.6624       1487.2694
 00  5  2 15 55 15.0010000  0  6G 2G 7G 9G26G24G 4
   5850954.68049   4553876.31248  22061391.6934   22061389.9624
     -1773.9504      -1382.2994
   5200082.61749   4049771.83248  21312332.3294   21312329.5954
     -1782.0954      -1388.6454
  -9161344.53949  -7134144.22348  22167554.2224   22167551.5494
      1432.9834       1116.6104
  11132485.62549   8665110.41346  24700031.3774   24700032.1724
     -2923.4184      -2277.9884
  -3985907.80949  -3090500.51847  23783369.1594   23783370.5664
      3169.1604       2469.4754
 -11914424.31649  -9276821.13448  21369430.5984   21369429.3434
      1901.5094       1481.6954
 00  5  2 15 55 30.0010000  0  6G 2G 7G 9G26G24G 4
   5877596.03549   4574635.78648  22066461.6564   22066459.7474
     -1778.1154      -1385.5444
   5226837.36349   4070619.67748  21317423.6884   21317421.1554
     -1785.1614      -1391.0354
  -9182784.47749  -7150850.66448  22163473.7804   22163471.5424
      1425.7274       1110.9564
  11176344.05549   8699285.76046  24708377.0134   24708378.2964
     -2924.3754      -2278.7344
  -4033435.20749  -3127534.76547  23774324.7904   23774326.6704
      3167.9354       2468.5204
 -11942892.16449  -9299003.84648  21364013.5224   21364011.7164
      1894.2334       1476.0264
 00  5  2 15 55 45.0010000  0  6G 2G 7G 9G26G24G 4
   5904295.54349   4595440.58348  22071542.8644   22071540.4244
     -1781.7824      -1388.4024
   5253637.76649   4091503.09748  21322523.4324   21322521.3684
     -1787.9984      -1393.2454
  -9204117.46149  -7167473.76548  22159414.1454   22159412.2444
      1418.7744       1105.5394
  11220216.27749   8733471.81946  24716725.6904   24716726.4054
     -2925.1324      -2279.3244
  -4080944.40649  -3164554.82047  23765283.5064   23765285.7804
      3166.7774       2467.6194
 -11971252.75849  -9321102.98748  21358616.6784   21358615.3344
      1887.3004       1470.6234
 00  5  2 15 56  0.0010000  0  6G 2G 7G 9G26G24G 4
   5931054.14549   4616291.41848  22076634.4454   22076632.4314
     -1785.9334      -1391.6364
   5280484.33649   4112422.49548  21327632.4614   21327629.3394
     -1791.4014      -1395.8974
  -9225342.51249  -7184012.76548  22155375.2714   22155372.9714
      1411.3284       1099.7364
  11264102.66449   8767668.91546  24725077.2304   24725078.4534
     -2926.3384      -2280.2634
  -4128434.43749  -3201559.95347  23756246.5324   23756249.0574
      3165.4104       2466.5534
 -11999505.12149  -9343117.79948  21353240.2464   21353238.9834
      1879.8054       1464.7834
 00  5  2 15 56 15.0010000  0  6G 2G 7G 9G26G24G 4
   5957874.03949   4637190.02848  22081738.5814   22081736.5824
     -1789.9324      -1394.7524
   5307379.11349   4133379.43948  21332750.0344   21332747.4844
     -1794.5174      -1398.3254
  -9246457.27749  -7200465.81548  22151357.2264   22151355.2174
      1404.0774       1094.0864
  11308004.96149   8801878.45046  24733432.1584   24733432.8504
     -2927.3244      -2281.0324
  -4175902.82049  -3238548.23447  23747214.1784   23747215.6544
      3163.9014       2465.3784
 -12027646.68449  -9365046.26748  21347885.2694   21347883.5404
      1872.5154       1459.1024
 00  5  2 15 56 30.0010000  0  6G 2G 7G 9G26G24G 4
   5984753.41049   4658134.96048  22086853.1644   22086850.9154
     -1793.9114      -1397.8534
   5334320.08649   4154372.40048  21337876.9564   21337874.3624
     -1797.6034      -1400.7294
  -9267463.28149  -7216834.12048  22147360.2134   22147357.9884
      1396.7334       1088.3644
  11351920.96949   8836098.63546  24741788.6084   24741789.9414
     -2928.2764      -2281.7744
  -4223350.99649  -3275520.75347  23738184.8424   23738186.5364
      3162.3734       2464.1874
 -12055679.05949  -9386889.65548  21342550.8444   21342549.1374
      1865.1714       1453.3804
 00  5  2 15 56 45.0010000  0  6G 2G 7G 9G26G24G 4
   6011693.17649   4679126.98248  22091979.8944   22091977.6604
     -1797.9544      -1401.0034
   5361307.90249   4175401.85548  21343012.3804   21343010.1644
     -1800.7374      -1403.1724
  -9288359.49649  -7233116.88348  22143383.7874   22143381.1084
      1389.4534       1082.6914
  11395851.19149   8870329.89947  24750147.8204   24750149.5084
     -2929.1754      -2282.4744
  -4270777.75449  -3312476.57847  23729159.9994   23729161.0164
      3160.9914       2463.1104
 -12083601.12949  -9408647.08548  21337237.4664   21337235.6434
      1857.8074       1447.6424
 00  5  2 15 57  0.0010000  0  6G 2G 7G 9G26G24G 4
   6038694.45349   4700166.88948  22097118.1914   22097116.1394
     -1802.1534      -1404.2754
   5388343.53549   4196468.58848  21348157.2234   21348154.3854
     -1803.8624      -1405.6074
  -9309144.52349  -7249313.00048  22139428.3494   22139426.1154
      1381.9294       1076.8284
  11439796.43449   8904572.85447  24758511.2054   24758512.4654
     -2930.1614      -2283.2424
  -4318181.57049  -3349414.53147  23720139.0984   23720140.6624
      3159.3564       2461.8364
 -12111411.47749  -9430317.45848  21331945.3284   21331944.0894
      1850.3714       1441.8484
 00  5  2 15 57 15.0010000  0  6G 2G 7G 9G26G24G 4
   6065754.57449   4721252.69348  22102267.0234   22102265.4614
     -1805.9774      -1407.2544
   5415423.89849   4217570.14548  21353310.6524   21353308.0304
     -1806.8214      -1407.9134
  -9329820.98049  -7265424.52148  22135494.1284   22135491.8314
      1374.8684       1071.3264
  11483753.38349   8938824.95447  24766876.0214   24766876.4494
     -2930.7864      -2283.7304
  -4365565.02349  -3386336.64047  23711122.1934   23711124.1594
      3158.0914       2460.8504
 -12139112.57049  -9451902.70648  21326674.0084   21326672.4104
      1843.0864       1436.1714
 00  5  2 15 57 30.0010000  0  6G 2G 7G 9G26G24G 4
   6092874.04349   4742384.71548  22107427.9564   22107425.8614
     -1810.0104      -1410.3974
   5442549.46549   4238706.94548  21358472.2124   21358469.8044
     -1809.9714      -1410.3674
  -9350388.13349  -7281450.86448  22131580.1054   22131577.4334
      1367.4074       1065.5124
  11527722.30949   8973086.39247  24775242.7124   24775243.7034
     -2931.7724      -2284.4984
  -4412927.26249  -3423242.18947  23702109.2434   23702110.9564
      3156.6214       2459.7054
 -12166703.61749  -9473402.20748  21321423.4054   21321422.1544
      1835.5324       1430.2854
 00  5  2 15 57 45.0010000  0  6G 2G 7G 9G26G24G 4
   6120052.39549   4763562.63248  22112599.6724   22112597.8584
     -1813.8924      -1413.4224
   5469719.42249   4259878.32348  21363642.9354   21363639.6814
     -1812.8374      -1412.6004
  -9370846.21549  -7297392.22648  22127687.2244   22127684.7814
      1360.2694       1059.9504
  11571702.25049   9007356.38947  24783611.3624   24783612.7264
     -2932.4224      -2285.0044
  -4460268.39149  -3460131.30147  23693100.5784   23693102.3104
      3155.4014       2458.7544
 -12194184.81249  -9494816.10048  21316194.1774   21316192.6984
      1828.4134       1424.7384
 00  5  2 15 58  0.0010000  0  6G 2G 7G 9G26G24G 4
   6147289.96949   4784786.69548  22117783.0864   22117781.7654
     -1817.7644      -1416.4394
   5496933.90649   4281084.41548  21368821.5024   21368818.4964
     -1815.7764      -1414.8914
  -9391194.65649  -7313248.14348  22123814.7794   22123812.4934
      1352.9744       1054.2654
  11615693.17249   9041634.93547  24791983.1374   24791984.0784
     -2933.0084      -2285.4614
  -4507587.82049  -3497003.50247  23684096.4754   23684097.7374
      3154.0234       2457.6804
 -12221555.60949  -9516143.96548  21310985.3364   21310983.4364
      1821.0594       1419.0074
 00  5  2 15 58 15.0010000  0  6G 2G 7G 9G26G24G 4
   6174585.93049   4806056.26148  22122977.2614   22122975.3764
     -1821.6164      -1419.4414
   5524191.89549   4302324.39048  21374008.0424   21374005.6134
     -1818.6724      -1417.1474
  -9411434.14149  -7329019.16448  22119963.2964   22119960.8604
      1345.6644       1048.5694
  11659693.87949   9075921.09946  24800356.2524   24800357.6634
     -2933.5554      -2285.8874
  -4554886.06649  -3533859.20647  23675095.6054   23675096.7084
      3152.4704       2456.4704
 -12248816.58649  -9537386.27648  21305798.0214   21305796.1804
      1813.7454       1413.3084
 00  5  2 15 58 30.0010000  0  6G 2G 7G 9G26G24G 4
   6201939.42649   4827370.63448  22128182.6884   22128180.8304
     -1825.4744      -1422.4474
   5551492.23849   4323597.39248  21379203.3254   21379200.3384
     -1821.5144      -1419.3614
  -9431565.38749  -7344705.84548  22116132.5084   22116130.3004
      1338.3844       1042.8964
  11703702.93449   9110213.81047  24808731.0624   24808731.6124
     -2934.2974      -2286.4654
  -4602163.78949  -3570698.91047  23666098.9194   23666100.3274
      3150.9774       2455.3064
 -12275968.45349  -9558543.55148  21300631.1614   21300629.5904
      1806.4064       1407.5894
 00  5  2 15 58 45.0010000  0  6G 2G 7G 9G26G24G 4
   6229352.64549   4848731.55748  22133398.9674   22133397.1574
     -1829.4434      -1425.5404
   5578836.77749   4344904.80948  21384406.8264   21384404.4184
     -1824.3804      -1421.5954
  -9451586.18049  -7360306.46148  22112322.6004   22112320.3254
      1331.0744       1037.2014
  11747722.12949   9144514.39147  24817107.2254   24817108.6094
     -2934.8734      -2286.9144
  -4649418.66049  -3607520.81747  23657106.4004   23657107.9124
      3149.6584       2454.2794
 -12303008.76649  -9579613.90748  21295485.7124   21295483.7184
      1799.0674       1401.8714
 00  5  2 15 59  0.0010000  0  6G 2G 7G 9G26G24G 4
   6256825.91849   4870139.28948  22138627.0984   22138625.3494
     -1833.6084      -1428.7864
   5606225.68049   4366246.79748  21389618.8294   21389616.5964
     -1827.5104      -1424.0344
  -9471495.92249  -7375820.54548  22108534.0954   22108531.8034
      1323.5744       1031.3574
  11791751.41849   9178822.85547  24825485.7614   24825487.4984
     -2935.7474      -2287.5954
  -4696649.96549  -3644324.36247  23648118.5954   23648120.2794
      3147.9004       2452.9094
 -12329936.93049  -9600596.86948  21290361.0904   21290359.6394
      1791.4164       1395.9094
 00  5  2 15 59 15.0010000  0  6G 2G 7G 9G26G24G 4
   6284359.86349   4891594.29948  22143866.5394   22143864.6624
     -1837.5344      -1431.8454
   5633659.33249   4387623.66248  21394839.2644   21394836.7504
     -1830.2784      -1426.1914
  -9491293.76649  -7391247.43148  22104766.4184   22104764.1454
      1316.2454       1025.6464
  11835790.90649   9213139.22947  24833867.0614   24833868.0874
     -2936.1434      -2287.9034
  -4743856.75849  -3681108.79847  23639135.4734   23639136.7934
      3146.3924       2451.7344
 -12356752.11749  -9621491.79748  21285258.3664   21285256.8564
      1783.9844       1390.1184
 00  5  2 15 59 30.0010000  0  6G 2G 7G 9G26G24G 4
   6311953.59849   4913095.88648  22149117.5314   22149115.5214
     -1841.6314      -1435.0374
   5661136.63349   4409034.53848  21400068.2314   21400065.6484
     -1833.4234      -1428.6414
  -9510980.45749  -7406587.70348  22101020.3164   22101018.5764
      1308.6824       1019.7524
  11879839.37949   9247462.63147  24842249.2374   24842250.6104
     -2936.8854      -2288.4824
  -4791039.60949  -3717874.57647  23630156.2884   23630158.3684
      3144.7224       2450.4324
 -12383454.95749  -9642299.18648  21280177.2864   21280175.4544
      1776.3964       1384.2054
 00  5  2 15 59 45.0010000  0  6G 2G 7G 9G26G24G 4
   6339606.77049   4934643.77548  22154379.9604   22154377.7144
     -1845.4154      -1437.9864
   5688657.06649   4430479.02848  21405304.9074   21405302.5124
     -1836.0744      -1430.7074
  -9530556.05149  -7421841.41448  22097295.3264   22097292.6014
      1301.3724       1014.0564
  11923896.03549   9281792.41947  24850632.0634   24850634.4554
     -2937.1834      -2288.7144
  -4838198.60549  -3754621.76347  23621182.6234   23621183.8044
      3143.2674       2449.2994
 -12410045.56249  -9663019.11848  21275116.8224   21275115.3084
      1769.0284       1378.4644
 00  5  2 16  0  0.0010000  0  6G 2G 7G 9G26G24G 4
   6367319.96549   4956238.44648  22159653.5844   22159651.8664
     -1849.5264      -1441.1894
   5716220.90649   4451957.33448  21410550.5534   21410547.9034
     -1839.0484      -1433.0244
  -9550019.83649  -7437007.99148  22093591.1934   22093589.0324
      1293.8574       1008.2014
  11967961.10549   9316128.75346  24859017.5484   24859019.5074
     -2937.9794      -2289.3344
  -4885332.80949  -3791349.65247  23612213.5694   23612214.2984
      3141.3574       2447.8114
 -12436523.26249  -9683651.07548  21270078.4504   21270076.6474
      1761.4654       1372.5704
 00  5  2 16  0 15.0010000  0  6G 2G 7G 9G26G24G 4
   6395092.93449   4977879.71048  22164938.4404   22164936.8214
     -1853.4524      -1444.2484
   5743827.68049   4473469.09548  21415803.7644   21415800.9994
     -1841.9144      -1435.2584
  -9569371.91049  -7452087.53548  22089908.9014   22089906.6204
      1286.4404       1002.4214
  12012033.99249   9350471.19847  24867405.0884   24867406.8434
     -2938.4914      -2289.7334
  -4932442.21549  -3828058.21447  23603248.0444   23603249.9014
      3139.8584       2446.6434
 -12462887.94949  -9704194.96448  21265061.4374   21265059.4574
      1753.8134       1366.6084
 00  5  2 16  0 30.0010000  0  6G 2G 7G 9G26G24G 4
   6422927.73049   4999569.12848  22170235.4154   22170233.4084
     -1857.7694      -1447.6124
   5771479.22349   4495015.74648  21421065.8094   21421062.7604
     -1845.0004      -1437.6624
  -9588610.07849  -7467078.30648  22086248.0754   22086245.6634
      1278.6524        996.3524
  12056116.16449   9384820.81947  24875792.7304   24875794.7424
     -2939.2294      -2290.3084
  -4979524.58649  -3864745.72347  23594288.4634   23594290.2074
      3137.7344       2444.9884
 -12489137.30149  -9724648.99048  21260066.3794   21260064.5654
      1746.0354       1360.5474
 00  5  2 16  0 45.0010000  0  6G 2G 7G 9G26G24G 4
   6450824.67249   5021306.99048  22175543.4774   22175541.6504
     -1861.9534      -1450.8734
   5799175.66449   4516597.38448  21426336.0184   21426333.3124
     -1847.9794      -1439.9834
  -9607733.82849  -7481979.91948  22082608.5904   22082606.6804
      1271.0554        990.4324
  12100207.54749   9419177.65646  24884183.8204   24884185.5544
     -2939.7564      -2290.7194
  -5026579.20749  -3901411.57847  23585334.6314   23585336.2874
      3135.9724       2443.6144
 -12515270.78949  -9745012.71948  21255093.1674   21255091.8394
      1738.3064       1354.5244
 00  5  2 16  1  0.0010000  0  6G 2G 7G 9G26G24G 4
   6478781.76649   5043091.71348  22180864.1084   22180861.9334
     -1865.8844      -1453.9354
   5826914.69549   4538212.20448  21431615.1034   21431612.0874
     -1850.7374      -1442.1334
  -9626744.96149  -7496793.78848  22078990.9754   22078988.6314
      1263.5354        984.5734
  12144305.80149   9453539.81646  24892575.4124   24892576.9034
     -2940.1614      -2291.0354
  -5073607.84049  -3938057.18847  23576385.1964   23576386.5034
      3134.1804       2442.2184
 -12541290.25849  -9765287.61048  21250141.8764   21250140.2724
      1730.7524       1348.6384
 00  5  2 16  1 15.0010000  0  7G 2G 7G 5G 9G26G24G 4
   6506800.07049   5064924.13348  22186195.5994   22186193.6184
     -1869.9124      -1457.0744
   5854697.22749   4559860.92548  21436901.7624   21436898.9134
     -1853.6434      -1444.3974
    -32101.98059    -14896.44756  24927765.9324   24927766.0114
      2497.5634       1946.1534
  -9645642.26649  -7511518.96148  22075395.0684   22075392.5844
      1256.0164        978.7134
  12188411.57849   9487907.84646  24900968.5894   24900970.0294
     -2940.6354      -2291.4044
  -5120609.16849  -3974681.54247  23567440.9134   23567442.0914
      3132.4464       2440.8674
 -12567194.26249  -9785472.52948  21245212.3644   21245210.7544
      1723.0574       1342.6424
 00  5  2 16  1 30.0010000  0  7G 2G 7G 5G 9G26G24G 4
   6534878.76649   5086803.60948  22191538.9134   22191536.8274
     -1874.0824      -1460.3244
   5882522.16849   4581542.69048  21442196.6484   21442193.5984
     -1856.5284      -1446.6454
    -69574.07849    -44095.43546  24920634.4034   24920634.6974
      2498.6574       1947.0064
  -9664426.42649  -7526155.96848  22071820.7604   22071818.4174
      1248.3594        972.7484
  12232523.54349   9522280.74247  24909362.5504   24909364.6004
     -2941.2214      -2291.8604
  -5167583.58249  -4011284.90647  23558501.8044   23558503.7234
      3130.6744       2439.4864
 -12592983.44949  -9805567.98548  21240304.9474   21240303.2434
      1715.3174       1336.6114
 00  5  2 16  1 45.0010000  0  7G 2G 7G 5G 9G26G24G 4
   6563019.51249   5108731.43948  22196893.9244   22196892.2974
     -1878.0324      -1463.4024
   5910390.92249   4603258.59848  21447499.7324   21447496.9074
     -1859.2734      -1448.7844
   -107060.39549    -73305.50946  24913501.1244   24913501.9334
      2499.7274       1947.8394
  -9683095.54749  -7540703.33448  22068268.0854   22068265.7864
      1240.8504        966.8964
  12276643.02349   9556659.45546  24917758.3004   24917760.4824
     -2941.4554      -2292.0434
  -5214529.30549  -4047865.92647  23549568.5124   23549570.0594
      3128.7504       2437.9874
 -12618656.13749  -9825572.65848  21235419.4824   21235417.2804
      1707.7004       1330.6754
 00  5  2 16  2  0.0010000  0  7G 2G 7G 5G 9G26G24G 4
   6591222.39549   5130707.68948  22202260.8064   22202258.8784
     -1882.1584      -1466.6174
   5938303.40249   4625008.57348  21452811.2264   21452808.6554
     -1862.1194      -1451.0024
   -144560.83249   -102526.63346  24906366.2914   24906365.2004
      2500.6154       1948.5314
  -9701649.32049  -7555160.81048  22064737.2354   22064735.1104
      1233.2034        960.9384
  12320769.67649   9591043.75746  24926155.1654   24926157.3364
     -2941.8804      -2292.3744
  -5261445.84449  -4084424.18947  23540640.6924   23540641.8984
      3126.8414       2436.4994
 -12644211.83249  -9845486.16848  21230556.3244   21230554.8794
      1699.9324       1324.6224
 00  5  2 16  2 15.0010000  0  7G 2G 7G 5G 9G26G24G 4
   6619488.61749   5152733.29948  22207639.2804   22207637.6504
     -1886.4504      -1469.9614
   5966260.59049   4646793.38448  21458131.1244   21458129.1354
     -1865.2444      -1453.4374
   -182074.19949   -131757.80646  24899227.6104   24899226.1984
      2501.3234       1949.0834
  -9720086.41449  -7569527.37148  22061228.8364   22061226.4194
      1225.3614        954.8274
  12364904.30149   9625434.28346  24934554.5924   24934555.9884
     -2942.4414      -2292.8114
  -5308331.71549  -4120958.57647  23531718.5814   23531720.1924
      3124.8444       2434.9434
 -12669649.02349  -9865307.34248  21225715.5214   21225713.7714
      1691.9534       1318.4054
 00  5  2 16  2 30.0010000  0  7G 2G 7G 5G 9G26G24G 4
   6647813.61349   5174804.70248  22213029.7014   22213027.9444
     -1890.4004      -1473.0394
   5994257.69949   4668609.30048  21463458.9724   21463456.1354
     -1867.8814      -1455.4924
   -219605.07849   -161002.63946  24892085.7924   24892084.9184
      2502.5154       1950.0114
  -9738411.27749  -7583806.48348  22057741.7994   22057739.4224
      1217.8764        948.9944
  12409041.87149   9659827.09446  24942953.8674   24942955.1664
     -2942.6904      -2293.0054
  -5355191.27049  -4157472.46347  23522801.1614   23522802.7434
      3123.0084       2433.5134
 -12694972.29349  -9885039.74748  21220897.5344   21220895.3604
      1684.3264       1312.4624
 00  5  2 16  2 45.0010000  0  7G 2G 7G 5G 9G26G24G 4
   6676200.89849   5196924.64248  22218431.9214   22218429.6344
     -1894.6684      -1476.3654
   6022297.84849   4690458.76648  21468794.7634   21468792.1674
     -1870.8644      -1457.8164
   -257149.93449   -190258.33546  24884941.3494   24884939.7824
      2503.4284       1950.7234
  -9756620.35549  -7597995.36848  22054276.7194   22054274.9094
      1209.9954        942.8534
  12453185.48449   9694224.64146  24951353.3724   24951355.6814
     -2943.2424      -2293.4354
  -5402020.79749  -4193962.93147  23513890.4664   23513891.5344
      3120.8354       2431.8194
 -12720177.73049  -9904680.33048  21216100.7924   21216098.9724
      1676.3384       1306.2374
 00  5  2 16  3  0.0010000  0  7G 2G 7G 5G 9G26G24G 4
   6704652.29749   5219094.53248  22223845.6494   22223844.1824
     -1898.8384      -1479.6144
   6050382.75849   4712343.10648  21474139.1004   21474136.7204
     -1873.7944      -1460.0994
   -294706.85949   -219523.44446  24877793.6544   24877792.6394
      2504.2244       1951.3434
  -9774711.46149  -7612092.33348  22050833.7494   22050831.7304
      1202.2714        936.8344
  12497336.57049   9728627.97746  24959756.0194   24959757.0354
     -2943.5604      -2293.6834
  -5448818.09449  -4230428.28847  23504984.6274   23504985.9744
      3118.7794       2430.2184
 -12745263.39149  -9924227.59048  21211326.8644   21211325.1704
      1668.4424       1300.0854
 00  5  2 16  3 15.0010000  0  7G 2G 7G 5G 9G26G24G 4
   6733166.21949   5241313.15648  22229271.8594   22229270.2374
     -1902.9984      -1482.8564
   6078510.62149   4734260.90948  21479492.0574   21479488.9624
     -1876.5194      -1462.2224
   -332277.44149   -248799.18546  24870643.8414   24870643.5814
      2505.3274       1952.2034
  -9792686.09449  -7626098.53648  22047413.3584   22047410.8344
      1194.4684        930.7544
  12541493.16449   9763035.55646  24968157.9984   24968159.9864
     -2943.8824      -2293.9344
  -5495584.34849  -4266869.47047  23496085.3784   23496087.0334
      3116.7244       2428.6164
 -12770230.60949  -9943682.55548  21206576.0254   21206574.1254
      1660.5184       1293.9104
 00  5  2 16  3 30.0010000  0  7G 2G 7G 5G 9G26G24G 4
   6761743.21949   5263580.92248  22234710.0074   22234707.9474
     -1907.1194      -1486.0674
   6106681.88349   4756212.53848  21484852.6204   21484850.3304
     -1879.3604      -1464.4374
   -369860.96549   -278085.05946  24863491.9024   24863491.3424
      2506.1474       1952.8424
  -9810543.27049  -7640013.21648  22044015.3694   22044013.2964
      1186.6654        924.6744
  12585655.46549   9797447.69946  24976561.4844   24976564.1064
     -2944.2924      -2294.2544
  -5542318.68749  -4303285.77847  23487192.0904   23487193.6574
      3114.6294       2426.9844
 -12795078.51649  -9963044.53748  21201847.3484   21201845.5004
      1652.6954       1287.8154
 00  5  2 16  3 45.0010000  0  7G 2G 7G 5G 9G26G24G 4
   6790382.90649   5285897.53248  22240159.9934   22240157.8304
     -1911.5044      -1489.4844
   6134895.84849   4778197.43448  21490221.6064   21490218.9174
     -1882.4804      -1466.8684
   -407457.82849   -307381.27846  24856337.4984   24856337.2864
      2506.6804       1953.2574
  -9828283.42249  -7653836.70448  22040639.5464   22040637.1094
      1178.6334        918.4154
  12629822.63749   9831863.51146  24984967.5034   24984968.9944
     -2944.7854      -2294.6384
  -5589021.34849  -4339677.39547  23478304.9744   23478305.6824
      3112.3394       2425.1994
 -12819807.31249  -9982313.71748  21197141.9184   21197140.4844
      1644.4824       1281.4154
 00  5  2 16  4  0.0010000  0  7G 2G 7G 5G 9G26G24G 4
   6819087.53949   5308264.76148  22245622.1434   22245620.3374
     -1915.7374      -1492.7824
   6163154.58249   4800217.22948  21495599.1144   21495596.8194
     -1885.2344      -1469.0144
   -445065.84449   -336686.22646  24849181.2904   24849180.7814
      2507.7544       1954.0944
  -9845904.21949  -7667567.18948  22037286.4754   22037283.9924
      1170.8544        912.3544
  12673996.43848   9866284.56746  24993372.9434   24993375.0824
     -2944.9954      -2294.8014
  -5635689.64849  -4376042.24647  23469424.2764   23469425.1304
      3110.1514       2423.4944
 -12844414.55949 -10001488.17348  21192459.1344   21192457.6854
      1636.5434       1275.2284
 00  5  2 16  4 15.0010000  0  7G 2G 7G 5G 9G26G24G 4
   6847856.87149   5330682.39248  22251096.7944   22251094.5914
     -1920.0684      -1496.1574
   6191457.52049   4822271.45348  21500984.9314   21500982.6034
     -1888.3404      -1471.4344
   -482685.22349   -366000.00346  24842022.0664   24842022.1324
      2508.5254       1954.6954
  -9863405.64149  -7681204.65148  22033955.8904   22033953.3894
      1162.9004        906.1564
  12718176.34449   9900710.38746  25001780.7314   25001782.8274
     -2945.3714      -2295.0944
  -5682323.79349  -4412380.48147  23460550.3394   23460550.9434
      3107.9934       2421.8134
 -12868900.28949 -10020567.95648  21187799.6154   21187797.4774
      1628.4184       1268.8974
 00  5  2 16  4 30.0010000  0  7G 2G 7G 5G 9G26G24G 4
   6876690.37549   5353150.04648  22256583.9394   22256581.6554
     -1924.4144      -1499.5434
   6219803.88749   4844359.52848  21506379.0754   21506376.4644
     -1891.2604      -1473.7094
   -520316.35249   -395322.96746  24834861.3674   24834860.9744
      2509.0194       1955.0794
  -9880788.11349  -7694749.44148  22030648.5974   22030645.7804
      1154.7364        899.7954
  12762361.25049   9935140.04546  25010189.1794   25010190.4374
     -2945.8114      -2295.4374
  -5728923.84049  -4448692.15447  23451682.0124   23451682.9824
      3105.4694       2419.8464
 -12893264.92249 -10039553.37048  21183163.1374   21183161.3714
      1620.1764       1262.4754
 00  5  2 16  4 45.0010000  0  7G 2G 7G 5G 9G26G24G 4
   6905588.50049   5375668.03748  22262083.2664   22262080.7284
     -1928.6874      -1502.8734
   6248193.96949   4866481.65648  21511781.6514   21511779.1124
     -1894.1164      -1475.9354
   -557958.80549   -424654.64546  24827699.0034   24827697.3954
      2509.6884       1955.6014
  -9898050.96549  -7708201.01248  22027363.2584   22027360.8804
      1146.8804        893.6734
  12806551.35249   9969573.79446  25018597.9134   25018599.4004
     -2946.1384      -2295.6924
  -5775489.06649  -4484976.70647  23442820.9064   23442822.5684
      3103.2474       2418.1144
 -12917507.64549 -10058443.79248  21178549.9104   21178547.9044
      1612.1924       1256.2544
 00  5  2 16  5  0.0010000  0  7G 2G 7G 5G 9G26G24G 4
   6934548.40649   5398234.17948  22267593.4664   22267592.0294
     -1932.8224      -1506.0954
   6276624.79349   4888635.53548  21517191.7224   21517189.3894
     -1896.8954      -1478.1004
   -595615.31649   -453997.38546  24820532.9374   24820531.5594
      2510.7374       1956.4194
  -9915196.86749  -7721561.44548  22024100.7074   22024098.0324
      1139.0144        887.5434
  12850743.32848  10004008.95346  25027006.8044   25027009.3444
     -2946.2114      -2295.7494
  -5822022.03549  -4521236.09947  23433965.7724   23433967.0174
      3100.9964       2416.3614
 -12941631.12949 -10077241.29248  21173959.3414   21173957.4974
      1604.1114       1249.9574
 00  5  2 16  5 15.0010000  0  7G 2G 7G 5G 9G26G24G 4
   6963572.09849   5420850.01848  22273116.4904   22273115.1944
     -1937.0024      -1509.3524
   6305098.08649   4910822.51148  21522610.0144   21522607.5484
     -1899.6004      -1480.2074
   -633283.83649   -483349.45746  24813365.1354   24813363.8974
      2511.6704       1957.1454
  -9932223.69549  -7734829.10048  22020860.4034   22020857.9634
      1131.1774        881.4364
  12894938.84449  10038446.90746  25035417.8724   25035419.2314
     -2946.4164      -2295.9094
  -5868520.44949  -4557468.58447  23425117.5064   23425118.6604
      3098.7404       2414.6034
 -12965633.07449 -10095944.09648  21169391.6734   21169390.1174
      1596.1044       1243.7174
 00  5  2 16  5 30.0010000  0  7G 2G 7G 5G 9G26G24G 4
   6992660.26649   5443516.10448  22278652.2124   22278650.4964
     -1941.3184      -1512.7164
   6333614.42249   4933043.02548  21528036.6744   21528033.8914
     -1902.5644      -1482.5174
   -670963.63749   -512710.29846  24806193.9794   24806193.8504
      2512.4274       1957.7354
  -9949130.55149  -7748003.27148  22017643.0894   22017640.7454
      1123.1254        875.1624
  12939138.15248  10072887.83546  25043827.3874   25043830.0984
     -2946.7634      -2296.1794
  -5914983.13749  -4593673.23747  23416275.9154   23416277.1674
      3096.1674       2412.5984
 -12989512.65249 -10114551.54748  21164847.8214   21164845.5684
      1587.8034       1237.2494
 00  5  2 16  5 45.0010000  0  7G 2G 7G 5G 9G26G24G 4
   7021812.29349   5466231.93948  22284199.5044   22284197.7934
     -1945.5134      -1515.9844
   6362172.83249   4955296.32748  21533470.9834   21533468.2394
     -1905.1904      -1484.5644
   -708655.36749   -542080.42746  24799021.4344   24799021.3404
      2513.2574       1958.3824
  -9965917.96949  -7761084.37448  22014448.5884   22014446.3244
      1115.2734        869.0444
  12983340.24648  10107330.88246  25052240.2734   25052241.2554
     -2946.5134      -2295.9844
  -5961410.69949  -4629850.50847  23407440.9374   23407441.9274
      3094.1364       2411.0154
 -13013270.30149 -10133063.98448  21160326.6224   21160324.3524
      1579.8144       1231.0244
 00  5  2 16  6  0.0010000  0  7G 2G 7G 5G 9G26G24G 4
   7051028.91849   5488998.11648  22289759.3354   22289757.3814
     -1949.9714      -1519.4584
   6390773.84049   4977582.81548  21538913.4684   21538911.0764
     -1908.2524      -1486.9504
   -746358.21549   -571459.31246  24791846.7954   24791846.1264
      2513.8384       1958.8354
  -9982584.85549  -7774071.55248  22011276.9614   22011274.7914
      1107.0364        862.6264
  13027545.58248  10141776.55846  25060651.2324   25060654.0954
     -2947.1684      -2296.4944
  -6007801.99649  -4665999.52547  23398613.5694   23398614.2944
      3091.5824       2409.0254
 -13036904.92249 -10151480.55548  21155829.4044   21155827.7094
      1571.4604       1224.5144
 00  5  2 16  6 15.0010000  0  7G 2G 7G 5G 9G26G24G 4
   7080311.55149   5511815.72048  22295331.6934   22295329.6244
     -1954.4584      -1522.9544
   6419418.76249   4999903.52948  21544364.6244   21544361.7754
     -1911.2404      -1489.2784
   -784070.71149   -600845.67646  24784670.7374   24784669.9394
      2514.5414       1959.3834
  -9999129.72749  -7786963.65748  22008128.6804   22008126.0274
      1098.7894        856.1994
  13071754.96948  10176225.24646  25069064.8324   25069066.6464
     -2947.5244      -2296.7724
  -6054155.23449  -4702118.89747  23389792.7864   23389793.6874
      3088.7894       2406.8494
 -13060414.87949 -10169799.99248  21151355.5074   21151353.9444
      1563.0664       1217.9744
 00  5  2 16  6 30.0010000  0  7G 2G 7G 5G 9G26G24G 4
   7109660.44549   5534684.96148  22300916.4524   22300914.9904
     -1958.6914      -1526.2534
   6448107.49249   5022258.37648  21549824.0934   21549821.2064
     -1913.9014      -1491.3524
   -821792.59849   -630239.31246  24777491.9034   24777491.5124
      2515.1714       1959.8734
 -10015552.19949  -7799760.39048  22005003.5614   22005001.1994
      1090.7764        849.9564
  13115968.22348  10210677.00746  25077478.2194   25077479.9724
     -2947.6034      -2296.8334
  -6100470.06249  -4738208.30547  23380979.1894   23380979.7594
      3086.3874       2404.9774
 -13083799.89849 -10188022.07048  21146905.5584   21146903.5504
      1554.9124       1211.6204
 00  5  2 16  6 45.0010000  0  7G 2G 7G 5G 9G26G24G 4
   7139074.30149   5557604.84348  22306513.6614   22306511.8944
     -1963.0964      -1529.6854
   6476838.48449   5044646.14348  21555291.2944   21555288.7224
     -1916.6944      -1493.5284
   -859525.24649   -659641.31046  24770312.2914   24770311.6274
      2515.7964       1960.3604
 -10031853.47749  -7812462.68748  22001901.2364   22001898.9004
      1082.6954        843.6594
  13160183.69548  10245130.56946  25085891.8234   25085894.3684
     -2947.8324      -2297.0124
  -6146747.37549  -4774268.51847  23372172.8864   23372173.5444
      3083.8574       2403.0064
 -13107061.03149 -10206147.61448  21142479.0534   21142477.0824
      1546.6504       1205.1824
 00  5  2 16  7  0.0010000  0  7G 2G 7G 5G 9G26G24G 4
   7168553.00449   5580575.23548  22312123.3054   22312121.7104
     -1967.3244      -1532.9804
   6505611.48449   5067066.66448  21560766.4054   21560763.8164
     -1919.4974      -1495.7124
   -897268.65249   -689051.77446  24763129.0904   24763128.7354
      2516.6504       1961.0264
 -10048033.50849  -7825070.49948  21998822.6044   21998820.1874
      1074.7614        837.4764
  13204400.91449  10279585.38946  25094307.1144   25094308.6214
     -2947.8024      -2296.9894
  -6192987.10549  -4810299.41747  23363373.1424   23363373.8854
      3081.5094       2401.1754
 -13130198.26649 -10224176.61648  21138076.2324   21138074.4844
      1538.4474       1198.7904
 00  5  2 16  7 15.0010000  0  7G 2G 7G 5G 9G26G24G 4
   7198097.17249   5603596.64048  22317745.4604   22317744.0824
     -1971.9044      -1536.5494
   6534426.87949   5089520.19848  21566250.0024   21566247.3674
     -1922.5984      -1498.1284
   -935021.97749   -718469.96046  24755944.9004   24755944.5294
      2517.2804       1961.5174
 -10064091.38749  -7837583.13048  21995766.8494   21995764.0684
      1066.3184        830.8974
  13248620.03549  10314041.76946  25102721.1564   25102723.4164
     -2948.0674      -2297.1954
  -6239188.21949  -4846300.23447  23354581.5004   23354582.9544
      3078.5844       2398.8974
 -13153210.78149 -10242108.43548  21133696.9354   21133695.1904
      1529.8584       1192.0974
 00  5  2 16  7 30.0010000  0  7G 2G 7G 5G 9G26G24G 4
   7227707.13749   5626669.32848  22323379.9334   22323378.0774
     -1976.0694      -1539.7944
   6563284.89849   5112006.97348  21571741.5054   21571739.2024
     -1925.3124      -1500.2444
   -972784.82049   -747895.47146  24748758.4564   24748758.2804
      2517.9254       1962.0194
 -10080026.66449  -7850000.22448  21992734.4254   21992732.5144
      1058.3594        824.6964
  13292841.13349  10348499.66946  25111136.1394   25111138.3574
     -2947.9834      -2297.1304
  -6285350.11349  -4882270.49247  23345796.9874   23345798.0054
      3076.1524       2397.0024
 -13176097.66849 -10259942.34948  21129341.7254   21129339.9064
      1521.6604       1185.7094
 00  5  2 16  7 45.0010000  0  7G 2G 7G 5G 9G26G24G 4
   7257383.45349   5649793.69448  22329027.2614   22329025.6984
     -1980.5324      -1543.2724
   6592185.84449   5134527.17548  21577241.3574   21577238.6794
     -1928.0524      -1502.3784
  -1010556.64849   -777328.06046  24741571.9594   24741570.8034
      2518.5554       1962.5104
 -10095838.62949  -7862321.23148  21989725.4794   21989723.1274
      1050.0884        818.2504
  13337064.38749  10382959.20246  25119551.5964   25119554.2824
     -2948.3014      -2297.3774
  -6331471.85949  -4918209.44847  23337020.1754   23337021.4944
      3073.5064       2394.9404
 -13198858.51649 -10277678.06048  21125010.3414   21125008.4644
      1513.3304       1179.2184
 00  5  2 16  8  0.0010000  0  7G 2G 7G 5G 9G26G24G 4
   7287123.80949   5672967.97748  22334686.6454   22334684.5234
     -1985.0394      -1546.7844
   6621127.19149   5157078.87048  21582748.3814   21582746.4714
     -1930.8404      -1504.5514
  -1048339.86349   -806769.49246  24734381.4974   24734380.4674
      2519.1024       1962.9364
 -10111529.48049  -7874547.86448  21986739.3504   21986737.2644
      1041.8364        811.8204
  13381286.92649  10417418.20046  25127967.4684   25127969.1514
     -2948.3114      -2297.3854
  -6377555.53949  -4954118.79247  23328251.2104   23328252.0904
      3070.7814       2392.8174
 -13221495.27349 -10295317.07348  21120702.8014   21120701.2514
      1504.8784       1172.6324
 00  5  2 16  8 15.0010000  0  7G 2G 7G 5G 9G26G24G 4
   7316929.02049   5696192.79648  22340358.5444   22340356.5534
     -1989.1014      -1549.9494
   6650109.42649   5179662.41448  21588263.8504   21588261.2364
     -1933.4374      -1506.5754
  -1086133.50849   -836219.07346  24727189.1254   24727188.9334
      2519.8784       1963.5414
 -10127098.22749  -7886679.36048  21983776.6454   21983774.4124
      1033.8924        805.6304
  13425509.15649  10451876.95746  25136383.1734   25136384.8764
     -2948.1304      -2297.2444
  -6423600.06649  -4989997.58647  23319488.5614   23319489.8944
      3068.3354       2390.9104
 -13244007.02349 -10312858.67948  21116418.8774   21116416.9194
      1496.6604       1166.2294
 00  5  2 16  8 30.0010000  0  7G 2G 7G 5G 9G26G24G 4
   7346800.14549   5719468.97848  22346042.6774   22346040.9294
     -1993.8184      -1553.6254
   6679133.40249   5202278.49548  21593786.7674   21593784.3524
     -1936.4604      -1508.9304
  -1123936.52749   -865675.93846  24719995.8544   24719995.5194
      2520.3374       1963.8994
 -10142543.67649  -7898714.75748  21980837.7804   21980835.5204
      1025.4544        799.0554
  13469731.81349  10486336.03046  25144798.7734   25144800.4804
     -2948.2864      -2297.3664
  -6469604.11349  -5025844.84347  23310734.7084   23310735.6344
      3065.3964       2388.6204
 -13266392.51649 -10330301.90648  21112159.1274   21112157.4124
      1487.9934       1159.4754
 00  5  2 16  8 45.0010000  0  7G 2G 7G 5G 9G26G24G 4
   7376738.71549   5742797.70447  22351740.3664   22351738.5044
     -1998.1054      -1556.9654
   6708200.56649   5224928.22248  21599318.1814   21599315.2534
     -1939.1164      -1511.0004
  -1161747.23049   -895138.76646  24712800.2794   24712799.7634
      2521.0694       1964.4704
 -10157864.07449  -7910652.73948  21977922.5384   21977920.2424
      1017.2854        792.6904
  13513956.06649  10520796.42446  25153213.5244   25153215.9794
     -2948.2814      -2297.3624
  -6515565.73849  -5061659.06347  23301988.3644   23301989.3674
      3062.6714       2386.4974
 -13288649.89849 -10347645.30648  21107923.5074   21107922.1454
      1479.6394       1152.9654
 00  5  2 16  9  0.0010000  0  7G 2G 7G 5G 9G26G24G 4
   7406743.08649   5766177.71948  22357449.9044   22357447.6494
     -2002.4274      -1560.3334
   6737309.09849   5247610.18448  21604857.3074   21604854.9344
     -1941.9144      -1513.1804
  -1199567.21149   -924608.91846  24705603.9324   24705603.5204
      2521.6894       1964.9534
 -10173060.90649  -7922494.41948  21975030.2894   21975028.1054
      1009.0284        786.2564
  13558179.85249  10555256.37746  25161630.0694   25161631.6574
     -2948.3404      -2297.4084
  -6561486.39849  -5097441.34047  23293249.8784   23293250.9664
      3060.1174       2384.5074
 -13310780.65649 -10364890.03348  21103712.3414   21103710.3684
      1471.1474       1146.3494
 00  5  2 16  9 15.0010000  0  7G 2G 7G 5G 9G26G24G 4
   7436814.15649   5789609.69247  22363171.6704   22363170.1784
     -2006.7974      -1563.7384
   6766459.58249   5270324.84648  21610404.2474   21610402.2624
     -1944.5514      -1515.2344
  -1237395.55149   -954085.51146  24698405.8124   24698404.8304
      2522.4124       1965.5164
 -10188133.19549  -7934239.06048  21972162.4314   21972159.8654
      1000.8114        779.8524
  13602403.60249  10589716.33946  25170044.9184   25170047.3784
     -2948.1744      -2297.2784
  -6607364.83649  -5133190.71347  23284519.2914   23284520.3844
      3057.3344       2382.3384
 -13332783.62949 -10382035.17948  21099525.3504   21099523.6664
      1462.8174       1139.8584
 00  5  2 16  9 30.0010000  0  7G 2G 7G 5G 9G26G24G 4
   7466949.90249   5813092.07047  22368906.7244   22368904.8504
     -2011.4014      -1567.3264
   6795649.94549   5293070.57548  21615959.3544   21615956.7744
     -1947.4804      -1517.5174
  -1275234.18449   -983570.13746  24691204.6174   24691204.4004
      2522.7394       1965.7714
 -10203082.67249  -7945887.99748  21969317.4774   21969315.1424
       992.3784        773.2824
  13646625.01249  10624174.48746  25178459.0734   25178462.1774
     -2948.1934      -2297.2944
  -6653202.71549  -5168908.50447  23275796.4834   23275797.8784
      3054.2194       2379.9114
 -13354660.70749 -10399082.24248  21095362.2774   21095360.4814
      1454.0234       1133.0054
 00  5  2 16  9 45.0010000  0  7G 2G 7G 5G 9G26G24G 4
   7497152.11749   5836626.24148  22374653.0344   22374651.7514
     -2015.6154      -1570.6094
   6824881.59049   5315848.46048  21621521.7964   21621519.3174
     -1950.0884      -1519.5494
  -1313081.34449  -1013061.41146  24684002.5664   24684002.2894
      2523.5014       1966.3644
 -10217907.51649  -7957439.82548  21966496.9004   21966493.7394
       984.1064        766.8364
  13690845.38749  10658631.80546  25186875.2714   25186877.3054
     -2947.9694      -2297.1194
  -6698998.10949  -5204593.17247  23267082.1784   23267083.4624
      3051.5534       2377.8334
 -13376409.93749 -10416029.67248  21091222.9624   21091221.6314
      1445.6204       1126.4574
 00  5  2 16 10  0.0010000  0  7G 2G 7G 5G 9G26G24G 4
   7527422.82449   5860213.77948  22380414.0654   22380412.4854
     -2020.3324      -1574.2854
   6854156.36349   5338659.96448  21627092.3774   21627089.2354
     -1952.9304      -1521.7634
  -1350934.93049  -1042557.69746  24676799.9114   24676799.0634
      2523.9554       1966.7184
 -10232605.63349  -7968892.90348  21963699.3124   21963696.6624
       975.8154        760.3764
  13735066.42649  10693089.61646  25195290.2344   25195292.5594
     -2947.7644      -2296.9594
  -6744748.55549  -5240242.82147  23258376.0134   23258377.5264
      3048.6674       2375.5854
 -13398029.02749 -10432875.70048  21087109.6224   21087107.3294
      1437.0564       1119.7844
 00  5  2 16 10 15.0010000  0  7G 2G 7G 5G 9G26G24G 4
   7557758.38349   5883851.85448  22386187.0134   22386185.5564
     -2024.6584      -1577.6564
   6883470.47349   5361502.13048  21632670.6854   21632668.2764
     -1955.6884      -1523.9134
  -1388798.46949  -1072061.71146  24669594.7064   24669593.2834
      2524.4294       1967.0874
 -10247180.26649  -7980249.75548  21960925.9904   21960923.5284
       967.3634        753.7904
  13779284.12949  10727544.85846  25203704.1344   25203707.1774
     -2947.8864      -2297.0544
  -6790457.42249  -5275860.07047  23249678.3254   23249679.0654
      3045.6594       2373.2414
 -13419521.44549 -10449623.01448  21083019.6334   21083017.7244
      1428.5304       1113.1404
 00  5  2 16 10 30.0010000  0  7G 2G 7G 5G 9G26G24G 4
   7588160.75049   5907541.98247  22391972.3224   22391970.7384
     -2029.0874      -1581.1074
   6912825.67249   5384376.29348  21638257.0294   21638254.3204
     -1958.4914      -1526.0974
  -1426669.87149  -1101571.88246  24662387.6434   24662387.0974
      2524.9464       1967.4914
 -10261629.41449  -7991508.82648  21958176.3364   21958174.2314
       959.0974        747.3484
  13823499.96149  10761998.62746  25212118.6964   25212121.1164
     -2947.7694      -2296.9634
  -6836122.39149  -5311443.11247  23240988.5654   23240989.4694
      3042.8174       2371.0264
 -13440884.98849 -10466269.90548  21078954.3744   21078952.4414
      1419.9124       1106.4254
 00  5  2 16 10 45.0010000  0  7G 2G 7G 5G 9G26G24G 4
   7618629.87549   5931284.14647  22397770.4034   22397768.6834
     -2033.4624      -1584.5164
   6942221.71949   5407282.29748  21643850.7404   21643848.6084
     -1961.0994      -1528.1294
  -1464549.18449  -1131088.20347  24655179.0014   24655178.6124
      2525.5274       1967.9434
 -10275952.95349  -8002670.02448  21955450.6244   21955448.3804
       950.7574        740.8494
  13867713.56349  10796450.66446  25220532.2674   25220534.6594
     -2947.4714      -2296.7304
  -6881743.32449  -5346991.86847  23232307.1574   23232307.9824
      3040.1074       2368.9154
 -13462119.59049 -10482816.33148  21074913.2894   21074911.6584
      1411.3774       1099.7744
 00  5  2 16 11  0.0010000  0  7G 2G 7G 5G 9G26G24G 4
   7649165.61349   5955078.19447  22403581.0944   22403579.2594
     -2037.8474      -1587.9324
   6971658.22749   5430219.82348  21649452.3034   21649449.9584
     -1963.7214      -1530.1724
  -1502436.57049  -1160610.84447  24647970.0764   24647968.7784
      2526.0894       1968.3814
 -10290150.87949  -8013733.34848  21952748.9304   21952746.0614
       942.3294        734.2824
  13911924.23049  10830900.41346  25228945.3804   25228948.1814
     -2947.1934      -2296.5144
  -6927320.02749  -5382506.11147  23223633.8224   23223634.9544
      3037.0414       2366.5254
 -13483225.21549 -10499262.25248  21070897.2564   21070895.0984
      1402.7444       1093.0474
 00  5  2 16 11 15.0010000  0  7G 2G 7G 5G 9G26G24G 4
   7679767.44549   5978923.75247  22409404.6894   22409402.9984
     -2042.5444      -1591.5934
   7001134.56349   5453188.38548  21655061.4494   21655059.0444
     -1966.5874      -1532.4054
  -1540332.37949  -1190140.00447  24640758.6274   24640758.1324
      2526.5284       1968.7234
 -10304223.62949  -8024699.12748  21950071.1434   21950068.8094
       933.8724        727.6934
  13956131.30149  10865347.34746  25237357.7334   25237360.2994
     -2947.1044      -2296.4454
  -6972852.71549  -5417986.08447  23214969.4204   23214970.4434
      3033.8774       2364.0604
 -13504202.10549 -10515607.86648  21066905.3774   21066903.8894
      1393.9944       1086.2294
 00  5  2 16 11 30.0010000  0  7G 2G 7G 5G 9G26G24G 4
   7710437.52749   6002822.49247  22415241.1474   22415239.4634
     -2046.8364      -1594.9374
   7030652.66449   5476189.49648  21660678.7284   21660676.3184
     -1969.1854      -1534.4304
  -1578234.37149  -1219673.97747  24633545.5184   24633545.4654
      2527.1294       1969.1914
 -10318168.84849  -8035565.52348  21947417.3424   21947414.9564
       925.5034        721.1714
  14000336.55149  10899792.89846  25245770.2934   25245772.4574
     -2946.5974      -2296.0494
  -7018338.90649  -5453429.82647  23206313.5934   23206314.5074
      3031.0114       2361.8274
 -13525047.89849 -10531851.32048  21062938.4274   21062936.4524
      1385.5224       1079.6284
 00  5  2 16 11 45.0010000  0  7G 2G 7G 5G 9G26G24G 4
   7741171.90649   6026771.33347  22421089.5334   22421087.7024
     -2051.3184      -1598.4304
   7060208.36349   5499219.89748  21666302.8724   21666300.3634
     -1971.8464      -1536.5034
  -1616146.50049  -1249215.87247  24626331.8644   24626330.4764
      2527.6514       1969.5984
 -10331990.34449  -8046335.51848  21944787.2784   21944785.0154
       917.1194        714.6384
  14044535.44549  10934233.47846  25254181.2884   25254183.3024
     -2946.5874      -2296.0424
  -7063782.28149  -5488840.20747  23197666.0844   23197667.2214
      3027.9794       2359.4644
 -13545766.43049 -10547995.61148  21058995.7894   21058993.9984
      1376.8314       1072.8554
 00  5  2 16 12  0.0010000  0  7G 2G 7G 5G 9G26G24G 4
   7771974.04749   6050772.98648  22426950.9224   22426949.1724
     -2055.6544      -1601.8094
   7089804.86749   5522282.09348  21671935.0154   21671932.8904
     -1974.4044      -1538.4974
  -1654065.18749  -1278762.87447  24619115.3664   24619115.3894
      2528.2714       1970.0824
 -10345684.49249  -8057006.28548  21942181.4944   21942179.2074
       908.7304        708.1024
  14088731.15249  10968671.56146  25262591.2124   25262594.1474
     -2946.1774      -2295.7224
  -7109179.07049  -5524214.27347  23189027.2554   23189028.3064
      3024.7904       2356.9794
 -13566353.91049 -10564037.79148  21055077.9944   21055076.4594
      1368.1934       1066.1254
 00  5  2 16 12 15.0010000  0  7G 2G 7G 5G 9G26G24G 4
   7802843.75849   6074827.28047  22432825.2904   22432823.6384
     -2060.3864      -1605.4954
   7119441.82849   5545375.82248  21677574.7374   21677572.3214
     -1977.2264      -1540.6964
  -1691990.58249  -1308315.14047  24611898.2964   24611897.8114
      2528.4284       1970.2034
 -10359251.46149  -8067577.94048  21939599.6194   21939597.3654
       900.1764        701.4364
  14132923.02349  11003106.62046  25271000.9284   25271003.5964
     -2946.0944      -2295.6574
  -7154529.16449  -5559551.95647  23180397.4134   23180397.9074
      3021.5924       2354.4874
 -13586810.55149 -10579978.00348  21051185.2034   21051183.3624
      1359.3164       1059.2084
 00  5  2 16 12 30.0010000  0  7G 2G 7G 5G 9G26G24G 4
   7833780.41449   6098933.74147  22438712.4244   22438710.5684
     -2064.5264      -1608.7224
   7149118.47349   5568500.47648  21683221.8054   21683219.8814
     -1979.6974      -1542.6214
  -1729923.26649  -1337873.05847  24604680.2214   24604679.7714
      2529.2974       1970.8814
 -10372691.72349  -8078050.87648  21937042.1244   21937039.8604
       891.9144        694.9984
  14177110.21549  11037538.06646  25279409.3184   25279411.6684
     -2945.5134      -2295.2054
  -7199832.93749  -5594853.55647  23171776.3384   23171776.9684
      3018.8574       2352.3564
 -13607136.63349 -10595816.49648  21047317.4164   21047315.5804
      1350.7914       1052.5654
 00  5  2 16 12 45.0010000  0  7G 2G 7G 5G 9G26G24G 4
   7864783.88749   6123092.26147  22444612.4834   22444610.1604
     -2069.0674      -1612.2604
   7178834.33649   5591655.67548  21688876.5514   21688874.1174
     -1982.3544      -1544.6914
  -1767863.25449  -1367436.62747  24597461.0694   24597459.7034
      2529.6394       1971.1474
 -10386005.23049  -8088425.03748  21934508.6154   21934506.0964
       883.4184        688.3784
  14221292.06349  11071965.28646  25287817.3214   25287819.3984
     -2945.0594      -2294.8514
  -7245090.13349  -5630118.86347  23163163.7404   23163165.0744
      3015.7624       2349.9444
 -13627332.16849 -10611553.24848  21043474.6244   21043472.5034
      1342.1394       1045.8224
 00  5  2 16 13  0.0010000  0  7G 2G 7G 5G 9G26G24G 4
   7895851.90249   6147301.09547  22450523.9304   22450522.1134
     -2073.6674      -1615.8444
   7208587.01249   5614839.56348  21694538.3074   21694536.0514
     -1985.0394      -1546.7844
  -1805812.81649  -1397007.73147  24590238.7144   24590238.4224
      2530.0054       1971.4324
 -10399194.00449  -8098701.99548  21931998.9714   21931996.6274
       874.8394        681.6934
  14265465.96149  11106386.43946  25296223.3994   25296225.9874
     -2944.9564      -2294.7714
  -7290302.80549  -5665349.47447  23154560.8164   23154561.0634
      3012.3634       2347.2964
 -13647399.12949 -10627189.82448  21039655.9294   21039653.4824
      1333.3014       1038.9364
 00  5  2 16 13 15.0010000  0  7G 2G 7G 5G 9G26G24G 4
   7926987.49249   6171562.56347  22456448.9244   22456447.3014
     -2077.9394      -1619.1744
   7238379.51649   5638054.49948  21700207.8244   21700205.6684
     -1987.4024      -1548.6254
  -1843768.78149  -1426583.80047  24583015.8584   24583015.2564
      2530.5964       1971.8934
 -10412254.83649  -8108879.26148  21929513.2704   21929510.9004
       866.5434        675.2284
  14309634.63749  11140803.47646  25304628.0054   25304631.0754
     -2944.2044      -2294.1854
  -7335467.50849  -5700542.70647  23145965.6564   23145966.7054
      3009.3654       2344.9604
 -13667334.44549 -10642723.82048  21035862.0524   21035860.0674
      1324.7364       1032.2624
 00  5  2 16 13 30.0010000  0  7G 2G 7G 5G 9G26G24G 4
   7958191.46949   6195877.32147  22462387.0894   22462385.6154
     -2082.5634      -1622.7774
   7268212.21949   5661300.75248  21705884.7604   21705882.0854
     -1990.2394      -1550.8364
  -1881730.36349  -1456164.24447  24575792.6604   24575791.3374
      2530.8504       1972.0914
 -10425186.79749  -8118956.11648  21927052.3644   21927050.0694
       857.7644        668.3874
  14353798.40649  11175216.65446  25313031.8074   25313035.2724
     -2944.1364      -2294.1324
  -7380583.25049  -5735697.79447  23137380.8944   23137381.2674
      3006.0994       2342.4154
 -13687136.94949 -10658154.31648  21032093.8124   21032091.9344
      1315.7034       1025.2234
 00  5  2 16 13 45.0010000  0  6G 2G 7G 5G 9G24G 4
   7989462.82449   6220244.58647  22468337.5734   22468336.1444
     -2086.9734      -1626.2124
   7298083.99649   5684577.44448  21711569.1004   21711567.1624
     -1992.6764      -1552.7344
  -1919698.45349  -1485749.74247  24568567.7384   24568566.6914
      2531.4364       1972.5474
 -10437990.82849  -8128933.28248  21924615.9244   21924613.5924
       849.3954        661.8664
  -7425650.61749  -5770815.18947  23128804.8914   23128805.3594
      3002.9834       2339.9874
 -13706807.56649 -10673482.06448  21028350.5464   21028348.2384
      1307.0654       1018.4934
 00  5  2 16 14  0.0010000  0  6G 2G 7G 5G 9G24G 4
   8020800.76649   6244663.74547  22474300.9574   22474299.1304
     -2091.3094      -1629.5914
   7327993.92249   5707883.87148  21717260.5914   21717258.2704
     -1995.2104      -1554.7094
  -1957673.75449  -1515340.90646  24561341.0454   24561340.1104
      2531.9194       1972.9244
 -10450667.40249  -8138811.12948  21922203.8524   21922201.3194
       840.9424        655.2804
  -7470670.18749  -5805895.33247  23120237.4354   23120238.2754
      2999.7274       2337.4494
 -13726346.91449 -10688707.50348  21024632.5584   21024630.5314
      1298.3064       1011.6674
 00  5  2 16 14 15.0010000  0  6G 2G 7G 5G 9G24G 4
   8052205.12949   6269134.63847  22480277.7064   22480275.8414
     -2095.7914      -1633.0844
   7357941.59849   5731219.71248  21722959.7084   21722957.2844
     -1997.7294      -1556.6724
  -1995656.22749  -1544937.62546  24554113.2524   24554112.0954
      2532.3884       1973.2894
 -10463216.73849  -8148589.83348  21919816.0214   21919813.3084
       832.3784        648.6064
  -7515641.79349  -5840938.09147  23111679.8424   23111680.4124
      2996.4894       2334.9274
 -13745754.88349 -10703830.57748  21020939.2504   21020937.1664
      1289.5214       1004.8224
 00  5  2 16 14 30.0010000  0  6G 2G 7G 5G 9G24G 4
   8083676.15649   6293657.50047  22486266.0664   22486264.2964
     -2100.3174      -1636.6114
   7387927.12149   5754585.04448  21728665.9234   21728663.5394
     -2000.3374      -1558.7044
  -2033645.61349  -1574539.69146  24546883.9964   24546883.2034
      2532.7834       1973.5974
 -10475638.37549  -8158269.02848  21917451.9384   21917449.6414
       823.8434        641.9554
  -7560564.86349  -5875943.04747  23103131.0204   23103131.8924
      2993.2574       2332.4084
 -13765031.16049 -10718851.02948  21017271.2614   21017269.0754
      1280.6204        997.8864
 00  5  2 16 14 45.0010000  0  6G 2G 7G 5G 9G24G 4
   8115217.16849   6318234.89347  22492267.8524   22492266.7814
     -2105.0784      -1640.3214
   7417953.62149   5777982.30448  21734379.8224   21734377.2294
     -2003.1054      -1560.8614
  -2071638.53549  -1604144.54646  24539654.4334   24539653.1484
      2533.0274       1973.7884
 -10487928.90249  -8167846.06248  21915113.0844   21915110.7964
       814.9764        635.0464
  -7605435.73449  -5910907.32547  23094592.4714   23094593.2034
      2989.5414       2329.5124
 -13784172.14549 -10733766.06648  21013628.4704   21013626.4384
      1271.5194        990.7944
 00  5  2 16 15  0.0010000  0  6G 2G 7G 5G 9G24G 4
   8146825.39149   6342864.65547  22498282.7024   22498280.6724
     -2109.3464      -1643.6464
   7448018.05149   5801409.11748  21740101.0144   21740098.4664
     -2005.4354      -1562.6764
  -2109637.77349  -1633754.32346  24532423.1304   24532422.3354
      2533.6334       1974.2594
 -10500090.91849  -8177322.95748  21912798.8644   21912796.1634
       806.6024        628.5214
  -7650256.95349  -5945832.92747  23086063.1524   23086063.7924
      2986.5094       2327.1504
 -13803180.51249 -10748577.75648  21010011.4554   21010009.4104
      1262.8084        984.0064
 00  5  2 16 15 15.0010000  0  6G 2G 7G 5G 9G24G 4
   8178500.99249   6367546.91647  22504310.5254   22504308.8904
     -2113.9214      -1647.2114
   7478120.50849   5824865.57148  21745829.1354   21745826.7144
     -2008.1204      -1564.7694
  -2147642.98849  -1663368.77146  24525190.3784   24525190.0504
      2533.8434       1974.4234
 -10512124.04749  -8186699.41848  21910508.9334   21910506.4694
       797.9544        621.7824
  -7695028.04349  -5980719.42947  23077543.7564   23077544.1024
      2983.0764       2324.4754
 -13822055.84849 -10763285.79948  21006419.3804   21006417.2194
      1253.9164        977.0774
 00  5  2 16 15 30.0010000  0  6G 2G 7G 5G 9G24G 4
   8210244.77349   6392282.31147  22510351.4754   22510349.6854
     -2118.4864      -1650.7694
   7508261.48849   5848352.03148  21751565.0214   21751562.8774
     -2010.6744      -1566.7594
  -2185653.23049  -1692987.12646  24517957.7124   24517957.0324
      2534.1414       1974.6554
 -10524027.44149  -8195974.78948  21908243.7654   21908241.2984
       789.2434        614.9954
  -7739747.91849  -6015566.05747  23069033.4434   23069034.1304
      2979.7214       2321.8614
 -13840797.22349 -10777889.45448  21002853.0304   21002851.1014
      1245.0394        970.1604
 00  5  2 16 15 45.0010000  0  6G 2G 7G 5G 9G24G 4
   8242054.76249   6417069.28647  22516404.0084   22516402.7504
     -2122.8034      -1654.1324
   7538438.93049   5871866.90748  21757307.3434   21757304.8894
     -2012.9934      -1568.5664
  -2223670.45749  -1722610.88846  24510722.7514   24510722.4524
      2534.8144       1975.1804
 -10535802.93049  -8205150.49248  21906002.9924   21906000.3394
       780.8014        608.4164
  -7784418.08249  -6050373.93347  23060532.2424   23060533.2574
      2976.3724       2319.2514
 -13859406.43049 -10792390.10748  20999311.9724   20999309.8574
      1236.2554        963.3154
 00  5  2 16 16  0.0010000  0  6G 2G 7G 5G 9G24G 4
   8273931.07449   6441907.93647  22522470.4684   22522469.3394
     -2127.3144      -1657.6484
   7568652.84049   5895410.20848  21763056.7114   21763054.5444
     -2015.5914      -1570.5904
  -2261694.49249  -1752239.99746  24503487.4254   24503486.8534
      2535.1614       1975.4504
 -10547450.23049  -8214226.30748  21903786.4614   21903783.9864
       772.2074        601.7204
  -7829038.27049  -6085142.87547  23052041.9054   23052042.5494
      2972.9304       2316.5694
 -13877883.00449 -10806787.42648  20995796.1254   20995794.0634
      1227.3784        956.3984
 00  5  2 16 16 15.0010000  0  6G 2G 7G 5G 9G24G 4
   8305875.87549   6466799.95347  22528549.4814   22528548.0804
     -2132.0804      -1661.3614
   7598905.00449   5918983.30048  21768813.4874   21768811.0134
     -2018.1794      -1572.6074
  -2299723.03149  -1781872.59346  24496250.9164   24496250.4834
      2535.2394       1975.5114
 -10558967.12549  -8223200.51848  21901594.9724   21901592.4654
       763.3644        594.8294
  -7873606.01649  -6119870.96347  23043561.1594   23043561.6264
      2969.2974       2313.7384
 -13896224.87549 -10821079.78048  20992305.5644   20992303.1874
      1218.1454        949.2044
 00  5  2 16 16 30.0010000  0  6G 2G 7G 5G 9G24G 4
   8337888.23449   6491744.63147  22534641.1724   22534639.5234
     -2136.4314      -1664.7514
   7629194.46949   5942585.47248  21774577.6104   21774575.2904
     -2020.4794      -1574.3994
  -2337756.95349  -1811509.39046  24489013.3574   24489012.4884
      2535.7574       1975.9144
 -10570354.31249  -8232073.64848  21899428.1784   21899425.7794
       754.8344        588.1824
  -7918121.80149  -6154558.53647  23035089.4334   23035090.5124
      2965.9824       2311.1554
 -13914432.66049 -10835267.64848  20988840.6404   20988838.7414
      1209.4244        942.4084
 00  5  2 16 16 45.0010000  0  6G 2G 7G 5G 9G24G 4
   8369966.25849   6516740.46847  22540745.2834   22540743.7114
     -2140.7624      -1668.1264
   7659519.13749   5966215.07848  21780348.1904   21780346.0274
     -2022.8964      -1576.2824
  -2375798.09049  -1841151.83246  24481774.2254   24481773.4874
      2536.2654       1976.3104
 -10581613.63349  -8240847.14248  21897285.3744   21897282.8654
       746.3134        581.5434
  -7962587.32449  -6189206.97247  23026627.9944   23026628.5864
      2962.6904       2308.5904
 -13932507.95349 -10849352.27548  20985401.0614   20985399.0204
      1200.6054        935.5374
 00  5  2 16 17  0.0010000  0  6G 2G 7G 5G 9G24G 4
   8402112.14849   6541789.19847  22546862.6694   22546860.7744
     -2145.4444      -1671.7754
   7689880.81349   5989873.50948  21786125.9224   21786123.0744
     -2025.3864      -1578.2234
  -2413844.24649  -1870798.15946  24474534.3544   24474533.0514
      2536.4654       1976.4664
 -10592742.68049  -8249519.12348  21895167.7354   21895165.3784
       737.5684        574.7294
  -8007000.01249  -6223814.21647  23018177.1574   23018177.3114
      2958.9944       2305.7104
 -13950448.55549 -10863331.93848  20981987.0914   20981984.9744
      1191.4654        928.4144
 00  5  2 16 17 15.0010000  0  6G 2G 7G 5G 9G24G 4
   8434324.82449   6566889.96247  22552992.4294   22552990.5754
     -2149.6484      -1675.0514
   7720278.55949   6013560.05548  21791910.3374   21791907.8554
     -2027.7054      -1580.0304
  -2451896.20349  -1900449.02746  24467292.3434   24467292.3874
      2537.0514       1976.9234
 -10603742.30149  -8258090.26148  21893074.6874   21893072.0344
       729.0434        568.0854
  -8051360.62549  -6258380.90147  23009735.3834   23009735.8984
      2955.6354       2303.0924
 -13968255.23049 -10877207.25148  20978598.5854   20978596.8474
      1182.6904        921.5774
 00  5  2 16 17 30.0010000  0  6G 2G 7G 5G 9G24G 4
   8466605.56649   6592043.75447  22559135.0004   22559134.4714
     -2154.3954      -1678.7494
   7750713.34049   6037275.45548  21797702.1494   21797699.6504
     -2030.2444      -1582.0084
  -2489952.67649  -1930103.40746  24460050.7554   24460050.5364
      2537.2274       1977.0604
 -10614611.20349  -8266559.52648  21891006.4154   21891004.0674
       720.1174        561.1304
  -8095667.68749  -6292905.83847  23001304.0464   23001304.3924
      2951.9244       2300.2004
 -13985926.52749 -10890977.07748  20975235.7634   20975233.6484
      1173.4814        914.4014
 00  5  2 16 17 45.0010000  0  6G 2G 7G 5G 9G24G 4
   8498952.05949   6617248.79047  22565290.5974   22565289.0864
     -2158.8724      -1682.2384
   7781182.68449   6061017.79348  21803499.8294   21803497.3254
     -2032.6124      -1583.8544
  -2528015.87949  -1959763.02446  24452808.3334   24452807.4584
      2537.5634       1977.3224
 -10625351.52749  -8274928.61248  21888962.3754   21888959.8734
       711.5434        554.4494
  -8139923.16449  -6327390.59447  22992882.8954   22992883.2594
      2948.5164       2297.5454
 -14003464.70749 -10904643.17648  20971898.4264   20971896.4954
      1164.6484        907.5184
 00  5  2 16 18  0.0010000  0  6G 2G 7G 5G 9G24G 4
   8531366.39849   6642506.69447  22571458.8004   22571457.1024
     -2163.2034      -1685.6134
   7811688.50849   6084788.55348  21809305.4264   21809302.8174
     -2035.0104      -1585.7224
  -2566083.66449  -1989426.20446  24445563.8734   24445562.7324
      2537.9304       1977.6084
 -10635961.13749  -8283195.84248  21886943.7824   21886941.2844
       702.9154        547.7264
  -8184124.69149  -6361833.30647  22984471.4064   22984471.4774
      2944.9074       2294.7334
 -14020867.56249 -10918203.82448  20968586.8534   20968584.5654
      1155.6794        900.5294
 00  5  2 16 18 15.0010000  0  6G 2G 7G 5G 9G24G 4
   8563845.72349   6667815.23447  22577639.3634   22577638.0684
     -2167.4514      -1688.9234
   7842227.71949   6108585.32648  21815116.8584   21815114.3524
     -2036.9784      -1587.2554
  -2604158.82449  -2019095.13046  24438318.4564   24438317.4244
      2538.5644       1978.1024
 -10646442.75049  -8291363.32348  21884949.1224   21884946.8244
       694.5124        541.1784
  -8228274.69549  -6396235.87547  22976069.4314   22976070.2644
      2941.6554       2292.1994
 -14038137.61749 -10931660.99348  20965300.0484   20965298.2214
      1146.8954        893.6844
 00  5  2 16 18 30.0010000  0  6G 2G 7G 5G 9G24G 4
   8596393.53549   6693177.13647  22583833.2874   22583832.0484
     -2172.1444      -1692.5794
   7872803.66049   6132410.72448  21820934.8874   21820933.1204
     -2039.6734      -1589.3554
  -2642237.68749  -2048766.96147  24431071.9174   24431070.8124
      2538.6964       1978.2054
 -10656792.63749  -8299428.17448  21882979.4184   21882976.6584
       685.5474        534.1924
  -8272369.37949  -6430595.34747  22967678.5704   22967679.6354
      2937.7254       2289.1364
 -14055271.31249 -10945011.92148  20962039.9594   20962037.5444
      1137.6424        886.4744
 00  5  2 16 18 45.0010000  0  6G 2G 7G 5G 9G24G 4
   8629006.31349   6718589.66047  22590039.0754   22590037.9744
     -2176.6504      -1696.0914
   7903412.58249   6156261.81548  21826759.7484   21826757.1394
     -2042.0164      -1591.1824
  -2680323.77749  -2078444.40646  24423823.8104   24423824.1064
      2538.9994       1978.4414
 -10667014.24649  -8307393.06748  21881034.6184   21881032.1664
       676.8364        527.4054
  -8316412.09849  -6464914.31047  22959297.1474   22959298.1854
      2934.0924       2286.3054
 -14072271.96949 -10958259.16748  20958804.8484   20958802.4954
      1128.5944        879.4244
 00  5  2 16 19  0.0010000  0  6G 2G 7G 5G 9G24G 4
   8661686.75449   6744054.92347  22596258.1184   22596257.1064
     -2181.0944      -1699.5544
   7934057.06649   6180140.61648  21832591.1504   21832588.7274
     -2044.2094      -1592.8904
  -2718414.30949  -2108125.28747  24416576.8604   24416575.4054
      2539.5074       1978.8364
 -10677104.80149  -8315255.83748  21879114.1464   21879111.5324
       668.2474        520.7124
  -8360399.68749  -6499190.32047  22950927.1924   22950927.6044
      2930.5714       2283.5624
 -14089136.72749 -10971400.51648  20955595.6734   20955593.4224
      1119.6884        872.4844
 00  5  2 16 19 15.0010000  0  6G 2G 7G 5G 9G24G 4
   8694433.69549   6769572.00547  22602489.8274   22602488.1144
     -2185.2004      -1702.7534
   7964735.80149   6204046.10748  21838428.7174   21838426.5704
     -2046.2454      -1594.4774
  -2756510.33249  -2137810.50347  24409326.9044   24409326.2224
      2540.1174       1979.3124
 -10687065.22349  -8323017.20348  21877218.8734   21877216.1574
       659.8244        514.1494
  -8404333.13349  -6533424.13847  22942566.6614   22942567.3814
      2927.2514       2280.9754
 -14105866.49249 -10984436.69048  20952412.3374   20952410.0654
      1110.9284        865.6584
 00  5  2 16 19 30.0010000  0  6G 2G 7G 5G 9G24G 4
   8727248.02049   6795141.58747  22608734.3744   22608732.2964
     -2190.0154      -1706.5054
   7995449.45749   6227978.81248  21844273.6634   21844271.0594
     -2048.8964      -1596.5434
  -2794610.80149  -2167499.15447  24402076.8084   24402076.2714
      2540.0004       1979.2214
 -10696894.50849  -8330676.38548  21875348.1944   21875345.6744
       650.7474        507.0764
  -8448211.11749  -6567614.74847  22934216.9134   22934217.6184
      2923.2374       2277.8474
 -14122460.39849 -10997366.99348  20949254.0974   20949251.8464
      1101.5824        858.3764
 00  5  2 16 19 45.0010000  0  6G 2G 7G 5G 9G24G 4
   8760131.50049   6820765.05747  22614991.4954   22614990.3714
     -2194.5024      -1710.0024
   8026199.70349   6251940.03548  21850125.4784   21850122.6754
     -2051.2014      -1598.3394
  -2832713.78949  -2197189.77847  24394826.3054   24394825.4334
      2540.2984       1979.4534
 -10706590.71149  -8338231.86648  21873503.0484   21873500.8554
       642.0024        500.2614
  -8492031.61349  -6601760.54747  22925878.1514   22925878.9384
      2919.4734       2274.9144
 -14138916.41849 -11010189.84248  20946122.8934   20946120.7214
      1092.4904        851.2914
 00  5  2 16 20  0.0010000  0  6G 2G 7G 5G 9G24G 4
   8793081.79749   6846440.57447  22621262.0294   22621260.6044
     -2198.9264      -1713.4494
   8056984.03549   6275927.80048  21855983.6934   21855980.7254
     -2053.3504      -1600.0134
  -2870821.55549  -2226884.11647  24387575.1614   24387573.2474
      2540.6694       1979.7424
 -10716156.14549  -8345685.45148  21871682.9824   21871680.6014
       633.3944        493.5534
  -8535796.60249  -6635863.09947  22917550.3674   22917550.5594
      2915.8894       2272.1214
 -14155236.65649 -11022906.89648  20943017.2534   20943015.2204
      1083.4724        844.2644
 00  5  2 16 20 15.0010000  0  6G 2G 7G 5G 9G24G 4
   8826097.07449   6872166.71947  22627544.6994   22627543.1214
     -2203.1694      -1716.7554
   8087800.37549   6299940.52448  21861847.4984   21861845.0044
     -2055.4794      -1601.6724
  -2908935.85249  -2256583.54847  24380321.1584   24380320.2354
      2541.1824       1980.1424
 -10725592.49249  -8353038.44348  21869887.1794   21869885.0674
       624.8344        486.8844
  -8579507.67249  -6669923.63747  22909231.9764   22909232.3654
      2912.3144       2269.3364
 -14171422.84849 -11035519.49348  20939936.8584   20939934.8224
      1074.6194        837.3664
 00  5  2 16 20 30.0010000  0  6G 2G 7G 5G 9G24G 4
   8859177.84449   6897943.93147  22633839.7614   22633838.1984
     -2207.5784      -1720.1914
   8118649.08649   6323978.47248  21867718.2024   21867715.5344
     -2057.7344      -1603.4294
  -2947056.07449  -2286287.59347  24373067.4394   24373066.1004
      2541.5384       1980.4194
 -10734899.16449  -8360290.40048  21868116.2224   21868113.7254
       616.0694        480.0544
  -8623163.96949  -6703941.50147  22900924.4664   22900924.8424
      2908.5454       2266.3994
 -14187474.26249 -11048027.07848  20936882.3464   20936880.2464
      1065.5964        830.3344
 00  5  2 16 20 45.0010000  0  6G 2G 7G 5G 9G24G 4
   8892326.41049   6923773.96247  22640147.6464   22640145.9784
     -2212.1534      -1723.7564
   8149532.42249   6348043.38748  21873594.8424   21873592.4034
     -2060.0294      -1605.2184
  -2985179.74649  -2315994.32547  24365811.8234   24365811.5224
      2541.6654       1980.5184
 -10744073.72349  -8367439.40748  21866370.4004   21866367.8414
       607.2124        473.1524
  -8666762.86349  -6737914.64047  22892627.6484   22892628.3654
      2904.6294       2263.3474
 -14203388.44149 -11060427.72248  20933854.1124   20933852.1114
      1056.3234        823.1094
 00  5  2 16 21  0.0010000  0  6G 2G 7G 5G 9G24G 4
   8925541.09449   6949655.50247  22646468.2474   22646466.4664
     -2216.3534      -1727.0284
   8180448.36749   6372133.72648  21879477.8704   21879475.3624
     -2062.0214      -1606.7704
  -3023308.52049  -2345705.04247  24358557.4424   24358555.3484
      2542.2074       1980.9414
 -10753117.69549  -8374486.66448  21864649.3464   21864647.0094
       598.7404        466.5514
  -8710305.80949  -6771844.18047  22884341.8784   22884342.0944
      2901.1524       2260.6384
 -14219166.98049 -11072722.67048  20930851.4484   20930849.3574
      1047.5884        816.3024
 00  5  2 16 21 15.0010000  0  6G 2G 7G 5G 9G24G 4
   8958820.95749   6975587.84847  22652801.3544   22652799.6884
     -2220.8844      -1730.5594
   8211395.80549   6396248.59848  21885366.9644   21885364.6614
     -2064.2724      -1608.5244
  -3061443.19149  -2375420.35747  24351300.8244   24351299.0594
      2542.3784       1981.0744
 -10762031.84449  -8381432.75648  21862953.1144   21862950.6934
       589.8634        459.6344
  -8753793.29349  -6805730.48147  22876066.8434   22876067.2054
      2897.1584       2257.5264
 -14234810.54349 -11084912.44248  20927874.5744   20927872.6304
      1038.3454        809.1004
 00  5  2 16 21 30.0010000  0  6G 2G 7G 5G 9G24G 4
   8992167.83649   7001572.38847  22659146.4924   22659145.3194
     -2225.3034      -1734.0024
   8242376.46549   6420389.35748  21891262.3424   21891260.1984
     -2066.3674      -1610.1564
  -3099581.86349  -2405138.76847  24344042.6804   24344042.1114
      2542.7934       1981.3974
 -10770814.33649  -8388276.26348  21861282.0004   21861279.2514
       581.1134        452.8164
  -8797223.37149  -6839572.06847  22867802.4594   22867802.5334
      2893.5604       2254.7224
 -14250317.27349 -11096995.60148  20924923.9004   20924921.7174
      1029.2094        801.9814
 00  5  2 16 21 45.0010000  0  6G 2G 7G 5G 9G24G 4
   9025579.97349   7027607.79647  22665505.0594   22665503.4624
     -2229.6634      -1737.4004
   8273388.51649   6444554.58948  21897163.7284   21897161.3674
     -2068.5504      -1611.8574
  -3137726.07049  -2434861.48847  24336783.8154   24336783.1054
      2543.0714       1981.6144
 -10779466.71149  -8395018.37448  21859635.0274   21859632.9484
       572.4564        446.0704
  -8840597.35549  -6873369.95547  22859548.0344   22859548.8014
      2889.6974       2251.7124
 -14265688.63749 -11108973.27048  20921999.0704   20921996.4304
      1020.2104        794.9694
 00  5  2 16 22  0.0010000  0  6G 2G 7G 5G 9G24G 4
   9059060.36349   7053696.39547  22671876.2174   22671875.0354
     -2234.0824      -1740.8434
   8304434.75849   6468746.44848  21903071.6954   21903069.5274
     -2070.6794      -1613.5164
  -3175872.86749  -2464586.26747  24329524.5784   24329523.6584
      2543.3794       1981.8544
 -10787985.89849  -8401656.69148  21858013.9094   21858011.8304
       563.7354        439.2744
  -8883911.89849  -6907121.50547  22851305.8464   22851306.4464
      2885.8794       2248.7374
 -14280921.62149 -11120843.10448  20919100.0524   20919097.6974
      1011.1234        787.8884
 00  5  2 16 22 15.0010000  0  6G 2G 7G 5G 9G24G 4
   9092606.46949   7079836.18847  22678260.0694   22678258.0804
     -2238.6914      -1744.4354
   8335512.44949   6492962.81248  21908985.4774   21908983.0244
     -2073.0134      -1615.3354
  -3214024.64549  -2494314.91547  24322264.4654   24322263.9924
      2543.5164       1981.9604
 -10796374.32449  -8408193.14148  21856418.0954   21856415.5194
       554.8144        432.3234
  -8927169.35249  -6940828.57547  22843074.0634   22843074.4044
      2881.8214       2245.5754
 -14296018.57049 -11132606.94948  20916227.2784   20916224.7574
      1001.8214        780.6404
 00  5  2 16 22 30.0020000  0  6G 2G 7G 5G 9G24G 4
   9126223.10249   7106030.94047  22684656.3964   22684655.1744
     -2243.1104      -1747.8784
   8366625.99649   6517207.12848  21914906.1054   21914904.0314
     -2075.1764      -1617.0204
  -3252181.30949  -2524047.36747  24315003.9214   24315002.7684
      2543.8774       1982.2424
 -10804629.77749  -8414625.96948  21854846.8244   21854844.2284
       546.0164        425.4674
  -8970369.58249  -6974491.05947  22834853.3994   22834853.7664
      2877.9644       2242.5694
 -14310977.67249 -11144263.37748  20913380.4134   20913377.9944
       992.7104        773.5404
 00  5  2 16 22 45.0020000  0  6G 2G 7G 5G 9G24G 4
   9159903.59049   7132275.47047  22691065.8124   22691064.7954
     -2247.6664      -1751.4284
   8397769.02049   6541474.41048  21920832.9124   21920830.1004
     -2077.4464      -1618.7894
  -3290339.77349  -2553781.20247  24307742.7134   24307741.3134
      2543.9064       1982.2654
 -10812753.21149  -8420955.91748  21853300.9814   21853298.6834
       537.0654        418.4934
  -9013508.75449  -7008105.95847  22826644.2214   22826644.6614
      2873.8624       2239.3734
 -14325799.02049 -11155812.46548  20910559.6814   20910557.7294
       983.4134        766.2964
 00  5  2 16 23  0.0020000  0  6G 2G 7G 5G 9G24G 4
   9193653.07049   7158573.74247  22697488.4034   22697486.8764
     -2252.2224      -1754.9784
   8428946.36749   6565768.43848  21926765.3264   21926763.0034
     -2079.6784      -1620.5284
  -3328499.55149  -2583516.07047  24300480.9354   24300479.7474
      2544.0874       1982.4054
 -10820742.19149  -8427181.09448  21851780.7734   21851778.3934
       528.1154        411.5184
  -9056586.46549  -7041672.97247  22818446.6484   22818447.2114
      2869.8004       2236.2084
 -14340480.49649 -11167252.56148  20907766.0904   20907764.1504
       974.1164        759.0524
 00  5  2 16 23 15.0020000  0  6G 2G 7G 5G 9G24G 4
   9227467.69949   7184922.77047  22703922.5714   22703921.4324
     -2256.4454      -1758.2694
   8460153.94949   6590086.02148  21932704.2054   21932702.0424
     -2081.4794      -1621.9324
  -3366664.37549  -2613254.85247  24293217.8594   24293216.7904
      2544.5024       1982.7294
 -10828600.52049  -8433304.47148  21850285.8114   21850283.0094
       519.5754        404.8644
  -9099606.43049  -7075194.98747  22810260.0364   22810260.4264
      2866.0744       2233.3054
 -14355025.83249 -11178586.57148  20904998.3114   20904996.5344
       965.2004        752.1044
 00  5  2 16 23 30.0020000  0  6G 2G 7G 5G 9G24G 4
   9261348.32449   7211323.23247  22710370.5714   22710369.1294
     -2260.9184      -1761.7544
   8491392.46149   6614427.71048  21938648.8324   21938646.2714
     -2083.6044      -1623.5874
  -3404833.28549  -2642996.85647  24285955.0154   24285953.8204
      2544.7274       1982.9044
 -10836327.14849  -8439325.22548  21848815.0604   21848812.9234
       510.7424        397.9814
  -9142567.26249  -7108670.91947  22802084.8334   22802084.9294
      2862.0904       2230.2004
 -14369434.11349 -11189813.78848  20902256.7324   20902254.6264
       955.9864        744.9244
 00  5  2 16 23 45.0020000  0  6G 2G 7G 5G 9G24G 4
   9295294.80549   7237775.01247  22716830.2504   22716828.4274
     -2265.2694      -1765.1444
   8522661.59849   6638793.25548  21944599.1734   21944596.6794
     -2085.6404      -1625.1744
  -3443006.33249  -2672742.04847  24278691.2564   24278690.1164
      2544.9324       1983.0644
 -10843922.19549  -8445243.43748  21847369.4844   21847367.4144
       501.9684        391.1444
  -9185468.96549  -7142100.78747  22793920.9664   22793921.3044
      2858.1834       2227.1564
 -14383705.22749 -11200934.12348  20899540.6134   20899538.7674
       946.8124        737.7754
 00  5  2 16 24  0.0020000  0  6G 2G 7G 5G 9G24G 4
   9329307.57449   7264278.44147  22723302.4594   22723300.9654
     -2269.9024      -1768.7554
   8553961.57049   6663182.83248  21950555.3264   21950553.2014
     -2087.8964      -1626.9324
  -3481183.04349  -2702490.10847  24271425.8324   24271424.6964
      2545.1564       1983.2394
 -10851385.14849  -8451058.72848  21845949.6114   21845947.2714
       493.0034        384.1584
  -9228310.75449  -7175483.95747  22785768.7424   22785769.0344
      2853.9794       2223.8804
 -14397838.66449 -11211947.17448  20896851.4084   20896849.0634
       937.5344        730.5464
 00  5  2 16 24 15.0020000  0  6G 2G 7G 5G 9G24G 4
   9363387.09049   7290833.88347  22729787.5514   22729786.4784
     -2274.1214      -1772.0424
   8585292.81649   6687596.78448  21956517.4754   21956515.0424
     -2089.6344      -1628.2864
  -3519362.70749  -2732240.49947  24264160.8984   24264159.7634
      2545.5134       1983.5164
 -10858715.34449  -8456770.56748  21844554.7284   21844552.1724
       484.3804        377.4394
  -9271091.93749  -7208819.91647  22777627.2764   22777628.0124
      2850.1764       2220.9164
 -14411833.88749 -11222852.52548  20894187.9774   20894185.7384
       928.5114        723.5154
 00  5  2 16 24 30.0020000  0  6G 2G 7G 5G 9G24G 4
   9397532.76249   7317440.86447  22736285.4774   22736283.9814
     -2278.5644      -1775.5054
   8616654.52049   6712034.46048  21962485.1164   21962482.9324
     -2091.7684      -1629.9494
  -3557545.91049  -2761993.60647  24256894.9494   24256893.4894
      2545.7714       1983.7184
 -10865913.35549  -8462379.41348  21843185.1184   21843182.3284
       475.5274        370.5414
  -9313812.69949  -7242108.78147  22769497.8304   22769498.2214
      2846.1384       2217.7704
 -14425691.18449 -11233650.40648  20891550.9154   20891549.1064
       919.2044        716.2634
 00  5  2 16 24 45.0020000  0  6G 2G 7G 5G 9G24G 4
   9431744.84849   7344099.62247  22742795.8454   22742794.1334
     -2283.1984      -1779.1164
   8648046.87149   6736496.01348  21968459.0174   21968456.6944
     -2093.9504      -1631.6504
  -3595732.21149  -2791749.13647  24249628.2644   24249626.9484
      2545.6694       1983.6384
 -10872978.76249  -8467884.92748  21841840.4454   21841838.0094
       466.4894        363.4984
  -9356472.36749  -7275350.05147  22761380.1474   22761380.3194
      2841.7784       2214.3724
 -14439410.18449 -11244340.51248  20888940.4454   20888938.2084
       909.8444        708.9694
 00  5  2 16 25  0.0020000  0  6G 2G 7G 5G 9G24G 4
   9466025.01249   7370811.40747  22749319.1264   22749317.4354
     -2287.4804      -1782.4524
   8679471.25449   6760982.52948  21974438.9944   21974436.7784
     -2095.8064      -1633.0954
  -3633919.79349  -2821505.67547  24242361.0414   24242359.8574
      2546.0744       1983.9544
 -10879909.71549  -8473285.67148  21840521.6664   21840519.1464
       457.7394        356.6804
  -9399069.11349  -7308542.27947  22753273.7424   22753274.2154
      2837.8424       2211.3054
 -14452989.15649 -11254921.52148  20886356.8654   20886354.4654
       900.7184        701.8584
 00  5  2 16 25 15.0020000  0  6G 2G 7G 5G 9G24G 4
   9500369.89149   7397573.62447  22755854.5764   22755853.4044
     -2291.8854      -1785.8844
   8710924.19949   6785491.31248  21980424.1914   21980421.8564
     -2097.8714      -1634.7054
  -3672111.87549  -2851265.71447  24235092.8664   24235092.2534
      2546.1334       1984.0004
 -10886709.53949  -8478584.23948  21839227.7164   21839225.4564
       448.8774        349.7744
  -9441605.89849  -7341687.79147  22745179.6674   22745179.7094
      2833.7214       2208.0944
 -14466431.25049 -11265395.86548  20883798.5774   20883796.2254
       891.5534        694.7164
 00  5  2 16 25 30.0020000  0  6G 2G 7G 5G 9G24G 4
   9534778.27049   7424385.32247  22762402.7414   22762401.1844
     -2296.0114      -1789.0994
   8742404.48449   6810021.39748  21986414.7194   21986412.3284
     -2099.5564      -1636.0174
  -3710309.51649  -2881030.05747  24227824.2524   24227823.7844
      2546.6944       1984.4374
 -10893379.23049  -8483781.39648  21837958.4174   21837956.2584
       440.4004        343.1694
  -9484083.61349  -7374787.27747  22737096.5674   22737096.7164
      2829.9274       2205.1384
 -14479737.46549 -11275764.32548  20881266.1754   20881264.2364
       882.5244        687.6814
 00  5  2 16 25 45.0020000  0  6G 2G 7G 5G 9G24G 4
   9569254.55949   7451249.94347  22768963.1474   22768961.6384
     -2300.7964      -1792.8284
   8773916.31349   6834576.05848  21992411.4624   21992408.5814
     -2101.9094      -1637.8514
  -3748508.20349  -2910795.26247  24220555.5744   24220554.8574
      2546.6164       1984.3764
 -10899914.29749  -8488873.65848  21836714.9144   21836712.8464
       431.1044        335.9254
  -9526497.51649  -7407837.03447  22729025.4024   22729025.8164
      2825.3424       2201.5654
 -14492903.38349 -11286023.47148  20878760.9264   20878758.6354
       873.0324        680.2854
 00  5  2 16 26  0.0020000  0  6G 2G 7G 5G 9G24G 4
   9603798.78549   7478167.49147  22775536.8834   22775535.1994
     -2304.9664      -1796.0774
   8805459.39149   6859155.06548  21998413.6244   21998411.6164
     -2103.6824      -1639.2324
  -3786707.81649  -2940561.19947  24213285.8794   24213285.2144
      2546.9144       1984.6084
 -10906314.64849  -8493860.95348  21835497.1944   21835494.9774
       422.5004        329.2214
  -9568847.30549  -7440836.83047  22720966.5704   22720966.7194
      2821.4654       2198.5444
 -14505928.77349 -11296173.11048  20876282.2974   20876280.4274
       863.9654        673.2194
 00  5  2 16 26 15.0020000  0  6G 2G 7G 5G 9G24G 4
   9638409.73049   7505137.04147  22782122.9144   22782121.6144
     -2309.9374      -1799.9514
   8837032.56349   6883757.52548  22004421.9854   22004419.4114
     -2106.1914      -1641.1884
  -3824909.47349  -2970328.68047  24206016.9194   24206016.2354
      2546.5334       1984.3124
 -10912581.37549  -8498744.12348  21834304.7454   21834302.3724
       412.9744        321.7984
  -9611133.91449  -7473787.41047  22712919.2834   22712919.5074
      2816.6604       2194.8004
 -14518814.75449 -11306214.11648  20873830.1104   20873828.1234
       854.1704        665.5874
 00  5  2 16 26 30.0020000  0  6G 2G 7G 5G 9G24G 4
   9673090.35249   7532160.87647  22788722.7064   22788721.1384
     -2314.3754      -1803.4094
   8868638.64149   6908385.62448  22010436.2074   22010433.7154
     -2108.1884      -1642.7444
  -3863110.02749  -3000095.33547  24198747.4804   24198746.9064
      2546.6604       1984.4114
 -10918711.35949  -8503520.73748  21833137.9594   21833135.6994
       404.0824        314.8694
  -9653354.00049  -7506686.12747  22704885.0924   22704885.5724
      2812.3934       2191.4754
 -14531558.10249 -11316143.98448  20871405.0544   20871402.7274
       844.8104        658.2934
 00  5  2 16 26 45.0020000  0  6G 2G 7G 5G 9G24G 4
   9707837.61349   7559236.63347  22795334.8264   22795333.1404
     -2318.6184      -1806.7154
   8900274.35549   6933036.81648  22016456.1184   22016453.7284
     -2110.0784      -1644.2174
  -3901312.46149  -3029863.42547  24191478.2224   24191476.5444
      2546.8854       1984.5864
 -10924707.55149  -8508193.09548  21831996.9324   21831994.7464
       395.2834        308.0134
  -9695510.32849  -7539535.17847  22696862.9564   22696863.2544
      2808.2424       2188.2414
 -14544161.80549 -11325965.02348  20869006.8114   20869004.2124
       835.6494        651.1554
 00  5  2 16 27  0.0020000  0  6G 2G 7G 5G 9G24G 4
   9742652.16849   7586364.82147  22801959.3934   22801958.0604
     -2323.3354      -1810.3914
   8931940.19949   6957711.48748  22022482.2124   22022480.1844
     -2112.1344      -1645.8194
  -3939515.97349  -3059632.38647  24184208.2314   24184206.8204
      2546.7974       1984.5174
 -10930569.17249  -8512760.59348  21830881.4594   21830879.3174
       386.1724        300.9134
  -9737601.83649  -7572333.71647  22688853.1924   22688853.7244
      2803.8674       2184.8324
 -14556625.11749 -11335676.68148  20866634.9654   20866632.7404
       826.0944        643.7094
 00  5  2 16 27 15.0020000  0  6G 2G 7G 5G 9G24G 4
   9777533.40249   7613544.97447  22808597.3564   22808596.0554
     -2327.6464      -1813.7514
   8963635.48849   6982409.09948  22028513.7284   22028511.5704
     -2113.9704      -1647.2494
  -3977721.05949  -3089402.56347  24176937.3494   24176936.2944
      2546.9734       1984.6544
 -10936296.75449  -8517223.65448  21829791.6244   21829789.1004
       377.4274        294.0994
  -9779628.89549  -7605082.04847  22680855.9314   22680856.0004
      2799.6734       2181.5634
 -14568948.39149 -11345279.21648  20864290.0494   20864287.8794
       816.8954        636.5414
 00  5  2 16 27 30.0020000  0  6G 2G 7G 5G 9G24G 4
   9812480.86749   7640776.75447  22815247.7654   22815245.9844
     -2332.1094      -1817.2284
   8995359.48449   7007129.09248  22034550.5754   22034548.0254
     -2116.0214      -1648.8474
  -4015928.12949  -3119174.26147  24169666.9674   24169666.2514
      2547.1194       1984.7684
 -10941890.84049  -8521582.68148  21828727.0624   21828724.7184
       368.3354        287.0144
  -9821591.75449  -7637780.34347  22672870.5304   22672870.9844
      2795.2884       2178.1474
 -14581132.23449 -11354773.10848  20861971.4344   20861969.3644
       807.5054        629.2254
 00  5  2 16 27 45.0020000  0  6G 2G 7G 5G 9G24G 4
   9847496.82849   7668061.89947  22821911.0104   22821909.4934
     -2336.7194      -1820.8204
   9027114.37549   7031873.15048  22040593.2264   22040590.9954
     -2118.1014      -1650.4684
  -4054134.69949  -3148945.59247  24162396.5394   24162395.6964
      2547.0564       1984.7194
 -10947349.07449  -8525835.85248  21827688.4834   21827685.4774
       359.2434        279.9304
  -9863487.77749  -7670426.55747  22664898.1184   22664898.2554
      2790.7324       2174.5974
 -14593173.93049 -11364156.22748  20859680.0184   20859677.6404
       797.9394        621.7714
 00  5  2 16 28  0.0020000  0  6G 2G 7G 5G 9G24G 4
   9882578.79749   7695398.47847  22828586.6134   22828585.4344
     -2341.1284      -1824.2564
   9058897.60249   7056639.28548  22046641.2504   22046639.5804
     -2119.9374      -1651.8994
  -4092343.07449  -3178718.34047  24155125.8274   24155124.9184
      2547.1884       1984.8214
 -10952673.63749  -8529984.87148  21826675.2054   21826672.8114
       350.4204        273.0544
  -9905319.02049  -7703022.30147  22656937.4364   22656938.1184
      2786.4264       2171.2414
 -14605076.03949 -11373430.58748  20857415.1864   20857413.0294
       788.6524        614.5344
 00  5  2 16 28 15.0020000  0  6G 2G 7G 5G 9G24G 4
   9917728.83649   7722788.09147  22835276.1084   22835274.4634
     -2345.7284      -1827.8404
   9090711.12549   7081429.03148  22052695.6904   22052693.1934
     -2121.9924      -1653.5004
  -4130551.02749  -3208490.75547  24147855.6524   24147853.9634
      2546.9974       1984.6734
 -10957862.27349  -8534027.95748  21825687.5634   21825685.1094
       341.2164        265.8824
  -9947083.16449  -7735565.73747  22648990.1074   22648990.3024
      2781.8654       2167.6874
 -14616836.13749 -11382594.28948  20855177.1704   20855174.6654
       779.1704        607.1454
 00  5  2 16 28 30.0020000  0  6G 2G 7G 5G 9G24G 4
   9952946.15249   7750230.12847  22841977.4574   22841976.1134
     -2350.0494      -1831.2074
   9122553.98049   7106241.64048  22058754.9234   22058752.8024
     -2123.7404      -1654.8634
  -4168759.21949  -3238263.33947  24140584.3264   24140582.9974
      2547.2714       1984.8864
 -10962915.77749  -8537965.76048  21824726.2714   21824723.5784
       332.4464        259.0494
  -9988780.60249  -7768057.20847  22641055.6144   22641055.4894
      2777.7444       2164.4764
 -14628455.03149 -11391647.94848  20852966.0754   20852963.8224
       769.9714        599.9774
 00  5  2 16 28 45.0020000  0  6G 2G 7G 5G 9G24G 4
   9988231.26249   7777724.98947  22848691.6184   22848690.7074
     -2354.5564      -1834.7194
   9154426.55549   7131077.39448  22064819.7984   22064817.5504
     -2125.7764      -1656.4494
  -4206967.06649  -3268035.65547  24133313.6814   24133312.3704
      2547.1444       1984.7874
 -10967833.53149  -8541797.77548  21823790.3154   21823787.8614
       323.3594        251.9684
 -10030410.67649  -7800496.20147  22633133.4554   22633133.3484
      2773.2134       2160.9454
 -14639931.98849 -11400591.01348  20850782.2704   20850779.7784
       760.4204        592.5354
 00  5  2 16 29  0.0020000  0  6G 2G 7G 5G 9G24G 4
  10023582.51249   7805271.38747  22855419.2744   22855417.9984
     -2359.0144      -1838.1924
   9186327.07849   7155934.92748  22070890.6564   22070888.1804
     -2127.6614      -1657.9184
  -4245176.07049  -3297808.87247  24126042.3604   24126041.2964
      2547.2754       1984.8904
 -10972617.08249  -8545525.22748  21822880.2404   21822877.5454
       314.3854        244.9754
 -10071974.55549  -7832883.59647  22625224.0974   22625224.6164
      2768.6624       2157.3994
 -14651268.63349 -11409424.75248  20848624.7834   20848622.8834
       751.0744        585.2534
 00  5  2 16 29 15.0020000  0  6G 2G 7G 5G 9G24G 4
  10059000.73849   7832869.97947  22862159.1044   22862157.3404
     -2363.5254      -1841.7084
   9218256.12949   7180814.69748  22076966.7894   22076964.3554
     -2129.5614      -1659.3984
  -4283385.21549  -3327582.22247  24118771.7594   24118770.3584
      2547.2754       1984.8904
 -10977265.55949  -8549147.42148  21821995.4784   21821993.1204
       305.4204        237.9904
 -10113471.08649  -7865218.51547  22617327.6424   22617327.6354
      2764.1604       2153.8914
 -14662463.91849 -11418148.33848  20846494.4334   20846492.0624
       741.6604        577.9174
 00  5  2 16 29 30.0020000  0  6G 2G 7G 5G 9G24G 4
  10094485.73449   7860520.60747  22868911.2444   22868910.3194
     -2367.8564      -1845.0834
   9250213.49249   7205716.52548  22083047.9724   22083045.2474
     -2131.3824      -1660.8174
  -4321594.50849  -3357355.65947  24111500.9034   24111499.6884
      2547.3394       1984.9394
 -10981779.01649  -8552664.40848  21821136.5344   21821133.8904
       296.4314        230.9854
 -10154900.28149  -7897500.97147  22609444.1104   22609444.1094
      2759.7364       2150.4444
 -14673517.97749 -11426761.87848  20844391.1294   20844389.1064
       732.2314        570.5704
 00  5  2 16 29 45.0020000  0  6G 2G 7G 5G 9G24G 4
  10130038.86349   7888224.31247  22875677.1974   22875675.8034
     -2372.4714      -1848.6784
   9282200.27749   7230641.27948  22089134.7464   22089132.1204
     -2133.3694      -1662.3664
  -4359802.54349  -3387128.14747  24104229.7904   24104228.7154
      2547.2364       1984.8594
 -10986156.17649  -8556075.17948  21820303.5944   21820301.6714
       287.3444        223.9044
 -10196260.54349  -7929729.70347  22601573.0804   22601573.0594
      2755.1324       2146.8564
 -14684429.37149 -11435264.25148  20842314.3284   20842312.2274
       722.7544        563.1854
 00  5  2 16 30  0.0020000  0  6G 2G 7G 5G 9G24G 4
  10165660.46949   7915981.37947  22882455.6744   22882454.8744
     -2376.8904      -1852.1224
   9314216.68849   7255589.11648  22095227.0174   22095225.1624
     -2135.2394      -1663.8234
  -4398008.74649  -3416899.17247  24096959.7564   24096958.5184
      2547.1924       1984.8254
 -10990396.42249  -8559379.28048  21819497.0554   21819494.5824
       278.2864        216.8464
 -10237551.00849  -7961904.05147  22593715.7814   22593715.7624
      2750.5224       2143.2644
 -14695197.63349 -11443655.08248  20840265.5514   20840263.6044
       713.1934        555.7354
 00  5  2 16 30 15.0020000  0  6G 2G 7G 5G 9G24G 4
  10201351.53149   7943792.57147  22889247.0384   22889246.1984
     -2381.6894      -1855.8624
   9346263.68449   7280560.78648  22101325.4694   22101323.2234
     -2137.5104      -1665.5924
  -4436212.03549  -3446667.95847  24089689.7644   24089688.1434
      2546.8314       1984.5444
 -10994498.73049  -8562575.89048  21818716.1614   21818713.9354
       268.8774        209.5154
 -10278770.42249  -7994023.03247  22585871.9474   22585872.4384
      2745.5964       2139.4254
 -14705821.59449 -11451933.48948  20838243.9524   20838241.4844
       703.4574        548.1484
 00  5  2 16 30 30.0020000  0  6G 2G 7G 5G 9G24G 4
  10237110.22349   7971656.45047  22896052.0854   22896051.4584
     -2386.1434      -1859.3324
   9378339.23849   7305554.70348  22107429.1604   22107426.7874
     -2139.3754      -1667.0454
  -4474414.16049  -3476435.83847  24082419.8264   24082419.2984
      2546.8024       1984.5214
 -10998464.84049  -8565666.36348  21817961.5494   21817958.9094
       259.8834        202.5064
 -10319920.40249  -8026087.92347  22578041.4634   22578041.4044
      2741.0404       2135.8764
 -14716303.06249 -11460100.84748  20836249.4304   20836246.6964
       694.0044        540.7824
 00  5  2 16 30 45.0020000  0  6G 2G 7G 5G 9G24G 4
  10272936.31649   7999572.87247  22902869.8804   22902868.4534
     -2390.8204      -1862.9774
   9410443.02349   7330570.62948  22113538.5174   22113536.3094
     -2141.3774      -1668.6054
  -4512615.02049  -3506202.71247  24075151.0784   24075149.6024
      2546.4994       1984.2854
 -11002294.85949  -8568650.80148  21817232.5294   21817230.2564
       250.6934        195.3454
 -10361000.76649  -8058098.55547  22570223.9734   22570224.0554
      2736.1524       2132.0674
 -14726642.01649 -11468157.16448  20834281.9034   20834279.2644
       684.3654        533.2724
 00  5  2 16 31  0.0020000  0  6G 2G 7G 5G 9G24G 4
  10308830.71549   8027542.49847  22909699.9804   22909698.7214
     -2395.0544      -1866.2764
   9442575.84849   7355609.17848  22119653.1004   22119651.0234
     -2143.0424      -1669.9034
  -4550813.67249  -3535967.85647  24067881.7564   24067880.7744
      2546.6414       1984.3954
 -11005987.72349  -8571528.36348  21816529.9784   21816527.1844
       241.8074        188.4214
 -10402010.21549  -8090053.93247  22562420.1784   22562420.1514
      2731.8024       2128.6774
 -14736837.45349 -11476101.64848  20832341.6614   20832339.3154
       675.1614        526.1004
 00  5  2 16 31 15.0020000  0  6G 2G 7G 5G 9G24G 4
  10344793.08649   8055565.09847  22916543.8304   22916542.2234
     -2399.7274      -1869.9174
   9474737.28149   7380670.01148  22125773.0114   22125770.6904
     -2145.0984      -1671.5054
  -4589010.29349  -3565731.43147  24060612.7114   24060611.4474
      2546.3434       1984.1634
 -11009543.65249  -8574299.21848  21815853.3304   21815850.7774
       232.4414        181.1234
 -10442948.73849  -8121954.02447  22554629.8264   22554629.9804
      2726.8124       2124.7884
 -14746889.55549 -11483934.43548  20830428.7874   20830426.2514
       665.2694        518.3914
 00  5  2 16 31 30.0020000  0  6G 2G 7G 5G 9G24G 4
  10380823.90249   8083641.02447  22923399.9804   22923398.7084
     -2404.5174      -1873.6494
   9506927.51249   7405753.29248  22131898.9474   22131896.1864
     -2147.1394      -1673.0954
  -4627204.28549  -3595492.95147  24053344.7384   24053344.1954
      2546.1284       1983.9964
 -11012962.20749  -8576963.03848  21815202.6454   21815200.1914
       223.1694        173.8984
 -10483815.85949  -8153798.51247  22546852.6344   22546853.2644
      2721.9344       2120.9874
 -14756797.73849 -11491655.09048  20828543.4854   20828540.5924
       655.5914        510.8504
 00  5  2 16 31 45.0020000  0  6G 2G 7G 5G 9G24G 4
  10416923.00049   8111770.15547  22930269.8404   22930268.2204
     -2408.8724      -1877.0434
   9539146.39849   7430858.91248  22138029.9054   22138027.7584
     -2148.7794      -1674.3734
  -4665395.57849  -3625252.36647  24046076.8694   24046076.0754
      2546.0454       1983.9314
 -11016243.46149  -8579519.86848  21814578.3344   21814575.6014
       214.1364        166.8594
 -10524611.09449  -8185586.95747  22539089.9694   22539090.0904
      2717.3494       2117.4154
 -14766562.14149 -11499263.70148  20826685.0534   20826682.8854
       646.1624        503.5034
 00  5  2 16 32  0.0020000  0  6G 2G 7G 5G 9G24G 4
  10453092.37549   8139954.05847  22937152.3894   22937151.5074
     -2413.6774      -1880.7874
   9571395.83649   7455988.32848  22144166.8234   22144164.4254
     -2151.0604      -1676.1504
  -4703582.06649  -3655008.04747  24038810.5284   24038809.4844
      2545.5224       1983.5244
 -11019385.26249  -8581968.02348  21813980.3284   21813977.5414
       204.6684        159.4824
 -10565332.28149  -8217317.71147  22531340.7624   22531340.8364
      2712.1444       2113.3594
 -14776180.65649 -11506758.63548  20824854.8164   20824852.2604
       636.2554        495.7834
 00  5  2 16 32 15.0020000  0  6G 2G 7G 5G 9G24G 4
  10489330.89149   8168191.83947  22944048.1704   22944047.2624
     -2418.1594      -1884.2804
   9603674.51649   7481140.52948  22150309.1574   22150307.1214
     -2152.8224      -1677.5244
  -4741764.73049  -3684760.74747  24031544.6914   24031543.6824
      2545.4054       1983.4334
 -11022388.63349  -8584308.32348  21813408.6484   21813406.4334
       195.6794        152.4774
 -10605980.13749  -8248991.32247  22523605.5844   22523605.7904
      2707.4124       2109.6724
 -14785654.16849 -11514140.57648  20823052.0104   20823049.4214
       626.7724        488.3944
 00  5  2 16 32 30.0020000  0  6G 2G 7G 5G 9G24G 4
  10525638.06649   8196483.11247  22950957.3484   22950956.5164
     -2422.8564      -1887.9404
   9635981.85549   7506315.07048  22156457.3474   22156454.8634
     -2154.9274      -1679.1644
  -4779943.84049  -3714510.67947  24024279.3294   24024278.1514
      2545.1034       1983.1974
 -11025253.91449  -8586541.01648  21812863.8134   21812861.3504
       186.3284        145.1914
 -10646554.82849  -8280607.92847  22515884.3824   22515884.7274
      2702.4174       2105.7794
 -14794983.01249 -11521409.79748  20821276.8704   20821274.3864
       617.0364        480.8074
 00  5  2 16 32 45.0020000  0  6G 2G 7G 5G 9G24G 4
  10562015.49249   8224829.11447  22957879.8474   22957878.7454
     -2427.5734      -1891.6164
   9668319.33649   7531513.09648  22162610.7594   22162608.4304
     -2156.8854      -1680.6894
  -4818117.69149  -3744256.50847  24017015.5404   24017013.2574
      2544.7364       1982.9114
 -11027979.61349  -8588664.93748  21812345.0114   21812342.6074
       177.0564        137.9654
 -10687054.47349  -8312166.04447  22508177.6284   22508177.8334
      2697.4514       2101.9104
 -14804165.57849 -11528565.01948  20819529.4164   20819527.0394
       607.2274        473.1644
 00  5  2 16 33  0.0020000  0  6G 2G 7G 5G 9G24G 4
  10598462.33249   8253229.21747  22964815.2784   22964814.2634
     -2432.0754      -1895.1244
   9700686.10949   7556733.94048  22168769.7294   22168767.4794
     -2158.6914      -1682.0974
  -4856286.87949  -3773998.69647  24009752.0184   24009750.5164
      2544.5264       1982.7484
 -11030566.36349  -8590680.59648  21811852.9914   21811850.1734
       167.8474        130.7904
 -10727479.57849  -8343666.09247  22500485.0644   22500484.9214
      2692.5594       2098.0984
 -14813202.64549 -11535606.88148  20817809.8934   20817807.3104
       597.6564        465.7064
 00  5  2 16 33 15.0020000  0  7G 2G 7G 5G 9G16G24G 4
  10634978.36349   8281683.23947  22971764.2524   22971763.0274
     -2436.5334      -1898.5974
   9733081.57449   7581977.15448  22174934.5154   22174932.4134
     -2160.3614      -1683.3984
  -4894451.63349  -3803737.44747  24002488.9104   24002488.1544
      2544.4294       1982.6724
 -11033014.39149  -8592588.15648  21811386.9144   21811384.3804
       158.7944        123.7364
     -5017.06659                  25002149.6504
      1119.6834
 -10767830.14549  -8375108.04547  22492806.8454   22492807.0564
      2687.7694       2094.3654
 -14822094.19549 -11542535.35848  20816117.8244   20816115.4944
       588.1304        458.2834
 00  5  2 16 33 30.0020000  0  7G 2G 7G 5G 9G16G24G 4
  10671561.89849   8310189.87047  22978726.0414   22978724.8254
     -2441.2404      -1902.2654
   9765504.04349   7607241.39148  22181104.4184   22181102.0394
     -2162.6274      -1685.1644
  -4932613.44549  -3833473.88247  23995227.1304   23995226.6094
      2543.8044       1982.1854
 -11035325.25449  -8594388.83348  21810946.9274   21810944.5734
       149.3164        116.3504
    -21766.92649    -14166.47756  24998962.6254   24998963.1334
      1113.6134        867.7514
 -10808107.47349  -8406492.93747  22485141.8874   22485141.8594
      2682.6074       2090.3434
 -14830841.91049 -11549351.74348  20814453.0564   20814450.5654
       578.2134        450.5554
 00  5  2 16 33 45.0020000  0  7G 2G 7G 5G 9G16G24G 4
  10708213.15249   8338749.24547  22985700.4964   22985699.1834
     -2445.6154      -1905.6744
   9797953.55949   7632526.71948  22187279.2524   22187277.2444
     -2164.1064      -1686.3174
  -4970772.00049  -3863207.81647  23987965.5854   23987964.8964
      2543.8874       1982.2494
 -11037498.71949  -8596082.44748  21810533.4804   21810531.0994
       140.4104        109.4114
    -38428.27049    -27149.32246  24995791.9504   24995792.3124
      1107.8134        863.2314
 -10848311.05949  -8437820.36447  22477491.6314   22477491.2654
      2677.8084       2086.6034
 -14839445.57849 -11556055.88048  20812815.8734   20812813.3544
       568.7704        443.1974
 00  5  2 16 34  0.0020000  0  7G 2G 7G 5G 9G16G24G 4
  10744928.96549   8367358.94647  22992687.4624   22992686.4944
     -2449.9664      -1909.0644
   9830426.92249   7657830.62248  22193459.0014   22193456.7534
     -2165.7624      -1687.6074
  -5008930.28149  -3892941.52047  23980705.1344   23980703.3994
      2543.8134       1982.1924
 -11039537.83249  -8597671.37148  21810145.5434   21810143.2294
       131.3674        102.3644
    -55004.29749    -40065.74546  24992637.5524   24992638.3064
      1102.1394        858.8094
 -10888443.82049  -8469092.60347  22469854.4254   22469854.3744
      2673.0524       2082.8974
 -14847908.04749 -11562650.00948  20811205.6894   20811203.0364
       559.3074        435.8234
 00  5  2 16 34 15.0020000  0  7G 2G 7G 5G 9G16G24G 4
  10781715.53149   8396023.77347  22999687.7074   22999686.4894
     -2454.8684      -1912.8844
   9862930.21949   7683157.85248  22199644.2764   22199641.7624
     -2167.9154      -1689.2844
  -5047081.82449  -3922669.95647  23973444.2904   23973443.5934
      2543.1494       1981.6754
 -11041436.25849  -8599150.66748  21809784.3294   21809782.0404
       121.8164         94.9224
    -71488.11349    -52910.23746  24989501.2904   24989501.8914
      1095.7424        853.8254
 -10928499.02749  -8500304.41847  22462232.0604   22462232.3444
      2667.7934       2078.8004
 -14856223.11749 -11569129.26748  20809623.1664   20809620.9574
       549.3704        428.0814
 00  5  2 16 34 30.0020000  0  7G 2G 7G 5G 9G16G24G 4
  10818572.26249   8424743.27547  23006700.9944   23006700.1424
     -2459.2044      -1916.2634
   9895462.69949   7708507.82148  22205835.0244   22205832.4974
     -2169.5564      -1690.5634
  -5085227.07049  -3952393.49747  23966186.0094   23966184.6784
      2543.0664       1981.6104
 -11043194.42649  -8600520.67348  21809449.7794   21809446.9694
       112.8134         87.9064
    -87880.00849    -65683.16746  24986381.7354   24986382.3664
      1090.0394        849.3814
 -10968477.03149  -8531456.05647  22454624.6364   22454624.8164
      2662.8864       2074.9764
 -14864391.22349 -11575494.02448  20808068.9144   20808066.3104
       539.8734        420.6804
 00  5  2 16 34 45.0020000  0  7G 2G 7G 5G 9G16G24G 4
  10855496.57849   8453515.42847  23013727.9624   23013726.5614
     -2464.1504      -1920.1174
   9928021.76649   7733878.50748  22212030.2704   22212028.2484
     -2171.6894      -1692.2264
  -5123368.41449  -3982114.00047  23958927.0534   23958926.5134
      2542.5494       1981.2074
 -11044814.86349  -8601783.36248  21809141.4974   21809139.1554
       103.1984         80.4144
   -104182.38349    -78386.35746  24983279.6164   24983279.7034
      1083.6574        844.4084
 -11008380.14149  -8562549.35647  22447031.2724   22447031.5164
      2657.4804       2070.7644
 -14872414.79349 -11581746.13648  20806541.8464   20806539.6354
       529.9224        412.9264
 00  5  2 16 35  0.0020000  0  7G 2G 7G 5G 9G16G24G 4
  10892488.01249   8482339.89447  23020766.6434   23020765.6974
     -2468.3504      -1923.3894
   9960606.76249   7759269.40248  22218231.6714   22218229.0224
     -2173.1794      -1693.3864
  -5161506.16849  -4011831.70747  23951670.4184   23951669.3424
      2542.3634       1981.0624
 -11046298.06249  -8602939.10848  21808859.1854   21808856.7674
        94.3024         73.4824
   -120395.18049    -91019.72746  24980194.4854   24980194.8544
      1077.8424        839.8774
 -11048208.41049  -8593584.32347  22439452.3794   22439452.5194
      2652.7104       2067.0474
 -14880294.18049 -11587885.90448  20805042.3954   20805039.9524
       520.4594        405.5524
 00  5  2 16 35 15.0020000  0  7G 2G 7G 5G 9G16G24G 4
  10929547.89849   8511217.69247  23027819.0854   23027818.1224
     -2472.7734      -1926.8364
   9993218.89549   7784681.44048  22224437.2394   22224434.7844
     -2174.7854      -1694.6384
  -5199638.81649  -4041545.43547  23944413.4684   23944412.9424
      2542.0804       1980.8424
 -11047642.66049  -8603986.85248  21808603.5494   21808601.0434
        85.2004         66.3904
   -136516.95749   -103582.16246  24977126.6294   24977126.8874
      1071.9384        835.2774
 -11087960.28949  -8624559.77747  22431887.5514   22431887.4544
      2647.7444       2063.1774
 -14888028.09849 -11593912.33148  20803571.0324   20803568.3744
       510.9624        398.1524
 00  5  2 16 35 30.0020000  0  7G 2G 7G 5G 9G16G24G 4
  10966674.52049   8540147.49747  23034883.8534   23034883.2344
     -2477.3934      -1930.4364
  10025856.36349   7810113.22748  22230647.9094   22230645.4324
     -2176.7684      -1696.1834
  -5237767.96549  -4071256.43947  23937157.9144   23937157.2434
      2541.7144       1980.5564
 -11048850.16049  -8604927.76848  21808373.4494   21808370.7954
        75.9084         59.1494
   -152548.91849   -116074.62946  24974075.8144   24974076.7254
      1065.6694        830.3914
 -11127637.09849  -8655476.73047  22424337.3294   22424337.4804
      2642.5444       2059.1254
 -14895618.13349 -11599826.62948  20802126.6744   20802124.0394
       501.1084        390.4744
 00  5  2 16 35 45.0020000  0  7G 2G 7G 5G 9G16G24G 4
  11003869.85949   8569130.84947  23041961.8854   23041961.2334
     -2482.0264      -1934.0474
  10058521.07849   7835566.23548  22236864.0094   22236861.7654
     -2178.6084      -1697.6174
  -5275891.48049  -4100963.05147  23929903.5694   23929902.1024
      2541.3574       1980.2794
 -11049918.54749  -8605760.28548  21808170.0704   21808167.5144
        66.5434         51.8524
   -168488.88349   -128495.43246  24971042.2684   24971043.1824
      1059.4874        825.5754
 -11167236.69949  -8686333.52847  22416801.8964   22416801.8614
      2637.2364       2054.9894
 -14903062.12949 -11605627.13148  20800709.8644   20800707.4184
       491.3574        382.8764
 00  5  2 16 36  0.0020000  0  7G 2G 7G 5G 9G16G24G 4
  11041133.96949   8598167.78447  23049053.7824   23049052.3434
     -2486.4404      -1937.4864
  10091213.02349   7861040.46348  22243084.5074   22243082.4244
     -2180.2154      -1698.8694
  -5314008.97749  -4130664.97147  23922650.0194   23922648.3584
      2540.9774       1979.9824
 -11050847.59849  -8606484.22448  21807993.5914   21807990.5654
        57.3544         44.6914
   -184336.27349   -140844.04246  24968026.4114   24968027.6934
      1053.4474        820.8684
 -11206758.52349  -8717129.72547  22409280.5324   22409281.3434
      2632.2804       2051.1274
 -14910359.88349 -11611313.68848  20799321.1384   20799318.5614
       481.6994        375.3504
 00  5  2 16 36 15.0020000  0  7G 2G 7G 5G 9G16G24G 4
  11078466.49249   8627258.03547  23056157.6944   23056156.1864
     -2491.3334      -1941.2984
  10123931.55149   7886535.41148  22249310.8444   22249308.5414
     -2182.3734      -1700.5504
  -5352120.71149  -4160362.36847  23915397.2914   23915396.3284
      2540.4054       1979.5374
 -11051637.70749  -8607099.90148  21807843.0074   21807840.5314
        47.7834         37.2344
   -200091.30549   -153120.67946  24965028.9224   24965029.5894
      1047.0704        815.8994
 -11246202.66449  -8747865.37447  22401774.8374   22401774.7194
      2626.7924       2046.8514
 -14917511.68749 -11616886.51548  20797960.5324   20797958.2054
       471.6894        367.5504
 00  5  2 16 36 30.0020000  0  7G 2G 7G 5G 9G16G24G 4
  11115868.28949   8656402.24347  23063275.0304   23063273.7964
     -2495.6054      -1944.6284
  10156677.52049   7912051.73248  22255542.3214   22255540.3854
     -2183.8824      -1701.7264
  -5390225.73849  -4190054.58647  23908146.1074   23908145.2774
      2540.1864       1979.3654
 -11052287.96149  -8607606.59548  21807719.5294   21807716.8884
        38.7454         30.1914
   -215752.77049   -165324.49346  24962048.3114   24962049.1414
      1041.1434        811.2804
 -11285567.96149  -8778539.59847  22394284.0554   22394284.0004
      2621.7924       2042.9554
 -14924516.66449 -11622344.92748  20796627.0414   20796625.0374
       462.2614        360.2034
 00  5  2 16 36 45.0020000  0  7G 2G 7G 5G 9G16G24G 4
  11153337.44549   8685598.94047  23070404.7394   23070404.1684
     -2500.2984      -1948.2844
  10189449.00049   7937587.93548  22261778.4354   22261776.4584
     -2185.7674      -1703.1954
  -5428325.68049  -4219742.84147  23900896.5144   23900894.6794
      2539.6194       1978.9244
 -11052800.14149  -8608005.70848  21807622.4194   21807619.8284
        29.3994         22.9094
   -231322.15649   -177456.44046  24959085.6684   24959086.4044
      1034.6784        806.2424
 -11324856.01249  -8809153.61947  22386808.0154   22386807.6754
      2616.4794       2038.8154
 -14931376.57449 -11627690.29848  20795321.9954   20795319.3724
       452.3544        352.4834
 00  5  2 16 37  0.0020000  0  7G 2G 7G 5G 9G16G24G 4
  11190874.42249   8714848.50847  23077547.7834   23077547.4794
     -2504.4974      -1951.5564
  10222246.27049   7963144.23948  22268019.9604   22268017.5754
     -2187.0804      -1704.2184
  -5466419.91449  -4249426.63347  23893647.1504   23893646.0664
      2539.6344       1978.9354
 -11053173.72749  -8608296.81648  21807551.1154   21807548.0554
        20.4794         15.9574
   -246798.57449   -189515.99746  24956141.0294   24956141.6984
      1028.7994        801.6614
 -11364065.96949  -8839706.79347  22379346.3714   22379346.6044
      2611.6024       2035.0144
 -14938090.83649 -11632922.18748  20794043.8734   20794041.7804
       442.9744        345.1744
 00  5  2 16 37 15.0020000  0  7G 2G 7G 5G 9G16G24G 4
  11228479.89849   8744151.44847  23084704.0294   23084702.7774
     -2509.2584      -1955.2664
  10255070.00849   7988721.16048  22274265.8864   22274263.6514
     -2189.0234      -1705.7334
  -5504507.54749  -4279105.28647  23886398.9404   23886398.0104
      2539.1164       1978.5324
 -11053407.97349  -8608479.36348  21807506.2504   21807503.4014
        11.0994          8.6484
   -262181.16049   -201502.43246  24953213.2904   24953214.3124
      1022.5734        796.8104
 -11403196.87149  -8870198.38647  22371899.6074   22371899.8744
      2606.2304       2030.8294
 -14944658.59849 -11638039.91148  20792794.1824   20792792.1744
       433.1454        337.5154
 00  5  2 16 37 30.0020000  0  7G 2G 7G 5G 9G16G24G 4
  11266152.47749   8773506.66647  23091873.6024   23091872.0074
     -2513.9314      -1958.9074
  10287918.64549   8014317.49348  22280517.0184   22280514.8574
     -2190.9374      -1707.2244
  -5542589.74249  -4308779.69947  23879152.7544   23879151.0434
      2538.3794       1977.9584
 -11053504.12949  -8608554.29148  21807488.0794   21807485.0604
         1.5774          1.2294
   -277470.74249   -213416.42746  24950303.6244   24950304.6184
      1015.9574        791.6554
 -11442249.65249  -8900629.08047  22364468.2754   22364468.0014
      2600.6794       2026.5034
 -14951081.23049 -11643044.54848  20791572.3534   20791569.7534
       423.1544        329.7314
 00  5  2 16 37 45.0020000  0  7G 2G 7G 5G 9G16G24G 4
  11303895.12149   8802916.48947  23099055.3384   23099054.1204
     -2518.4084      -1962.3964
  10320795.05949   8039935.46548  22286773.0204   22286770.6404
     -2192.5394      -1708.4724
  -5580663.47349  -4338447.53147  23871907.2114   23871905.6544
      2538.0964       1977.7374
 -11053459.25849  -8608519.32748  21807496.3614   21807493.9714
        -7.5344         -5.8714
   -292664.50449   -225255.74546  24947412.2904   24947413.7594
      1009.7124        786.7894
 -11481221.23049  -8930996.50947  22357052.2514   22357052.1494
      2595.5034       2022.4704
 -14957355.68749 -11647933.72948  20790378.1794   20790375.5654
       413.5064        322.2124
 00  5  2 16 38  0.0020000  0  7G 2G 7G 5G 9G16G24G 4
  11341704.17649   8832378.05347  23106250.2644   23106248.9274
     -2522.9004      -1965.8964
  10353695.42649   8065572.11248  22293033.6634   22293031.5534
     -2194.1654      -1709.7394
  -5618732.21149  -4368111.46747  23864662.9614   23864661.6254
      2537.7204       1977.4444
 -11053277.00849  -8608377.32848  21807531.0454   21807528.8714
       -16.7724        -13.0694
   -307765.30549   -237022.56746  24944539.1934   24944539.5874
      1003.6874        782.0934
 -11520114.94949  -8961303.26847  22349650.9314   22349651.2354
      2590.2544       2018.3804
 -14963485.65649 -11652710.31948  20789211.6824   20789209.1984
       403.8674        314.7024
 00  5  2 16 38 15.0020000  0  7G 2G 7G 5G 9G16G24G 4
  11379580.43849   8861892.00747  23113457.5504   23113456.9014
     -2527.4664      -1969.4544
  10386620.50049   8091227.99948  22299299.0794   22299297.1664
     -2195.9184      -1711.1054
  -5656795.01649  -4397770.74047  23857419.6784   23857418.3844
      2537.1244       1976.9804
 -11052956.43749  -8608127.53148  21807592.1294   21807589.4484
       -26.1624        -20.3864
   -322772.26649   -248716.31846  24941682.7504   24941684.0304
       997.1974        777.0374
 -11558929.63749  -8991548.44047  22342264.6804   22342264.9324
      2584.8144       2014.1414
 -14969470.12549 -11657373.52748  20788072.7044   20788070.4324
       393.9214        306.9514
 00  5  2 16 38 30.0020000  0  7G 2G 7G 5G 9G16G24G 4
  11417525.68449   8891459.68247  23120678.7754   23120677.5114
     -2531.6754      -1972.7344
  10419572.00449   8116904.48948  22305569.8784   22305567.7944
     -2197.3884      -1712.2504
  -5694849.91849  -4427423.90447  23850177.9184   23850176.6674
      2536.9734       1976.8624
 -11052495.67249  -8607768.50348  21807679.6464   21807677.3754
       -35.1124        -27.3604
   -337683.06649   -260335.14946  24938845.8404   24938846.9404
       991.1434        772.3194
 -11597663.03549  -9021730.28348  22334893.7804   22334894.0734
      2579.8004       2010.2344
 -14975307.23049 -11661921.92548  20786962.3064   20786959.9944
       384.4824        299.5974
 00  5  2 16 38 45.0020000  0  7G 2G 7G 5G 9G16G24G 4
  11455537.89549   8921079.54647  23127912.0914   23127910.9944
     -2536.2844      -1976.3254
  10452547.77349   8142599.87648  22311844.6974   22311842.4074
     -2199.1064      -1713.5894
  -5732898.75049  -4457072.30847  23842937.6814   23842936.2634
      2536.5674       1976.5464
 -11051896.69949  -8607301.77848  21807794.2264   21807791.6504
       -44.4584        -34.6434
   -352499.76249   -271880.60746  24936025.7614   24936027.3864
       984.7074        767.3044
 -11636317.11349  -9051850.31347  22327538.4634   22327538.2814
      2574.3514       2005.9874
 -14980998.89149 -11666356.97048  20785878.8034   20785875.9854
       374.7664        292.0254
 00  5  2 16 39  0.0020000  0  7G 2G 7G 5G 9G16G24G 4
  11493618.23449   8950752.51047  23135158.0294   23135157.2404
     -2541.1434      -1980.1114
  10485548.73049   8168314.90148  22318124.6694   22318122.0884
     -2201.0894      -1715.1344
  -5770940.21149  -4486714.98847  23835698.3614   23835697.1524
      2535.6404       1975.8234
 -11051158.30149  -8606726.40048  21807934.4544   21807931.8114
       -54.0234        -42.0964
   -367220.77049   -283351.53746  24933225.0254   24933225.9024
       978.0424        762.1114
 -11674890.37549  -9081907.35448  22320197.9194   22320197.8154
      2568.7164       2001.5974
 -14986543.98049 -11670677.81148  20784823.8144   20784821.3644
       364.6144        284.1154
 00  5  2 16 39 15.0020000  0  7G 2G 7G 5G 9G16G24G 4
  11531767.10549   8980478.86647  23142418.2144   23142416.9594
     -2545.5034      -1983.5094
  10518575.38749   8194049.94648  22324409.4514   22324407.3014
     -2202.5784      -1716.2954
  -5808973.67649  -4516351.41847  23828461.1304   23828459.4364
      2535.3034       1975.5614
 -11050280.03549  -8606042.05148  21808101.6264   21808099.2374
       -63.2134        -49.2574
   -381845.17649   -294747.16146  24930441.9344   24930443.5444
       971.8164        757.2604
 -11713381.94149  -9111900.75247  22312873.1884   22312873.4114
      2563.4184       1997.4694
 -14991941.91849 -11674883.99848  20783796.7474   20783794.1514
       354.9904        276.6164
 00  5  2 16 39 30.0020000  0  7G 2G 7G 5G 9G16G24G 4
  11569983.44149   9010257.80147  23149690.7884   23149689.1364
     -2550.1124      -1987.1004
  10551626.50449   8219804.05248  22330698.8224   22330696.8034
     -2204.3364      -1717.6644
  -5846999.89549  -4545982.20547  23821225.0314   23821223.3534
      2534.6684       1975.0664
 -11049262.82849  -8605249.42448  21808294.8964   21808292.6324
       -72.6034        -56.5734
   -396373.73849   -306068.11246  24927677.1974   24927678.5664
       965.2644        752.1534
 -11751792.55549  -9141831.07247  22305563.9314   22305563.8834
      2557.9104       1993.1774
 -14997193.62549 -11678976.22948  20782797.2164   20782794.3934
       345.1174        268.9224
 00  5  2 16 39 45.0020000  0  7G 2G 7G 5G 9G16G24G 4
  11608269.25049   9040090.85547  23156975.7884   23156974.7324
     -2554.6634      -1990.6474
  10584704.03949   8245578.74548  22336993.6174   22336990.8584
     -2205.9474      -1718.9204
  -5885016.73849  -4575605.68747  23813990.3234   23813989.3454
      2534.1754       1974.6824
 -11048104.52049  -8604346.85248  21808515.4414   21808513.2654
       -81.8994        -63.8184
   -410804.12149   -317312.56646  24924931.4174   24924931.7844
       958.8434        747.1504
 -11790119.95349  -9171696.55048  22298270.5404   22298270.5284
      2552.4714       1988.9384
 -15002297.10249 -11682952.95348  20781826.0284   20781823.6594
       335.3174        261.2864
